| time (UTC) | temp F | wind direction | speed MPH | gust MPH | rain 1hr in | rain 24hr in | rain mn in | humidity % | barometer mb |
| 20260508185112 | 58 | 247 | 10.0 | 24.0 | 0.00 | 0.00 | 0.00 | 34 | 1007.9 |
| 20260508185011 | 58 | 251 | 7.0 | 24.0 | 0.00 | 0.00 | 0.00 | 34 | 1008.2 |
| 20260508184911 | 57 | 254 | 8.0 | 24.0 | 0.00 | 0.00 | 0.00 | 34 | 1008.2 |
| 20260508184811 | 57 | 256 | 5.0 | 24.0 | 0.00 | 0.00 | 0.00 | 34 | 1008.3 |
| 20260508184712 | 57 | 255 | 8.0 | 24.0 | 0.00 | 0.00 | 0.00 | 35 | 1008.1 |
| 20260508184611 | 57 | 261 | 9.0 | 24.0 | 0.00 | 0.00 | 0.00 | 34 | 1008.1 |
| 20260508184512 | 57 | 262 | 8.0 | 24.0 | 0.00 | 0.00 | 0.00 | 34 | 1008.2 |
| 20260508184412 | 57 | 264 | 8.0 | 24.0 | 0.00 | 0.00 | 0.00 | 34 | 1008.2 |
| 20260508184312 | 57 | 265 | 9.0 | 24.0 | 0.00 | 0.00 | 0.00 | 34 | 1008.2 |
| 20260508184212 | 58 | 269 | 9.0 | 20.0 | 0.00 | 0.00 | 0.00 | 35 | 1008.2 |
| 20260508184112 | 58 | 270 | 8.0 | 20.0 | 0.00 | 0.00 | 0.00 | 36 | 1008.1 |
| 20260508184011 | 58 | 264 | 11.0 | 20.0 | 0.00 | 0.00 | 0.00 | 36 | 1008.3 |
| 20260508183912 | 58 | 267 | 6.0 | 20.0 | 0.00 | 0.00 | 0.00 | 36 | 1008.1 |
| 20260508183812 | 58 | 264 | 6.0 | 20.0 | 0.00 | 0.00 | 0.00 | 36 | 1008.2 |
| 20260508183711 | 58 | 264 | 9.0 | 20.0 | 0.00 | 0.00 | 0.00 | 35 | 1008.0 |
| 20260508183611 | 58 | 269 | 5.0 | 16.0 | 0.00 | 0.00 | 0.00 | 36 | 1008.1 |
| 20260508183512 | 58 | 264 | 9.0 | 16.0 | 0.00 | 0.00 | 0.00 | 35 | 1008.1 |
| 20260508183412 | 58 | 263 | 8.0 | 14.0 | 0.00 | 0.00 | 0.00 | 35 | 1008.2 |
| 20260508183333 | 58 | 262 | 8.0 | 16.0 | 0.00 | 0.00 | 0.00 | 35 | 1008.2 |
| 20260508183212 | 58 | 266 | 8.0 | 16.0 | 0.00 | 0.00 | 0.00 | 36 | 1008.1 |
| 20260508183112 | 58 | 271 | 6.0 | 16.0 | 0.00 | 0.00 | 0.00 | 36 | 1008.1 |
| 20260508183012 | 58 | 266 | 8.0 | 16.0 | 0.00 | 0.00 | 0.00 | 35 | 1008.1 |
| 20260508182912 | 58 | 258 | 7.0 | 16.0 | 0.00 | 0.00 | 0.00 | 35 | 1008.2 |
| 20260508182812 | 58 | 251 | 4.0 | 16.0 | 0.00 | 0.00 | 0.00 | 35 | 1008.2 |
| 20260508182711 | 58 | 248 | 7.0 | 16.0 | 0.00 | 0.00 | 0.00 | 35 | 1008.2 |
| 20260508182633 | 58 | 243 | 5.0 | 16.0 | 0.00 | 0.00 | 0.00 | 36 | 1008.2 |
| 20260508182512 | 58 | 239 | 5.0 | 16.0 | 0.00 | 0.00 | 0.00 | 35 | 1008.3 |
| 20260508182412 | 58 | 233 | 5.0 | 21.0 | 0.00 | 0.00 | 0.00 | 35 | 1008.3 |
| 20260508182312 | 58 | 234 | 8.0 | 21.0 | 0.00 | 0.00 | 0.00 | 34 | 1008.3 |
| 20260508182212 | 58 | 229 | 8.0 | 21.0 | 0.00 | 0.00 | 0.00 | 35 | 1008.1 |
| 20260508182112 | 58 | 227 | 6.0 | 21.0 | 0.00 | 0.00 | 0.00 | 36 | 1008.4 |
| 20260508182012 | 58 | 229 | 4.0 | 21.0 | 0.00 | 0.00 | 0.00 | 36 | 1008.4 |
| 20260508181912 | 58 | 227 | 6.0 | 21.0 | 0.00 | 0.00 | 0.00 | 36 | 1008.4 |
| 20260508181833 | 58 | 228 | 9.0 | 21.0 | 0.00 | 0.00 | 0.00 | 35 | 1008.3 |
| 20260508181713 | 58 | 232 | 6.0 | 21.0 | 0.00 | 0.00 | 0.00 | 36 | 1008.3 |
| 20260508181612 | 58 | 239 | 4.0 | 21.0 | 0.00 | 0.00 | 0.00 | 36 | 1008.3 |
| 20260508181533 | 58 | 237 | 10.0 | 21.0 | 0.00 | 0.00 | 0.00 | 35 | 1008.4 |
| 20260508181412 | 58 | 247 | 5.0 | 17.0 | 0.00 | 0.00 | 0.00 | 37 | 1008.4 |
| 20260508181313 | 58 | 246 | 5.0 | 17.0 | 0.00 | 0.00 | 0.00 | 37 | 1008.3 |
| 20260508181233 | 58 | 246 | 9.0 | 17.0 | 0.00 | 0.00 | 0.00 | 37 | 1008.3 |
| 20260508181112 | 58 | 236 | 9.0 | 18.0 | 0.00 | 0.00 | 0.00 | 37 | 1008.3 |
| 20260508181012 | 58 | 229 | 9.0 | 18.0 | 0.00 | 0.00 | 0.00 | 36 | 1008.5 |
| 20260508180912 | 58 | 230 | 11.0 | 18.0 | 0.00 | 0.00 | 0.00 | 36 | 1008.4 |
| 20260508180833 | 58 | 229 | 8.0 | 18.0 | 0.00 | 0.00 | 0.00 | 35 | 1008.3 |
| 20260508180733 | 58 | 223 | 7.0 | 18.0 | 0.00 | 0.00 | 0.00 | 36 | 1008.4 |
| 20260508180612 | 58 | 218 | 8.0 | 18.0 | 0.00 | 0.00 | 0.00 | 36 | 1008.4 |
| 20260508180533 | 58 | 216 | 8.0 | 18.0 | 0.00 | 0.00 | 0.00 | 36 | 1008.4 |
| 20260508180412 | 57 | 212 | 4.0 | 18.0 | 0.00 | 0.00 | 0.00 | 37 | 1008.4 |
| 20260508180312 | 57 | 214 | 6.0 | 22.0 | 0.00 | 0.00 | 0.00 | 36 | 1008.3 |
| 20260508180211 | 58 | 225 | 10.0 | 22.0 | 0.00 | 0.00 | 0.00 | 35 | 1008.3 |
| 20260508180112 | 58 | 231 | 8.0 | 22.0 | 0.00 | 0.00 | 0.00 | 35 | 1008.1 |
| 20260508180012 | 58 | 235 | 5.0 | 22.0 | 0.00 | 0.00 | 0.00 | 36 | 1008.4 |
| 20260508175912 | 58 | 243 | 9.0 | 22.0 | 0.00 | 0.00 | 0.00 | 35 | 1008.4 |
| 20260508175812 | 58 | 246 | 8.0 | 22.0 | 0.00 | 0.00 | 0.00 | 36 | 1008.4 |
| 20260508175712 | 57 | 249 | 8.0 | 22.0 | 0.00 | 0.00 | 0.00 | 37 | 1008.5 |
| 20260508175612 | 57 | 249 | 6.0 | 22.0 | 0.00 | 0.00 | 0.00 | 38 | 1008.5 |
| 20260508175512 | 57 | 253 | 7.0 | 22.0 | 0.00 | 0.00 | 0.00 | 38 | 1008.2 |
| 20260508175412 | 57 | 257 | 11.0 | 22.0 | 0.00 | 0.00 | 0.00 | 38 | 1008.4 |
| 20260508175312 | 57 | 254 | 12.0 | 22.0 | 0.00 | 0.00 | 0.00 | 38 | 1008.5 |
| 20260508175212 | 56 | 246 | 7.0 | 22.0 | 0.00 | 0.00 | 0.00 | 40 | 1008.3 |
| 20260508175112 | 56 | 240 | 9.0 | 22.0 | 0.00 | 0.00 | 0.00 | 39 | 1008.3 |
| 20260508175012 | 57 | 242 | 14.0 | 22.0 | 0.00 | 0.00 | 0.00 | 39 | 1008.3 |
| 20260508174933 | 57 | 239 | 14.0 | 22.0 | 0.00 | 0.00 | 0.00 | 39 | 1008.3 |
| 20260508174833 | 57 | 230 | 11.0 | 21.0 | 0.00 | 0.00 | 0.00 | 39 | 1008.3 |
| 20260508174733 | 57 | 230 | 10.0 | 17.0 | 0.00 | 0.00 | 0.00 | 39 | 1008.4 |
| 20260508174612 | 57 | 231 | 10.0 | 16.0 | 0.00 | 0.00 | 0.00 | 39 | 1008.3 |
| 20260508174512 | 57 | 234 | 8.0 | 16.0 | 0.00 | 0.00 | 0.00 | 40 | 1008.3 |
| 20260508174433 | 57 | 230 | 7.0 | 16.0 | 0.00 | 0.00 | 0.00 | 40 | 1008.4 |
| 20260508174333 | 57 | 229 | 8.0 | 16.0 | 0.00 | 0.00 | 0.00 | 40 | 1008.5 |
| 20260508174212 | 57 | 236 | 7.0 | 18.0 | 0.00 | 0.00 | 0.00 | 40 | 1008.5 |
| 20260508174133 | 57 | 239 | 7.0 | 20.0 | 0.00 | 0.00 | 0.00 | 40 | 1008.5 |
| 20260508174011 | 57 | 250 | 7.0 | 20.0 | 0.00 | 0.00 | 0.00 | 40 | 1008.3 |
| 20260508173911 | 57 | 254 | 6.0 | 20.0 | 0.00 | 0.00 | 0.00 | 40 | 1008.6 |
| 20260508173811 | 57 | 258 | 9.0 | 20.0 | 0.00 | 0.00 | 0.00 | 40 | 1008.5 |
| 20260508173711 | 57 | 255 | 8.0 | 20.0 | 0.00 | 0.00 | 0.00 | 40 | 1008.3 |
| 20260508173633 | 57 | 255 | 7.0 | 20.0 | 0.00 | 0.00 | 0.00 | 40 | 1008.4 |
| 20260508173511 | 57 | 261 | 4.0 | 20.0 | 0.00 | 0.00 | 0.00 | 41 | 1008.4 |
| 20260508173412 | 57 | 254 | 11.0 | 20.0 | 0.00 | 0.00 | 0.00 | 40 | 1008.4 |
| 20260508173312 | 57 | 256 | 10.0 | 20.0 | 0.00 | 0.00 | 0.00 | 40 | 1008.5 |
| 20260508173211 | 57 | 254 | 11.0 | 20.0 | 0.00 | 0.00 | 0.00 | 40 | 1008.3 |
| 20260508173112 | 57 | 259 | 8.0 | 20.0 | 0.00 | 0.00 | 0.00 | 40 | 1008.5 |
| 20260508173033 | 57 | 260 | 11.0 | 20.0 | 0.00 | 0.00 | 0.00 | 39 | 1008.3 |
| 20260508172933 | 57 | 257 | 4.0 | 20.0 | 0.00 | 0.00 | 0.00 | 41 | 1008.3 |
| 20260508172833 | 57 | 256 | 9.0 | 20.0 | 0.00 | 0.00 | 0.00 | 40 | 1008.4 |
| 20260508172733 | 57 | 262 | 8.0 | 20.0 | 0.00 | 0.00 | 0.00 | 40 | 1008.2 |
| 20260508172632 | 57 | 259 | 9.0 | 20.0 | 0.00 | 0.00 | 0.00 | 40 | 1008.3 |
| 20260508172512 | 57 | 248 | 8.0 | 20.0 | 0.00 | 0.00 | 0.00 | 40 | 1008.4 |
| 20260508172412 | 56 | 250 | 8.0 | 20.0 | 0.00 | 0.00 | 0.00 | 40 | 1008.2 |
| 20260508172311 | 56 | 250 | 8.0 | 20.0 | 0.00 | 0.00 | 0.00 | 41 | 1008.3 |
| 20260508172212 | 56 | 255 | 10.0 | 20.0 | 0.00 | 0.00 | 0.00 | 40 | 1008.4 |
| 20260508172112 | 56 | 252 | 10.0 | 20.0 | 0.00 | 0.00 | 0.00 | 40 | 1008.3 |
| 20260508172012 | 57 | 250 | 9.0 | 20.0 | 0.00 | 0.00 | 0.00 | 40 | 1008.4 |
| 20260508171912 | 57 | 249 | 9.0 | 20.0 | 0.00 | 0.00 | 0.00 | 40 | 1008.6 |
| 20260508171812 | 57 | 246 | 10.0 | 18.0 | 0.00 | 0.00 | 0.00 | 41 | 1008.4 |
| 20260508171732 | 57 | 243 | 10.0 | 18.0 | 0.00 | 0.00 | 0.00 | 41 | 1008.4 |
| 20260508171612 | 57 | 254 | 9.0 | 20.0 | 0.00 | 0.00 | 0.00 | 40 | 1008.5 |
| 20260508171533 | 57 | 259 | 7.0 | 20.0 | 0.00 | 0.00 | 0.00 | 41 | 1008.4 |
| 20260508171412 | 58 | 265 | 5.0 | 20.0 | 0.00 | 0.00 | 0.00 | 41 | 1008.6 |
| 20260508171332 | 58 | 266 | 5.0 | 20.0 | 0.00 | 0.00 | 0.00 | 41 | 1008.6 |
| 20260508171234 | 58 | 265 | 9.0 | 20.0 | 0.00 | 0.00 | 0.00 | 40 | 1008.7 |
| 20260508171111 | 58 | 262 | 5.0 | 20.0 | 0.00 | 0.00 | 0.00 | 41 | 1008.7 |
| 20260508171033 | 57 | 262 | 7.0 | 20.0 | 0.00 | 0.00 | 0.00 | 41 | 1008.5 |
| 20260508170911 | 57 | 259 | 6.0 | 20.0 | 0.00 | 0.00 | 0.00 | 41 | 1008.5 |
| 20260508170811 | 57 | 255 | 8.0 | 20.0 | 0.00 | 0.00 | 0.00 | 42 | 1008.4 |
| 20260508170711 | 57 | 260 | 6.0 | 20.0 | 0.00 | 0.00 | 0.00 | 41 | 1008.5 |
| 20260508170612 | 57 | 256 | 6.0 | 17.0 | 0.00 | 0.00 | 0.00 | 42 | 1008.6 |
| 20260508170512 | 57 | 257 | 6.0 | 17.0 | 0.00 | 0.00 | 0.00 | 42 | 1008.6 |
| 20260508170412 | 57 | 254 | 11.0 | 17.0 | 0.00 | 0.00 | 0.00 | 41 | 1008.6 |
| 20260508170312 | 57 | 253 | 7.0 | 20.0 | 0.00 | 0.00 | 0.00 | 42 | 1008.6 |
| 20260508170212 | 56 | 248 | 11.0 | 20.0 | 0.00 | 0.00 | 0.00 | 41 | 1008.7 |
| 20260508170112 | 56 | 247 | 7.0 | 20.0 | 0.00 | 0.00 | 0.00 | 42 | 1008.6 |
| 20260508170012 | 56 | 248 | 7.0 | 20.0 | 0.00 | 0.00 | 0.00 | 42 | 1008.6 |
| 20260508165911 | 56 | 242 | 8.0 | 20.0 | 0.00 | 0.00 | 0.00 | 42 | 1008.6 |
| 20260508165812 | 56 | 238 | 10.0 | 21.0 | 0.00 | 0.00 | 0.00 | 41 | 1008.6 |
| 20260508165712 | 56 | 230 | 10.0 | 21.0 | 0.00 | 0.00 | 0.00 | 41 | 1008.7 |
| 20260508165633 | 56 | 223 | 8.0 | 21.0 | 0.00 | 0.00 | 0.00 | 41 | 1008.8 |
| 20260508165512 | 56 | 215 | 8.0 | 21.0 | 0.00 | 0.00 | 0.00 | 41 | 1008.7 |
| 20260508165433 | 56 | 217 | 9.0 | 21.0 | 0.00 | 0.00 | 0.00 | 42 | 1008.6 |
| 20260508165311 | 56 | 211 | 9.0 | 24.0 | 0.00 | 0.00 | 0.00 | 41 | 1008.7 |
| 20260508165233 | 56 | 221 | 8.0 | 24.0 | 0.00 | 0.00 | 0.00 | 41 | 1008.8 |
| 20260508165111 | 57 | 230 | 4.0 | 24.0 | 0.00 | 0.00 | 0.00 | 41 | 1008.8 |
| 20260508165012 | 57 | 232 | 8.0 | 24.0 | 0.00 | 0.00 | 0.00 | 41 | 1008.6 |
| 20260508164933 | 57 | 238 | 8.0 | 24.0 | 0.00 | 0.00 | 0.00 | 41 | 1008.6 |
| 20260508164811 | 56 | 250 | 9.0 | 24.0 | 0.00 | 0.00 | 0.00 | 42 | 1009.0 |
| 20260508164712 | 56 | 255 | 5.0 | 24.0 | 0.00 | 0.00 | 0.00 | 43 | 1008.7 |
| 20260508164611 | 56 | 255 | 8.0 | 24.0 | 0.00 | 0.00 | 0.00 | 43 | 1008.9 |
| 20260508164511 | 56 | 255 | 8.0 | 24.0 | 0.00 | 0.00 | 0.00 | 43 | 1008.8 |
| 20260508164412 | 56 | 250 | 7.0 | 24.0 | 0.00 | 0.00 | 0.00 | 43 | 1009.0 |
| 20260508164312 | 56 | 249 | 13.0 | 24.0 | 0.00 | 0.00 | 0.00 | 43 | 1009.0 |
| 20260508164212 | 56 | 249 | 10.0 | 20.0 | 0.00 | 0.00 | 0.00 | 44 | 1008.9 |
| 20260508164111 | 56 | 243 | 8.0 | 20.0 | 0.00 | 0.00 | 0.00 | 43 | 1008.9 |
| 20260508164012 | 56 | 237 | 11.0 | 20.0 | 0.00 | 0.00 | 0.00 | 43 | 1009.0 |
| 20260508163911 | 56 | 221 | 11.0 | 21.0 | 0.00 | 0.00 | 0.00 | 43 | 1009.0 |
| 20260508163811 | 55 | 217 | 6.0 | 21.0 | 0.00 | 0.00 | 0.00 | 44 | 1009.0 |
| 20260508163711 | 55 | 210 | 4.0 | 21.0 | 0.00 | 0.00 | 0.00 | 44 | 1009.0 |
| 20260508163611 | 55 | 212 | 8.0 | 21.0 | 0.00 | 0.00 | 0.00 | 43 | 1009.0 |
| 20260508163511 | 55 | 218 | 11.0 | 21.0 | 0.00 | 0.00 | 0.00 | 43 | 1009.0 |
| 20260508163411 | 56 | 215 | 11.0 | 21.0 | 0.00 | 0.00 | 0.00 | 42 | 1009.1 |
| 20260508163312 | 56 | 223 | 6.0 | 21.0 | 0.00 | 0.00 | 0.00 | 43 | 1009.0 |
| 20260508163212 | 56 | 228 | 6.0 | 21.0 | 0.00 | 0.00 | 0.00 | 43 | 1009.0 |
| 20260508163111 | 56 | 235 | 4.0 | 21.0 | 0.00 | 0.00 | 0.00 | 43 | 1009.2 |
| 20260508163012 | 55 | 244 | 10.0 | 21.0 | 0.00 | 0.00 | 0.00 | 43 | 1009.2 |
| 20260508162911 | 55 | 259 | 5.0 | 18.0 | 0.00 | 0.00 | 0.00 | 44 | 1009.1 |
| 20260508162812 | 55 | 265 | 8.0 | 18.0 | 0.00 | 0.00 | 0.00 | 43 | 1009.0 |
| 20260508162711 | 55 | 262 | 8.0 | 18.0 | 0.00 | 0.00 | 0.00 | 44 | 1009.3 |
| 20260508162612 | 55 | 263 | 8.0 | 20.0 | 0.00 | 0.00 | 0.00 | 44 | 1009.1 |
| 20260508162511 | 55 | 264 | 7.0 | 20.0 | 0.00 | 0.00 | 0.00 | 44 | 1009.1 |
| 20260508162411 | 55 | 266 | 7.0 | 20.0 | 0.00 | 0.00 | 0.00 | 44 | 1009.0 |
| 20260508162333 | 55 | 270 | 8.0 | 20.0 | 0.00 | 0.00 | 0.00 | 44 | 1009.1 |
| 20260508162212 | 55 | 274 | 8.0 | 20.0 | 0.00 | 0.00 | 0.00 | 45 | 1009.0 |
| 20260508162112 | 55 | 275 | 10.0 | 20.0 | 0.00 | 0.00 | 0.00 | 44 | 1009.2 |
| 20260508162011 | 55 | 273 | 9.0 | 20.0 | 0.00 | 0.00 | 0.00 | 45 | 1009.3 |
| 20260508161912 | 55 | 270 | 8.0 | 20.0 | 0.00 | 0.00 | 0.00 | 45 | 1009.2 |
| 20260508161811 | 55 | 264 | 6.0 | 20.0 | 0.00 | 0.00 | 0.00 | 45 | 1009.1 |
| 20260508161711 | 55 | 268 | 8.0 | 20.0 | 0.00 | 0.00 | 0.00 | 45 | 1009.2 |
| 20260508161611 | 55 | 269 | 10.0 | 20.0 | 0.00 | 0.00 | 0.00 | 45 | 1009.3 |
| 20260508161512 | 55 | 259 | 11.0 | 20.0 | 0.00 | 0.00 | 0.00 | 44 | 1009.1 |
| 20260508161411 | 54 | 255 | 7.0 | 20.0 | 0.00 | 0.00 | 0.00 | 46 | 1009.1 |
| 20260508161312 | 54 | 250 | 7.0 | 20.0 | 0.00 | 0.00 | 0.00 | 46 | 1009.3 |
| 20260508161233 | 54 | 243 | 9.0 | 20.0 | 0.00 | 0.00 | 0.00 | 45 | 1009.2 |
| 20260508161112 | 54 | 237 | 8.0 | 20.0 | 0.00 | 0.00 | 0.00 | 46 | 1009.2 |
| 20260508161011 | 55 | 232 | 10.0 | 20.0 | 0.00 | 0.00 | 0.00 | 45 | 1009.4 |
| 20260508160911 | 55 | 226 | 8.0 | 20.0 | 0.00 | 0.00 | 0.00 | 45 | 1009.3 |
| 20260508160811 | 55 | 225 | 4.0 | 20.0 | 0.00 | 0.00 | 0.00 | 46 | 1009.3 |
| 20260508160711 | 55 | 212 | 13.0 | 20.0 | 0.00 | 0.00 | 0.00 | 45 | 1009.3 |
| 20260508160612 | 55 | 197 | 8.0 | 20.0 | 0.00 | 0.00 | 0.00 | 46 | 1009.1 |
| 20260508160511 | 55 | 201 | 6.0 | 23.0 | 0.00 | 0.00 | 0.00 | 46 | 1009.4 |
| 20260508160412 | 54 | 213 | 5.0 | 23.0 | 0.00 | 0.00 | 0.00 | 46 | 1009.3 |
| 20260508160311 | 54 | 219 | 6.0 | 23.0 | 0.00 | 0.00 | 0.00 | 46 | 1009.4 |
| 20260508160212 | 54 | 217 | 8.0 | 23.0 | 0.00 | 0.00 | 0.00 | 45 | 1009.3 |
| 20260508160132 | 54 | 214 | 8.0 | 23.0 | 0.00 | 0.00 | 0.00 | 45 | 1009.3 |
| 20260508160012 | 55 | 225 | 8.0 | 23.0 | 0.00 | 0.00 | 0.00 | 45 | 1009.4 |
| 20260508155911 | 55 | 227 | 9.0 | 23.0 | 0.00 | 0.00 | 0.00 | 46 | 1009.5 |
| 20260508155811 | 54 | 230 | 8.0 | 23.0 | 0.00 | 0.00 | 0.00 | 47 | 1009.3 |
| 20260508155712 | 54 | 232 | 8.0 | 23.0 | 0.00 | 0.00 | 0.00 | 47 | 1009.4 |
| 20260508155633 | 54 | 238 | 8.0 | 23.0 | 0.00 | 0.00 | 0.00 | 47 | 1009.4 |
| 20260508155511 | 54 | 247 | 10.0 | 23.0 | 0.00 | 0.00 | 0.00 | 47 | 1009.4 |
| 20260508155412 | 54 | 244 | 6.0 | 17.0 | 0.00 | 0.00 | 0.00 | 47 | 1009.5 |
| 20260508155312 | 54 | 237 | 10.0 | 17.0 | 0.00 | 0.00 | 0.00 | 46 | 1009.2 |
| 20260508155233 | 54 | 243 | 7.0 | 17.0 | 0.00 | 0.00 | 0.00 | 48 | 1009.5 |
| 20260508155132 | 54 | 250 | 6.0 | 17.0 | 0.00 | 0.00 | 0.00 | 48 | 1009.5 |
| 20260508155011 | 54 | 242 | 5.0 | 17.0 | 0.00 | 0.00 | 0.00 | 48 | 1009.4 |
| 20260508154911 | 54 | 240 | 5.0 | 17.0 | 0.00 | 0.00 | 0.00 | 47 | 1009.5 |
| 20260508154833 | 54 | 242 | 7.0 | 17.0 | 0.00 | 0.00 | 0.00 | 48 | 1009.5 |
| 20260508154733 | 54 | 244 | 6.0 | 17.0 | 0.00 | 0.00 | 0.00 | 47 | 1009.6 |
| 20260508154611 | 54 | 240 | 8.0 | 18.0 | 0.00 | 0.00 | 0.00 | 47 | 1009.6 |
| 20260508154511 | 54 | 230 | 8.0 | 20.0 | 0.00 | 0.00 | 0.00 | 46 | 1009.6 |
| 20260508154411 | 54 | 223 | 8.0 | 23.0 | 0.00 | 0.00 | 0.00 | 47 | 1009.7 |
| 20260508154311 | 54 | 222 | 8.0 | 23.0 | 0.00 | 0.00 | 0.00 | 47 | 1009.5 |
| 20260508154211 | 54 | 219 | 8.0 | 23.0 | 0.00 | 0.00 | 0.00 | 47 | 1009.5 |
| 20260508154111 | 54 | 216 | 7.0 | 23.0 | 0.00 | 0.00 | 0.00 | 47 | 1009.5 |
| 20260508154011 | 54 | 219 | 9.0 | 23.0 | 0.00 | 0.00 | 0.00 | 47 | 1009.5 |
| 20260508153911 | 54 | 225 | 4.0 | 23.0 | 0.00 | 0.00 | 0.00 | 48 | 1009.5 |
| 20260508153812 | 54 | 224 | 4.0 | 23.0 | 0.00 | 0.00 | 0.00 | 47 | 1009.6 |
| 20260508153732 | 54 | 223 | 4.0 | 23.0 | 0.00 | 0.00 | 0.00 | 47 | 1009.6 |
| 20260508153633 | 54 | 224 | 7.0 | 23.0 | 0.00 | 0.00 | 0.00 | 47 | 1009.6 |
| 20260508153511 | 54 | 237 | 8.0 | 23.0 | 0.00 | 0.00 | 0.00 | 47 | 1009.6 |
| 20260508153412 | 54 | 240 | 9.0 | 20.0 | 0.00 | 0.00 | 0.00 | 46 | 1009.6 |
| 20260508153311 | 54 | 245 | 9.0 | 20.0 | 0.00 | 0.00 | 0.00 | 46 | 1009.6 |
| 20260508153211 | 54 | 254 | 8.0 | 18.0 | 0.00 | 0.00 | 0.00 | 46 | 1009.6 |
| 20260508153112 | 54 | 255 | 8.0 | 18.0 | 0.00 | 0.00 | 0.00 | 47 | 1009.8 |
| 20260508153012 | 54 | 254 | 9.0 | 18.0 | 0.00 | 0.00 | 0.00 | 47 | 1009.7 |
| 20260508152933 | 54 | 256 | 9.0 | 18.0 | 0.00 | 0.00 | 0.00 | 47 | 1009.7 |
| 20260508152812 | 54 | 263 | 11.0 | 18.0 | 0.00 | 0.00 | 0.00 | 46 | 1009.5 |
| 20260508152711 | 54 | 273 | 7.0 | 18.0 | 0.00 | 0.00 | 0.00 | 47 | 1009.6 |
| 20260508152611 | 54 | 266 | 5.0 | 18.0 | 0.00 | 0.00 | 0.00 | 47 | 1009.8 |
| 20260508152512 | 54 | 261 | 10.0 | 18.0 | 0.00 | 0.00 | 0.00 | 47 | 1009.7 |
| 20260508152411 | 54 | 261 | 9.0 | 18.0 | 0.00 | 0.00 | 0.00 | 47 | 1009.6 |
| 20260508152311 | 54 | 260 | 6.0 | 18.0 | 0.00 | 0.00 | 0.00 | 48 | 1009.6 |
| 20260508152233 | 54 | 261 | 7.0 | 18.0 | 0.00 | 0.00 | 0.00 | 49 | 1009.8 |
| 20260508152112 | 53 | 258 | 7.0 | 18.0 | 0.00 | 0.00 | 0.00 | 49 | 1009.8 |
| 20260508152011 | 53 | 261 | 8.0 | 18.0 | 0.00 | 0.00 | 0.00 | 49 | 1009.7 |
| 20260508151911 | 53 | 263 | 11.0 | 18.0 | 0.00 | 0.00 | 0.00 | 49 | 1009.7 |
| 20260508151811 | 54 | 259 | 11.0 | 18.0 | 0.00 | 0.00 | 0.00 | 49 | 1009.6 |
| 20260508151712 | 54 | 249 | 8.0 | 18.0 | 0.00 | 0.00 | 0.00 | 48 | 1009.8 |
| 20260508151611 | 54 | 247 | 8.0 | 18.0 | 0.00 | 0.00 | 0.00 | 48 | 1009.9 |
| 20260508151511 | 53 | 248 | 8.0 | 18.0 | 0.00 | 0.00 | 0.00 | 49 | 1009.8 |
| 20260508151411 | 53 | 247 | 8.0 | 18.0 | 0.00 | 0.00 | 0.00 | 49 | 1009.9 |
| 20260508151311 | 53 | 250 | 7.0 | 18.0 | 0.00 | 0.00 | 0.00 | 50 | 1009.8 |
| 20260508151232 | 53 | 249 | 6.0 | 18.0 | 0.00 | 0.00 | 0.00 | 50 | 1009.8 |
| 20260508151133 | 53 | 251 | 10.0 | 18.0 | 0.00 | 0.00 | 0.00 | 50 | 1010.0 |
| 20260508151011 | 53 | 244 | 7.0 | 18.0 | 0.00 | 0.00 | 0.00 | 51 | 1009.7 |
| 20260508150911 | 53 | 239 | 10.0 | 18.0 | 0.00 | 0.00 | 0.00 | 50 | 1009.9 |
| 20260508150811 | 53 | 234 | 10.0 | 18.0 | 0.00 | 0.00 | 0.00 | 49 | 1009.7 |
| 20260508150711 | 53 | 234 | 9.0 | 18.0 | 0.00 | 0.00 | 0.00 | 49 | 1009.8 |
| 20260508150633 | 53 | 236 | 8.0 | 18.0 | 0.00 | 0.00 | 0.00 | 50 | 1009.9 |
| 20260508150533 | 53 | 239 | 5.0 | 18.0 | 0.00 | 0.00 | 0.00 | 50 | 1009.8 |
| 20260508150411 | 53 | 241 | 11.0 | 18.0 | 0.00 | 0.00 | 0.00 | 50 | 1009.8 |
| 20260508150311 | 53 | 243 | 6.0 | 20.0 | 0.00 | 0.00 | 0.00 | 50 | 1009.6 |
| 20260508150211 | 53 | 248 | 10.0 | 20.0 | 0.00 | 0.00 | 0.00 | 49 | 1009.8 |
| 20260508150111 | 53 | 255 | 8.0 | 20.0 | 0.00 | 0.00 | 0.00 | 50 | 1009.8 |
| 20260508150012 | 53 | 259 | 7.0 | 20.0 | 0.00 | 0.00 | 0.00 | 50 | 1009.7 |
| 20260508145911 | 53 | 260 | 6.0 | 20.0 | 0.00 | 0.00 | 0.00 | 50 | 1009.6 |
| 20260508145833 | 53 | 256 | 8.0 | 20.0 | 0.00 | 0.00 | 0.00 | 50 | 1009.6 |
| 20260508145711 | 52 | 264 | 7.0 | 20.0 | 0.00 | 0.00 | 0.00 | 50 | 1009.8 |
| 20260508145611 | 52 | 261 | 9.0 | 20.0 | 0.00 | 0.00 | 0.00 | 50 | 1010.0 |
| 20260508145511 | 52 | 256 | 8.0 | 20.0 | 0.00 | 0.00 | 0.00 | 50 | 1009.8 |
| 20260508145411 | 53 | 242 | 11.0 | 20.0 | 0.00 | 0.00 | 0.00 | 50 | 1009.8 |
| 20260508145311 | 53 | 241 | 10.0 | 20.0 | 0.00 | 0.00 | 0.00 | 50 | 1009.9 |
| 20260508145211 | 53 | 237 | 10.0 | 20.0 | 0.00 | 0.00 | 0.00 | 50 | 1009.8 |
| 20260508145111 | 53 | 223 | 7.0 | 20.0 | 0.00 | 0.00 | 0.00 | 50 | 1009.9 |
| 20260508145011 | 53 | 217 | 12.0 | 20.0 | 0.00 | 0.00 | 0.00 | 50 | 1009.9 |
| 20260508144911 | 53 | 211 | 8.0 | 20.0 | 0.00 | 0.00 | 0.00 | 50 | 1010.0 |
| 20260508144811 | 53 | 220 | 6.0 | 20.0 | 0.00 | 0.00 | 0.00 | 51 | 1009.8 |
| 20260508144711 | 53 | 217 | 5.0 | 20.0 | 0.00 | 0.00 | 0.00 | 51 | 1009.8 |
| 20260508144633 | 52 | 221 | 8.0 | 20.0 | 0.00 | 0.00 | 0.00 | 51 | 1009.9 |
| 20260508144511 | 52 | 224 | 10.0 | 20.0 | 0.00 | 0.00 | 0.00 | 50 | 1009.9 |
| 20260508144432 | 52 | 220 | 6.0 | 20.0 | 0.00 | 0.00 | 0.00 | 52 | 1009.9 |
| 20260508144311 | 52 | 223 | 11.0 | 20.0 | 0.00 | 0.00 | 0.00 | 51 | 1009.9 |
| 20260508144211 | 52 | 222 | 9.0 | 20.0 | 0.00 | 0.00 | 0.00 | 51 | 1009.9 |
| 20260508144111 | 52 | 228 | 11.0 | 20.0 | 0.00 | 0.00 | 0.00 | 51 | 1009.8 |
| 20260508144011 | 52 | 236 | 7.0 | 20.0 | 0.00 | 0.00 | 0.00 | 52 | 1010.1 |
| 20260508143932 | 52 | 241 | 8.0 | 20.0 | 0.00 | 0.00 | 0.00 | 52 | 1010.0 |
| 20260508143811 | 52 | 227 | 8.0 | 20.0 | 0.00 | 0.00 | 0.00 | 52 | 1009.7 |
| 20260508143711 | 52 | 228 | 8.0 | 20.0 | 0.00 | 0.00 | 0.00 | 52 | 1009.8 |
| 20260508143632 | 52 | 225 | 10.0 | 21.0 | 0.00 | 0.00 | 0.00 | 52 | 1010.2 |
| 20260508143511 | 52 | 235 | 8.0 | 21.0 | 0.00 | 0.00 | 0.00 | 52 | 1010.0 |
| 20260508143411 | 52 | 244 | 8.0 | 21.0 | 0.00 | 0.00 | 0.00 | 52 | 1010.0 |
| 20260508143311 | 52 | 245 | 8.0 | 21.0 | 0.00 | 0.00 | 0.00 | 52 | 1009.9 |
| 20260508143211 | 52 | 240 | 8.0 | 21.0 | 0.00 | 0.00 | 0.00 | 51 | 1010.0 |
| 20260508143111 | 52 | 232 | 9.0 | 21.0 | 0.00 | 0.00 | 0.00 | 52 | 1010.2 |
| 20260508143033 | 52 | 229 | 7.0 | 21.0 | 0.00 | 0.00 | 0.00 | 53 | 1010.1 |
| 20260508142911 | 52 | 232 | 9.0 | 21.0 | 0.00 | 0.00 | 0.00 | 52 | 1010.0 |
| 20260508142811 | 52 | 242 | 10.0 | 21.0 | 0.00 | 0.00 | 0.00 | 52 | 1010.0 |
| 20260508142711 | 52 | 247 | 12.0 | 21.0 | 0.00 | 0.00 | 0.00 | 52 | 1010.0 |
| 20260508142611 | 52 | 246 | 4.0 | 21.0 | 0.00 | 0.00 | 0.00 | 53 | 1010.0 |
| 20260508142511 | 52 | 240 | 4.0 | 21.0 | 0.00 | 0.00 | 0.00 | 53 | 1010.1 |
| 20260508142411 | 52 | 233 | 5.0 | 21.0 | 0.00 | 0.00 | 0.00 | 52 | 1010.1 |
| 20260508142311 | 51 | 233 | 7.0 | 21.0 | 0.00 | 0.00 | 0.00 | 52 | 1009.8 |
| 20260508142233 | 51 | 234 | 7.0 | 21.0 | 0.00 | 0.00 | 0.00 | 52 | 1010.1 |
| 20260508142111 | 51 | 231 | 11.0 | 21.0 | 0.00 | 0.00 | 0.00 | 52 | 1010.1 |
| 20260508142011 | 51 | 226 | 9.0 | 21.0 | 0.00 | 0.00 | 0.00 | 52 | 1010.1 |
| 20260508141911 | 51 | 219 | 8.0 | 20.0 | 0.00 | 0.00 | 0.00 | 53 | 1010.1 |
| 20260508141832 | 51 | 218 | 4.0 | 20.0 | 0.00 | 0.00 | 0.00 | 54 | 1010.2 |
| 20260508141711 | 51 | 219 | 5.0 | 22.0 | 0.00 | 0.00 | 0.00 | 54 | 1010.1 |
| 20260508141611 | 51 | 220 | 7.0 | 22.0 | 0.00 | 0.00 | 0.00 | 53 | 1010.2 |
| 20260508141511 | 51 | 226 | 7.0 | 22.0 | 0.00 | 0.00 | 0.00 | 53 | 1010.2 |
| 20260508141411 | 51 | 230 | 9.0 | 22.0 | 0.00 | 0.00 | 0.00 | 53 | 1010.2 |
| 20260508141332 | 51 | 232 | 9.0 | 22.0 | 0.00 | 0.00 | 0.00 | 53 | 1010.2 |
| 20260508141211 | 51 | 233 | 7.0 | 22.0 | 0.00 | 0.00 | 0.00 | 53 | 1010.0 |
| 20260508141111 | 51 | 239 | 10.0 | 22.0 | 0.00 | 0.00 | 0.00 | 53 | 1010.1 |
| 20260508141011 | 51 | 249 | 8.0 | 22.0 | 0.00 | 0.00 | 0.00 | 53 | 1010.2 |
| 20260508140911 | 51 | 251 | 8.0 | 22.0 | 0.00 | 0.00 | 0.00 | 53 | 1010.0 |
| 20260508140811 | 51 | 249 | 8.0 | 22.0 | 0.00 | 0.00 | 0.00 | 54 | 1010.2 |
| 20260508140711 | 51 | 250 | 11.0 | 22.0 | 0.00 | 0.00 | 0.00 | 53 | 1010.0 |
| 20260508140633 | 51 | 250 | 7.0 | 22.0 | 0.00 | 0.00 | 0.00 | 54 | 1010.2 |
| 20260508140511 | 51 | 240 | 4.0 | 22.0 | 0.00 | 0.00 | 0.00 | 55 | 1010.0 |
| 20260508140411 | 51 | 237 | 4.0 | 22.0 | 0.00 | 0.00 | 0.00 | 55 | 1010.1 |
| 20260508140311 | 51 | 230 | 7.0 | 24.0 | 0.00 | 0.00 | 0.00 | 55 | 1010.2 |
| 20260508140211 | 51 | 225 | 5.0 | 24.0 | 0.00 | 0.00 | 0.00 | 55 | 1010.0 |
| 20260508140111 | 51 | 224 | 7.0 | 24.0 | 0.00 | 0.00 | 0.00 | 54 | 1010.1 |
| 20260508140012 | 51 | 223 | 8.0 | 24.0 | 0.00 | 0.00 | 0.00 | 54 | 1010.0 |
| 20260508135932 | 51 | 226 | 13.0 | 24.0 | 0.00 | 0.00 | 0.00 | 54 | 1009.9 |
| 20260508135833 | 51 | 226 | 9.0 | 24.0 | 0.00 | 0.00 | 0.00 | 54 | 1010.1 |
| 20260508135732 | 51 | 230 | 6.0 | 24.0 | 0.00 | 0.00 | 0.00 | 55 | 1010.1 |
| 20260508135611 | 51 | 226 | 12.0 | 24.0 | 0.00 | 0.00 | 0.00 | 54 | 1010.0 |
| 20260508135511 | 51 | 233 | 8.0 | 24.0 | 0.00 | 0.00 | 0.00 | 54 | 1010.0 |
| 20260508135411 | 51 | 234 | 6.0 | 24.0 | 0.00 | 0.00 | 0.00 | 54 | 1010.1 |
| 20260508135311 | 51 | 230 | 11.0 | 24.0 | 0.00 | 0.00 | 0.00 | 54 | 1010.0 |
| 20260508135211 | 51 | 236 | 5.0 | 20.0 | 0.00 | 0.00 | 0.00 | 54 | 1010.1 |
| 20260508135111 | 51 | 237 | 5.0 | 20.0 | 0.00 | 0.00 | 0.00 | 54 | 1009.9 |
| 20260508135011 | 52 | 237 | 8.0 | 20.0 | 0.00 | 0.00 | 0.00 | 54 | 1009.9 |
| 20260508134911 | 52 | 236 | 8.0 | 20.0 | 0.00 | 0.00 | 0.00 | 53 | 1010.0 |
| 20260508134832 | 52 | 240 | 8.0 | 20.0 | 0.00 | 0.00 | 0.00 | 54 | 1009.9 |
| 20260508134711 | 52 | 238 | 4.0 | 23.0 | 0.00 | 0.00 | 0.00 | 54 | 1010.0 |
| 20260508134611 | 52 | 242 | 6.0 | 23.0 | 0.00 | 0.00 | 0.00 | 55 | 1010.0 |
| 20260508134511 | 51 | 245 | 4.0 | 25.0 | 0.00 | 0.00 | 0.00 | 55 | 1009.8 |
| 20260508134411 | 51 | 245 | 4.0 | 25.0 | 0.00 | 0.00 | 0.00 | 55 | 1009.9 |
| 20260508134311 | 51 | 247 | 11.0 | 25.0 | 0.00 | 0.00 | 0.00 | 55 | 1010.0 |
| 20260508134211 | 51 | 250 | 9.0 | 25.0 | 0.00 | 0.00 | 0.00 | 54 | 1009.9 |
| 20260508134111 | 51 | 249 | 10.0 | 25.0 | 0.00 | 0.00 | 0.00 | 54 | 1009.9 |
| 20260508134011 | 51 | 241 | 10.0 | 25.0 | 0.00 | 0.00 | 0.00 | 54 | 1009.9 |
| 20260508133933 | 51 | 241 | 9.0 | 25.0 | 0.00 | 0.00 | 0.00 | 54 | 1009.8 |
| 20260508133811 | 51 | 239 | 11.0 | 25.0 | 0.00 | 0.00 | 0.00 | 54 | 1010.0 |
| 20260508133712 | 51 | 239 | 9.0 | 25.0 | 0.00 | 0.00 | 0.00 | 54 | 1010.0 |
| 20260508133611 | 51 | 233 | 11.0 | 25.0 | 0.00 | 0.00 | 0.00 | 54 | 1009.9 |
| 20260508133512 | 51 | 225 | 11.0 | 25.0 | 0.00 | 0.00 | 0.00 | 54 | 1009.9 |
| 20260508133411 | 51 | 225 | 8.0 | 21.0 | 0.00 | 0.00 | 0.00 | 54 | 1009.6 |
| 20260508133311 | 51 | 224 | 10.0 | 21.0 | 0.00 | 0.00 | 0.00 | 54 | 1009.7 |
| 20260508133212 | 52 | 227 | 11.0 | 21.0 | 0.00 | 0.00 | 0.00 | 55 | 1010.0 |
| 20260508133111 | 52 | 225 | 9.0 | 21.0 | 0.00 | 0.00 | 0.00 | 55 | 1010.0 |
| 20260508133013 | 51 | 233 | 5.0 | 21.0 | 0.00 | 0.00 | 0.00 | 56 | 1010.0 |
| 20260508132912 | 51 | 231 | 4.0 | 21.0 | 0.00 | 0.00 | 0.00 | 56 | 1009.9 |
| 20260508132811 | 51 | 229 | 7.0 | 21.0 | 0.00 | 0.00 | 0.00 | 56 | 1009.8 |
| 20260508132711 | 51 | 229 | 6.0 | 21.0 | 0.00 | 0.00 | 0.00 | 57 | 1009.7 |
| 20260508132611 | 51 | 228 | 9.0 | 21.0 | 0.00 | 0.00 | 0.00 | 56 | 1009.8 |
| 20260508132511 | 51 | 231 | 8.0 | 20.0 | 0.00 | 0.00 | 0.00 | 56 | 1009.8 |
| 20260508132411 | 51 | 222 | 8.0 | 17.0 | 0.00 | 0.00 | 0.00 | 57 | 1009.7 |
| 20260508132311 | 51 | 222 | 8.0 | 17.0 | 0.00 | 0.00 | 0.00 | 57 | 1009.9 |
| 20260508132211 | 51 | 216 | 7.0 | 17.0 | 0.00 | 0.00 | 0.00 | 57 | 1009.7 |
| 20260508132111 | 51 | 218 | 8.0 | 17.0 | 0.00 | 0.00 | 0.00 | 57 | 1009.7 |
| 20260508132011 | 51 | 224 | 7.0 | 17.0 | 0.00 | 0.00 | 0.00 | 57 | 1009.6 |
| 20260508131911 | 51 | 224 | 4.0 | 17.0 | 0.00 | 0.00 | 0.00 | 58 | 1009.7 |
| 20260508131811 | 51 | 223 | 6.0 | 17.0 | 0.00 | 0.00 | 0.00 | 58 | 1009.7 |
| 20260508131711 | 51 | 221 | 6.0 | 17.0 | 0.00 | 0.00 | 0.00 | 58 | 1009.6 |
| 20260508131611 | 51 | 220 | 8.0 | 17.0 | 0.00 | 0.00 | 0.00 | 57 | 1009.6 |
| 20260508131511 | 51 | 223 | 8.0 | 17.0 | 0.00 | 0.00 | 0.00 | 58 | 1009.6 |
| 20260508131411 | 51 | 230 | 8.0 | 17.0 | 0.00 | 0.00 | 0.00 | 58 | 1009.7 |
| 20260508131311 | 51 | 235 | 8.0 | 17.0 | 0.00 | 0.00 | 0.00 | 58 | 1009.7 |
| 20260508131211 | 51 | 238 | 8.0 | 17.0 | 0.00 | 0.00 | 0.00 | 58 | 1009.6 |
| 20260508131111 | 51 | 234 | 8.0 | 17.0 | 0.00 | 0.00 | 0.00 | 58 | 1009.8 |
| 20260508131011 | 51 | 233 | 8.0 | 17.0 | 0.00 | 0.00 | 0.00 | 58 | 1009.7 |
| 20260508130911 | 50 | 230 | 4.0 | 17.0 | 0.00 | 0.00 | 0.00 | 59 | 1009.5 |
| 20260508130811 | 50 | 227 | 4.0 | 17.0 | 0.00 | 0.00 | 0.00 | 58 | 1009.5 |
| 20260508130711 | 50 | 232 | 4.0 | 17.0 | 0.00 | 0.00 | 0.00 | 58 | 1009.4 |
| 20260508130611 | 50 | 237 | 5.0 | 17.0 | 0.00 | 0.00 | 0.00 | 58 | 1009.3 |
| 20260508130511 | 50 | 242 | 7.0 | 20.0 | 0.00 | 0.00 | 0.00 | 58 | 1009.4 |
| 20260508130411 | 50 | 247 | 5.0 | 20.0 | 0.00 | 0.00 | 0.00 | 59 | 1009.6 |
| 20260508130311 | 50 | 244 | 10.0 | 20.0 | 0.00 | 0.00 | 0.00 | 58 | 1009.4 |
| 20260508130211 | 50 | 239 | 9.0 | 20.0 | 0.00 | 0.00 | 0.00 | 59 | 1009.6 |
| 20260508130111 | 50 | 239 | 8.0 | 20.0 | 0.00 | 0.00 | 0.00 | 59 | 1009.5 |
| 20260508130012 | 50 | 242 | 7.0 | 20.0 | 0.00 | 0.00 | 0.00 | 59 | 1009.3 |
| 20260508125911 | 49 | 240 | 8.0 | 20.0 | 0.00 | 0.00 | 0.00 | 59 | 1009.4 |
| 20260508125811 | 49 | 243 | 10.0 | 20.0 | 0.00 | 0.00 | 0.00 | 59 | 1009.3 |
| 20260508125711 | 49 | 243 | 10.0 | 20.0 | 0.00 | 0.00 | 0.00 | 59 | 1009.2 |
| 20260508125611 | 49 | 241 | 9.0 | 20.0 | 0.00 | 0.00 | 0.00 | 59 | 1009.1 |
| 20260508125511 | 49 | 239 | 10.0 | 20.0 | 0.00 | 0.00 | 0.00 | 59 | 1009.1 |
| 20260508125411 | 49 | 234 | 8.0 | 20.0 | 0.00 | 0.00 | 0.00 | 59 | 1009.0 |
| 20260508125332 | 49 | 239 | 8.0 | 20.0 | 0.00 | 0.00 | 0.00 | 59 | 1009.0 |
| 20260508125211 | 49 | 245 | 4.0 | 20.0 | 0.00 | 0.00 | 0.00 | 60 | 1009.0 |
| 20260508125111 | 49 | 245 | 8.0 | 20.0 | 0.00 | 0.00 | 0.00 | 60 | 1009.2 |
| 20260508125032 | 49 | 241 | 8.0 | 20.0 | 0.00 | 0.00 | 0.00 | 60 | 1009.1 |
| 20260508124911 | 49 | 229 | 8.0 | 20.0 | 0.00 | 0.00 | 0.00 | 60 | 1009.1 |
| 20260508124811 | 49 | 221 | 9.0 | 20.0 | 0.00 | 0.00 | 0.00 | 60 | 1009.0 |
| 20260508124711 | 49 | 210 | 7.0 | 18.0 | 0.00 | 0.00 | 0.00 | 60 | 1009.1 |
| 20260508124611 | 49 | 205 | 6.0 | 18.0 | 0.00 | 0.00 | 0.00 | 60 | 1009.0 |
| 20260508124511 | 49 | 202 | 5.0 | 18.0 | 0.00 | 0.00 | 0.00 | 61 | 1009.1 |
| 20260508124432 | 49 | 203 | 8.0 | 18.0 | 0.00 | 0.00 | 0.00 | 61 | 1009.1 |
| 20260508124311 | 49 | 196 | 9.0 | 18.0 | 0.00 | 0.00 | 0.00 | 60 | 1008.8 |
| 20260508124211 | 49 | 196 | 4.0 | 18.0 | 0.00 | 0.00 | 0.00 | 61 | 1009.0 |
| 20260508124111 | 49 | 199 | 7.0 | 18.0 | 0.00 | 0.00 | 0.00 | 61 | 1008.9 |
| 20260508124011 | 49 | 208 | 7.0 | 18.0 | 0.00 | 0.00 | 0.00 | 61 | 1009.0 |
| 20260508123911 | 49 | 211 | 10.0 | 18.0 | 0.00 | 0.00 | 0.00 | 61 | 1009.0 |
| 20260508123811 | 48 | 210 | 7.0 | 18.0 | 0.00 | 0.00 | 0.00 | 61 | 1008.8 |
| 20260508123711 | 48 | 214 | 6.0 | 16.0 | 0.00 | 0.00 | 0.00 | 61 | 1008.9 |
| 20260508123611 | 48 | 215 | 7.0 | 16.0 | 0.00 | 0.00 | 0.00 | 61 | 1008.9 |
| 20260508123532 | 48 | 215 | 8.0 | 16.0 | 0.00 | 0.00 | 0.00 | 61 | 1009.0 |
| 20260508123411 | 48 | 216 | 8.0 | 16.0 | 0.00 | 0.00 | 0.00 | 61 | 1008.8 |
| 20260508123312 | 48 | 216 | 4.0 | 16.0 | 0.00 | 0.00 | 0.00 | 62 | 1008.9 |
| 20260508123211 | 48 | 205 | 8.0 | 16.0 | 0.00 | 0.00 | 0.00 | 61 | 1009.0 |
| 20260508123111 | 48 | 203 | 8.0 | 16.0 | 0.00 | 0.00 | 0.00 | 61 | 1008.8 |
| 20260508123012 | 48 | 200 | 6.0 | 16.0 | 0.00 | 0.00 | 0.00 | 62 | 1009.0 |
| 20260508122911 | 48 | 204 | 8.0 | 16.0 | 0.00 | 0.00 | 0.00 | 62 | 1008.9 |
| 20260508122811 | 48 | 209 | 8.0 | 16.0 | 0.00 | 0.00 | 0.00 | 62 | 1008.9 |
| 20260508122711 | 48 | 206 | 8.0 | 17.0 | 0.00 | 0.00 | 0.00 | 62 | 1008.8 |
| 20260508122611 | 48 | 215 | 6.0 | 17.0 | 0.00 | 0.00 | 0.00 | 62 | 1008.9 |
| 20260508122511 | 48 | 221 | 7.0 | 17.0 | 0.00 | 0.00 | 0.00 | 62 | 1008.9 |
| 20260508122432 | 48 | 230 | 9.0 | 21.0 | 0.00 | 0.00 | 0.00 | 62 | 1009.0 |
| 20260508122311 | 48 | 230 | 8.0 | 23.0 | 0.00 | 0.00 | 0.00 | 62 | 1009.1 |
| 20260508122211 | 47 | 235 | 6.0 | 23.0 | 0.00 | 0.00 | 0.00 | 62 | 1008.9 |
| 20260508122111 | 47 | 236 | 4.0 | 23.0 | 0.00 | 0.00 | 0.00 | 62 | 1009.1 |
| 20260508122011 | 47 | 238 | 8.0 | 23.0 | 0.00 | 0.00 | 0.00 | 62 | 1009.0 |
| 20260508121933 | 47 | 234 | 7.0 | 23.0 | 0.00 | 0.00 | 0.00 | 62 | 1008.8 |
| 20260508121811 | 47 | 236 | 8.0 | 23.0 | 0.00 | 0.00 | 0.00 | 62 | 1008.9 |
| 20260508121711 | 47 | 239 | 10.0 | 23.0 | 0.00 | 0.00 | 0.00 | 62 | 1008.9 |
| 20260508121611 | 47 | 234 | 7.0 | 23.0 | 0.00 | 0.00 | 0.00 | 62 | 1009.1 |
| 20260508121532 | 47 | 234 | 6.0 | 23.0 | 0.00 | 0.00 | 0.00 | 62 | 1008.8 |
| 20260508121411 | 47 | 224 | 8.0 | 23.0 | 0.00 | 0.00 | 0.00 | 62 | 1008.8 |
| 20260508121311 | 47 | 229 | 8.0 | 17.0 | 0.00 | 0.00 | 0.00 | 62 | 1008.7 |
| 20260508121211 | 47 | 233 | 8.0 | 17.0 | 0.00 | 0.00 | 0.00 | 62 | 1008.7 |
| 20260508121111 | 47 | 230 | 8.0 | 17.0 | 0.00 | 0.00 | 0.00 | 62 | 1008.7 |
| 20260508121011 | 47 | 229 | 4.0 | 17.0 | 0.00 | 0.00 | 0.00 | 63 | 1008.8 |
| 20260508120911 | 47 | 229 | 6.0 | 20.0 | 0.00 | 0.00 | 0.00 | 63 | 1008.8 |
| 20260508120811 | 47 | 225 | 7.0 | 20.0 | 0.00 | 0.00 | 0.00 | 62 | 1008.8 |
| 20260508120711 | 47 | 225 | 10.0 | 20.0 | 0.00 | 0.00 | 0.00 | 62 | 1008.7 |
| 20260508120611 | 47 | 228 | 7.0 | 20.0 | 0.00 | 0.00 | 0.00 | 63 | 1008.8 |
| 20260508120532 | 47 | 226 | 7.0 | 20.0 | 0.00 | 0.00 | 0.00 | 63 | 1008.8 |
| 20260508120411 | 47 | 226 | 4.0 | 20.0 | 0.00 | 0.00 | 0.00 | 63 | 1008.7 |
| 20260508120311 | 47 | 229 | 4.0 | 20.0 | 0.00 | 0.00 | 0.00 | 63 | 1008.6 |
| 20260508120211 | 47 | 234 | 6.0 | 20.0 | 0.00 | 0.00 | 0.00 | 63 | 1008.5 |
| 20260508120111 | 46 | 240 | 4.0 | 20.0 | 0.00 | 0.00 | 0.00 | 63 | 1008.6 |
| 20260508120012 | 46 | 240 | 6.0 | 20.0 | 0.00 | 0.00 | 0.00 | 63 | 1008.5 |
| 20260508115911 | 46 | 237 | 8.0 | 20.0 | 0.00 | 0.00 | 0.00 | 63 | 1008.6 |
| 20260508115811 | 46 | 240 | 6.0 | 18.0 | 0.00 | 0.00 | 0.00 | 64 | 1008.8 |
| 20260508115711 | 46 | 246 | 4.0 | 18.0 | 0.00 | 0.00 | 0.00 | 64 | 1008.5 |
| 20260508115611 | 46 | 248 | 6.0 | 18.0 | 0.00 | 0.00 | 0.00 | 64 | 1008.6 |
| 20260508115511 | 46 | 252 | 8.0 | 18.0 | 0.00 | 0.00 | 0.00 | 63 | 1008.5 |
| 20260508115411 | 46 | 255 | 7.0 | 14.0 | 0.00 | 0.00 | 0.00 | 64 | 1008.7 |
| 20260508115311 | 46 | 258 | 7.0 | 14.0 | 0.00 | 0.00 | 0.00 | 64 | 1008.4 |
| 20260508115211 | 46 | 251 | 7.0 | 14.0 | 0.00 | 0.00 | 0.00 | 64 | 1008.6 |
| 20260508115111 | 46 | 252 | 7.0 | 14.0 | 0.00 | 0.00 | 0.00 | 64 | 1008.7 |
| 20260508115033 | 46 | 252 | 7.0 | 14.0 | 0.00 | 0.00 | 0.00 | 64 | 1008.5 |
| 20260508114911 | 46 | 260 | 7.0 | 14.0 | 0.00 | 0.00 | 0.00 | 64 | 1008.6 |
| 20260508114811 | 46 | 266 | 6.0 | 14.0 | 0.00 | 0.00 | 0.00 | 64 | 1008.6 |
| 20260508114711 | 46 | 268 | 6.0 | 17.0 | 0.00 | 0.00 | 0.00 | 64 | 1008.5 |
| 20260508114611 | 46 | 262 | 5.0 | 17.0 | 0.00 | 0.00 | 0.00 | 64 | 1008.7 |
| 20260508114511 | 46 | 261 | 4.0 | 17.0 | 0.00 | 0.00 | 0.00 | 64 | 1008.7 |
| 20260508114411 | 46 | 258 | 5.0 | 17.0 | 0.00 | 0.00 | 0.00 | 64 | 1008.7 |
| 20260508114311 | 46 | 258 | 5.0 | 17.0 | 0.00 | 0.00 | 0.00 | 64 | 1008.6 |
| 20260508114211 | 46 | 256 | 7.0 | 17.0 | 0.00 | 0.00 | 0.00 | 64 | 1008.6 |
| 20260508114112 | 46 | 248 | 6.0 | 17.0 | 0.00 | 0.00 | 0.00 | 64 | 1008.7 |
| 20260508114011 | 46 | 245 | 4.0 | 17.0 | 0.00 | 0.00 | 0.00 | 64 | 1008.5 |
| 20260508113911 | 46 | 240 | 5.0 | 17.0 | 0.00 | 0.00 | 0.00 | 64 | 1008.7 |
| 20260508113832 | 46 | 239 | 5.0 | 17.0 | 0.00 | 0.00 | 0.00 | 64 | 1008.7 |
| 20260508113711 | 46 | 231 | 10.0 | 16.0 | 0.00 | 0.00 | 0.00 | 64 | 1008.6 |
| 20260508113611 | 46 | 239 | 5.0 | 16.0 | 0.00 | 0.00 | 0.00 | 65 | 1008.6 |
| 20260508113511 | 46 | 240 | 8.0 | 17.0 | 0.00 | 0.00 | 0.00 | 64 | 1008.5 |
| 20260508113412 | 45 | 247 | 4.0 | 17.0 | 0.00 | 0.00 | 0.00 | 64 | 1008.6 |
| 20260508113311 | 45 | 245 | 6.0 | 17.0 | 0.00 | 0.00 | 0.00 | 64 | 1008.7 |
| 20260508113211 | 45 | 245 | 6.0 | 17.0 | 0.00 | 0.00 | 0.00 | 64 | 1008.6 |
| 20260508113111 | 45 | 250 | 4.0 | 17.0 | 0.00 | 0.00 | 0.00 | 64 | 1008.6 |
| 20260508113012 | 45 | 252 | 6.0 | 17.0 | 0.00 | 0.00 | 0.00 | 64 | 1008.5 |
| 20260508112911 | 45 | 256 | 10.0 | 17.0 | 0.00 | 0.00 | 0.00 | 64 | 1008.6 |
| 20260508112811 | 45 | 258 | 6.0 | 17.0 | 0.00 | 0.00 | 0.00 | 65 | 1008.5 |
| 20260508112711 | 45 | 258 | 4.0 | 17.0 | 0.00 | 0.00 | 0.00 | 65 | 1008.6 |
| 20260508112632 | 45 | 256 | 6.0 | 17.0 | 0.00 | 0.00 | 0.00 | 65 | 1008.4 |
| 20260508112511 | 45 | 255 | 6.0 | 15.0 | 0.00 | 0.00 | 0.00 | 65 | 1008.5 |
| 20260508112411 | 45 | 255 | 9.0 | 15.0 | 0.00 | 0.00 | 0.00 | 65 | 1008.5 |
| 20260508112333 | 45 | 251 | 5.0 | 14.0 | 0.00 | 0.00 | 0.00 | 65 | 1008.6 |
| 20260508112232 | 45 | 248 | 8.0 | 14.0 | 0.00 | 0.00 | 0.00 | 65 | 1008.5 |
| 20260508112111 | 45 | 247 | 4.0 | 14.0 | 0.00 | 0.00 | 0.00 | 66 | 1008.6 |
| 20260508112012 | 45 | 248 | 4.0 | 14.0 | 0.00 | 0.00 | 0.00 | 66 | 1008.5 |
| 20260508111911 | 45 | 245 | 4.0 | 14.0 | 0.00 | 0.00 | 0.00 | 66 | 1008.5 |
| 20260508111811 | 45 | 246 | 6.0 | 14.0 | 0.00 | 0.00 | 0.00 | 66 | 1008.5 |
| 20260508111711 | 44 | 245 | 7.0 | 16.0 | 0.00 | 0.00 | 0.00 | 66 | 1008.6 |
| 20260508111611 | 44 | 247 | 7.0 | 16.0 | 0.00 | 0.00 | 0.00 | 66 | 1008.5 |
| 20260508111511 | 44 | 244 | 5.0 | 16.0 | 0.00 | 0.00 | 0.00 | 66 | 1008.4 |
| 20260508111411 | 44 | 237 | 5.0 | 16.0 | 0.00 | 0.00 | 0.00 | 66 | 1008.4 |
| 20260508111311 | 44 | 237 | 7.0 | 16.0 | 0.00 | 0.00 | 0.00 | 67 | 1008.4 |
| 20260508111211 | 44 | 238 | 8.0 | 16.0 | 0.00 | 0.00 | 0.00 | 67 | 1008.4 |
| 20260508111133 | 44 | 236 | 7.0 | 16.0 | 0.00 | 0.00 | 0.00 | 67 | 1008.4 |
| 20260508111011 | 44 | 238 | 4.0 | 16.0 | 0.00 | 0.00 | 0.00 | 67 | 1008.3 |
| 20260508110911 | 44 | 241 | 7.0 | 16.0 | 0.00 | 0.00 | 0.00 | 67 | 1008.5 |
| 20260508110811 | 44 | 241 | 6.0 | 16.0 | 0.00 | 0.00 | 0.00 | 67 | 1008.3 |
| 20260508110711 | 44 | 236 | 7.0 | 16.0 | 0.00 | 0.00 | 0.00 | 67 | 1008.4 |
| 20260508110611 | 44 | 233 | 6.0 | 16.0 | 0.00 | 0.00 | 0.00 | 67 | 1008.5 |
| 20260508110511 | 44 | 230 | 5.0 | 16.0 | 0.00 | 0.00 | 0.00 | 67 | 1008.5 |
| 20260508110411 | 44 | 235 | 5.0 | 16.0 | 0.00 | 0.00 | 0.00 | 67 | 1008.5 |
| 20260508110333 | 44 | 238 | 4.0 | 16.0 | 0.00 | 0.00 | 0.00 | 67 | 1008.3 |
| 20260508110211 | 44 | 244 | 6.0 | 16.0 | 0.00 | 0.00 | 0.00 | 67 | 1008.4 |
| 20260508110111 | 44 | 250 | 4.0 | 16.0 | 0.00 | 0.00 | 0.00 | 67 | 1008.3 |
| 20260508110012 | 44 | 245 | 6.0 | 16.0 | 0.00 | 0.00 | 0.00 | 67 | 1008.2 |
| 20260508105911 | 44 | 239 | 6.0 | 16.0 | 0.00 | 0.00 | 0.00 | 67 | 1008.3 |
| 20260508105811 | 44 | 245 | 8.0 | 16.0 | 0.00 | 0.00 | 0.00 | 67 | 1008.3 |
| 20260508105712 | 44 | 255 | 4.0 | 14.0 | 0.00 | 0.00 | 0.00 | 67 | 1008.2 |
| 20260508105611 | 44 | 257 | 7.0 | 14.0 | 0.00 | 0.00 | 0.00 | 67 | 1008.1 |
| 20260508105511 | 44 | 261 | 7.0 | 14.0 | 0.00 | 0.00 | 0.00 | 67 | 1008.2 |
| 20260508105411 | 44 | 255 | 4.0 | 14.0 | 0.00 | 0.00 | 0.00 | 67 | 1008.1 |
| 20260508105311 | 44 | 249 | 4.0 | 14.0 | 0.00 | 0.00 | 0.00 | 67 | 1008.1 |
| 20260508105211 | 44 | 246 | 5.0 | 14.0 | 0.00 | 0.00 | 0.00 | 67 | 1008.3 |
| 20260508105111 | 44 | 239 | 5.0 | 14.0 | 0.00 | 0.00 | 0.00 | 67 | 1008.1 |
| 20260508105011 | 44 | 245 | 5.0 | 14.0 | 0.00 | 0.00 | 0.00 | 67 | 1008.1 |
| 20260508104911 | 44 | 251 | 6.0 | 15.0 | 0.00 | 0.00 | 0.00 | 67 | 1008.2 |
| 20260508104811 | 44 | 240 | 6.0 | 15.0 | 0.00 | 0.00 | 0.00 | 67 | 1008.1 |
| 20260508104711 | 44 | 237 | 6.0 | 18.0 | 0.00 | 0.00 | 0.00 | 67 | 1008.1 |
| 20260508104633 | 44 | 240 | 4.0 | 18.0 | 0.00 | 0.00 | 0.00 | 67 | 1008.1 |
| 20260508104511 | 44 | 227 | 5.0 | 18.0 | 0.00 | 0.00 | 0.00 | 67 | 1008.1 |
| 20260508104411 | 44 | 228 | 6.0 | 18.0 | 0.00 | 0.00 | 0.00 | 67 | 1008.0 |
| 20260508104311 | 44 | 238 | 5.0 | 18.0 | 0.00 | 0.00 | 0.00 | 68 | 1008.0 |
| 20260508104232 | 44 | 241 | 6.0 | 18.0 | 0.00 | 0.00 | 0.00 | 68 | 1008.0 |
| 20260508104111 | 44 | 231 | 5.0 | 18.0 | 0.00 | 0.00 | 0.00 | 68 | 1008.1 |
| 20260508104011 | 44 | 240 | 6.0 | 18.0 | 0.00 | 0.00 | 0.00 | 67 | 1007.9 |
| 20260508103932 | 44 | 234 | 8.0 | 18.0 | 0.00 | 0.00 | 0.00 | 68 | 1007.9 |
| 20260508103811 | 44 | 239 | 6.0 | 18.0 | 0.00 | 0.00 | 0.00 | 68 | 1008.0 |
| 20260508103711 | 44 | 243 | 8.0 | 18.0 | 0.00 | 0.00 | 0.00 | 68 | 1008.0 |
| 20260508103611 | 44 | 249 | 5.0 | 18.0 | 0.00 | 0.00 | 0.00 | 68 | 1008.0 |
| 20260508103511 | 44 | 270 | 5.0 | 18.0 | 0.00 | 0.00 | 0.00 | 68 | 1008.0 |
| 20260508103432 | 44 | 272 | 8.0 | 18.0 | 0.00 | 0.00 | 0.00 | 68 | 1008.0 |
| 20260508103311 | 44 | 262 | 4.0 | 15.0 | 0.00 | 0.00 | 0.00 | 68 | 1008.0 |
| 20260508103211 | 44 | 252 | 6.0 | 15.0 | 0.00 | 0.00 | 0.00 | 68 | 1008.0 |
| 20260508103132 | 44 | 258 | 6.0 | 15.0 | 0.00 | 0.00 | 0.00 | 68 | 1007.9 |
| 20260508103033 | 44 | 271 | 7.0 | 15.0 | 0.00 | 0.00 | 0.00 | 68 | 1008.0 |
| 20260508102911 | 44 | 267 | 4.0 | 14.0 | 0.00 | 0.00 | 0.00 | 68 | 1008.0 |
| 20260508102811 | 44 | 272 | 4.0 | 15.0 | 0.00 | 0.00 | 0.00 | 68 | 1007.8 |
| 20260508102732 | 44 | 254 | 4.0 | 15.0 | 0.00 | 0.00 | 0.00 | 68 | 1007.9 |
| 20260508102611 | 44 | 248 | 5.0 | 15.0 | 0.00 | 0.00 | 0.00 | 68 | 1008.0 |
| 20260508102532 | 44 | 247 | 5.0 | 15.0 | 0.00 | 0.00 | 0.00 | 68 | 1008.0 |
| 20260508102411 | 44 | 249 | 5.0 | 15.0 | 0.00 | 0.00 | 0.00 | 68 | 1007.9 |
| 20260508102311 | 44 | 253 | 4.0 | 15.0 | 0.00 | 0.00 | 0.00 | 68 | 1007.8 |
| 20260508102211 | 44 | 253 | 5.0 | 15.0 | 0.00 | 0.00 | 0.00 | 68 | 1007.9 |
| 20260508102111 | 44 | 251 | 8.0 | 15.0 | 0.00 | 0.00 | 0.00 | 68 | 1007.8 |
| 20260508102011 | 44 | 243 | 4.0 | 15.0 | 0.00 | 0.00 | 0.00 | 68 | 1008.0 |
| 20260508101911 | 44 | 244 | 4.0 | 24.0 | 0.00 | 0.00 | 0.00 | 68 | 1007.9 |
| 20260508101812 | 44 | 247 | 6.0 | 24.0 | 0.00 | 0.00 | 0.00 | 68 | 1007.8 |
| 20260508101711 | 44 | 254 | 4.0 | 24.0 | 0.00 | 0.00 | 0.00 | 68 | 1008.0 |
| 20260508101611 | 44 | 249 | 6.0 | 24.0 | 0.00 | 0.00 | 0.00 | 68 | 1007.8 |
| 20260508101511 | 44 | 244 | 7.0 | 24.0 | 0.00 | 0.00 | 0.00 | 68 | 1008.0 |
| 20260508101411 | 44 | 240 | 5.0 | 24.0 | 0.00 | 0.00 | 0.00 | 68 | 1007.8 |
| 20260508101311 | 44 | 235 | 4.0 | 24.0 | 0.00 | 0.00 | 0.00 | 67 | 1007.8 |
| 20260508101211 | 44 | 241 | 4.0 | 24.0 | 0.00 | 0.00 | 0.00 | 67 | 1007.9 |
| 20260508101111 | 44 | 245 | 7.0 | 24.0 | 0.00 | 0.00 | 0.00 | 67 | 1007.7 |
| 20260508101011 | 44 | 250 | 7.0 | 24.0 | 0.00 | 0.00 | 0.00 | 67 | 1007.8 |
| 20260508100911 | 44 | 248 | 9.0 | 24.0 | 0.00 | 0.00 | 0.00 | 67 | 1007.7 |
| 20260508100811 | 44 | 238 | 6.0 | 16.0 | 0.00 | 0.00 | 0.00 | 67 | 1007.7 |
| 20260508100711 | 44 | 236 | 8.0 | 16.0 | 0.00 | 0.00 | 0.00 | 67 | 1007.6 |
| 20260508100632 | 44 | 237 | 6.0 | 16.0 | 0.00 | 0.00 | 0.00 | 67 | 1007.5 |
| 20260508100532 | 44 | 246 | 5.0 | 16.0 | 0.00 | 0.00 | 0.00 | 67 | 1007.7 |
| 20260508100411 | 44 | 248 | 6.0 | 16.0 | 0.00 | 0.00 | 0.00 | 67 | 1007.7 |
| 20260508100311 | 44 | 255 | 4.0 | 15.0 | 0.00 | 0.00 | 0.00 | 67 | 1007.6 |
| 20260508100211 | 44 | 255 | 5.0 | 15.0 | 0.00 | 0.00 | 0.00 | 67 | 1007.7 |
| 20260508100111 | 44 | 255 | 9.0 | 20.0 | 0.00 | 0.00 | 0.00 | 67 | 1007.6 |
| 20260508100012 | 44 | 246 | 6.0 | 20.0 | 0.00 | 0.00 | 0.00 | 67 | 1007.8 |
| 20260508095911 | 44 | 241 | 5.0 | 20.0 | 0.00 | 0.00 | 0.00 | 67 | 1007.6 |
| 20260508095811 | 44 | 244 | 4.0 | 20.0 | 0.00 | 0.00 | 0.00 | 67 | 1007.7 |
| 20260508095711 | 44 | 242 | 4.0 | 20.0 | 0.00 | 0.00 | 0.00 | 67 | 1007.6 |
| 20260508095611 | 44 | 241 | 6.0 | 20.0 | 0.00 | 0.00 | 0.00 | 67 | 1007.7 |
| 20260508095511 | 44 | 235 | 7.0 | 20.0 | 0.00 | 0.00 | 0.00 | 67 | 1007.8 |
| 20260508095411 | 44 | 236 | 8.0 | 20.0 | 0.00 | 0.00 | 0.00 | 67 | 1007.7 |
| 20260508095311 | 44 | 231 | 6.0 | 20.0 | 0.00 | 0.00 | 0.00 | 67 | 1007.7 |
| 20260508095233 | 44 | 233 | 4.0 | 20.0 | 0.00 | 0.00 | 0.00 | 67 | 1007.8 |
| 20260508095111 | 44 | 224 | 8.0 | 20.0 | 0.00 | 0.00 | 0.00 | 67 | 1007.9 |
| 20260508095032 | 44 | 222 | 7.0 | 15.0 | 0.00 | 0.00 | 0.00 | 67 | 1007.9 |
| 20260508094911 | 44 | 232 | 4.0 | 14.0 | 0.00 | 0.00 | 0.00 | 67 | 1007.9 |
| 20260508094811 | 44 | 228 | 4.0 | 14.0 | 0.00 | 0.00 | 0.00 | 67 | 1007.9 |
| 20260508094711 | 44 | 227 | 7.0 | 14.0 | 0.00 | 0.00 | 0.00 | 67 | 1007.8 |
| 20260508094632 | 44 | 225 | 6.0 | 14.0 | 0.00 | 0.00 | 0.00 | 67 | 1007.7 |
| 20260508094511 | 44 | 226 | 5.0 | 14.0 | 0.00 | 0.00 | 0.00 | 67 | 1007.8 |
| 20260508094411 | 44 | 223 | 5.0 | 14.0 | 0.00 | 0.00 | 0.00 | 67 | 1007.7 |
| 20260508094311 | 44 | 225 | 6.0 | 14.0 | 0.00 | 0.00 | 0.00 | 67 | 1007.7 |
| 20260508094211 | 44 | 227 | 5.0 | 14.0 | 0.00 | 0.00 | 0.00 | 67 | 1007.7 |
| 20260508094133 | 44 | 233 | 5.0 | 14.0 | 0.00 | 0.00 | 0.00 | 67 | 1007.7 |
| 20260508094011 | 44 | 239 | 4.0 | 14.0 | 0.00 | 0.00 | 0.00 | 67 | 1007.8 |
| 20260508093911 | 44 | 239 | 6.0 | 14.0 | 0.00 | 0.00 | 0.00 | 67 | 1007.8 |
| 20260508093811 | 44 | 241 | 6.0 | 14.0 | 0.00 | 0.00 | 0.00 | 67 | 1007.7 |
| 20260508093711 | 44 | 246 | 7.0 | 14.0 | 0.00 | 0.00 | 0.00 | 67 | 1007.9 |
| 20260508093612 | 45 | 256 | 7.0 | 14.0 | 0.00 | 0.00 | 0.00 | 67 | 1007.8 |
| 20260508093511 | 45 | 260 | 7.0 | 14.0 | 0.00 | 0.00 | 0.00 | 67 | 1007.7 |
| 20260508093411 | 45 | 260 | 5.0 | 14.0 | 0.00 | 0.00 | 0.00 | 66 | 1007.7 |
| 20260508093314 | 45 | 262 | 8.0 | 14.0 | 0.00 | 0.00 | 0.00 | 67 | 1007.6 |
| 20260508093211 | 45 | 260 | 7.0 | 14.0 | 0.00 | 0.00 | 0.00 | 67 | 1007.6 |
| 20260508093111 | 45 | 257 | 6.0 | 14.0 | 0.00 | 0.00 | 0.00 | 67 | 1007.7 |
| 20260508093011 | 45 | 258 | 7.0 | 14.0 | 0.00 | 0.00 | 0.00 | 67 | 1007.9 |
| 20260508092911 | 45 | 263 | 4.0 | 14.0 | 0.00 | 0.00 | 0.00 | 67 | 1007.8 |
| 20260508092811 | 45 | 260 | 6.0 | 14.0 | 0.00 | 0.00 | 0.00 | 67 | 1007.7 |
| 20260508092711 | 45 | 259 | 6.0 | 14.0 | 0.00 | 0.00 | 0.00 | 67 | 1007.7 |
| 20260508092611 | 45 | 251 | 6.0 | 14.0 | 0.00 | 0.00 | 0.00 | 67 | 1007.9 |
| 20260508092511 | 45 | 249 | 4.0 | 14.0 | 0.00 | 0.00 | 0.00 | 67 | 1007.7 |
| 20260508092411 | 45 | 251 | 5.0 | 14.0 | 0.00 | 0.00 | 0.00 | 67 | 1007.8 |
| 20260508092313 | 45 | 247 | 4.0 | 17.0 | 0.00 | 0.00 | 0.00 | 67 | 1007.8 |
| 20260508092211 | 45 | 242 | 6.0 | 17.0 | 0.00 | 0.00 | 0.00 | 67 | 1007.8 |
| 20260508092111 | 45 | 236 | 5.0 | 17.0 | 0.00 | 0.00 | 0.00 | 67 | 1007.8 |
| 20260508092011 | 45 | 236 | 7.0 | 17.0 | 0.00 | 0.00 | 0.00 | 67 | 1007.7 |
| 20260508091911 | 45 | 238 | 6.0 | 17.0 | 0.00 | 0.00 | 0.00 | 67 | 1007.6 |
| 20260508091832 | 45 | 240 | 8.0 | 17.0 | 0.00 | 0.00 | 0.00 | 67 | 1007.7 |
| 20260508091711 | 45 | 242 | 6.0 | 17.0 | 0.00 | 0.00 | 0.00 | 67 | 1007.6 |
| 20260508091611 | 45 | 239 | 8.0 | 20.0 | 0.00 | 0.00 | 0.00 | 67 | 1007.6 |
| 20260508091511 | 45 | 241 | 5.0 | 20.0 | 0.00 | 0.00 | 0.00 | 67 | 1007.6 |
| 20260508091411 | 45 | 236 | 8.0 | 20.0 | 0.00 | 0.00 | 0.00 | 67 | 1007.4 |
| 20260508091332 | 45 | 234 | 8.0 | 20.0 | 0.00 | 0.00 | 0.00 | 67 | 1007.4 |
| 20260508091211 | 44 | 238 | 8.0 | 20.0 | 0.00 | 0.00 | 0.00 | 68 | 1007.4 |
| 20260508091133 | 44 | 244 | 8.0 | 20.0 | 0.00 | 0.00 | 0.00 | 68 | 1007.5 |
| 20260508091011 | 44 | 242 | 5.0 | 20.0 | 0.00 | 0.00 | 0.00 | 68 | 1007.6 |
| 20260508090911 | 44 | 242 | 6.0 | 20.0 | 0.00 | 0.00 | 0.00 | 68 | 1007.2 |
| 20260508090833 | 44 | 238 | 7.0 | 20.0 | 0.00 | 0.00 | 0.00 | 68 | 1007.4 |
| 20260508090711 | 44 | 231 | 8.0 | 20.0 | 0.00 | 0.00 | 0.00 | 68 | 1007.3 |
| 20260508090612 | 44 | 231 | 9.0 | 14.0 | 0.00 | 0.00 | 0.00 | 69 | 1007.3 |
| 20260508090511 | 44 | 226 | 8.0 | 14.0 | 0.00 | 0.00 | 0.00 | 69 | 1007.4 |
| 20260508090411 | 44 | 229 | 4.0 | 11.0 | 0.00 | 0.00 | 0.00 | 69 | 1007.4 |
| 20260508090311 | 44 | 238 | 5.0 | 13.0 | 0.00 | 0.00 | 0.00 | 69 | 1007.2 |
| 20260508090211 | 44 | 239 | 7.0 | 16.0 | 0.00 | 0.00 | 0.00 | 70 | 1007.1 |
| 20260508090111 | 44 | 238 | 6.0 | 16.0 | 0.00 | 0.00 | 0.00 | 70 | 1007.5 |
| 20260508090012 | 44 | 240 | 8.0 | 16.0 | 0.00 | 0.00 | 0.00 | 70 | 1007.3 |
| 20260508085911 | 44 | 245 | 7.0 | 16.0 | 0.00 | 0.00 | 0.00 | 70 | 1007.3 |
| 20260508085811 | 44 | 247 | 4.0 | 16.0 | 0.00 | 0.00 | 0.00 | 70 | 1007.4 |
| 20260508085711 | 44 | 246 | 8.0 | 16.0 | 0.00 | 0.00 | 0.00 | 70 | 1007.1 |
| 20260508085611 | 44 | 246 | 6.0 | 16.0 | 0.00 | 0.00 | 0.00 | 70 | 1007.2 |
| 20260508085533 | 44 | 247 | 7.0 | 16.0 | 0.00 | 0.00 | 0.00 | 71 | 1007.1 |
| 20260508085411 | 44 | 250 | 6.0 | 16.0 | 0.00 | 0.00 | 0.00 | 71 | 1007.1 |
| 20260508085311 | 44 | 247 | 6.0 | 16.0 | 0.00 | 0.00 | 0.00 | 71 | 1007.3 |
| 20260508085211 | 44 | 251 | 7.0 | 16.0 | 0.00 | 0.00 | 0.00 | 71 | 1007.1 |
| 20260508085111 | 44 | 250 | 8.0 | 15.0 | 0.00 | 0.00 | 0.00 | 71 | 1007.2 |
| 20260508085011 | 44 | 252 | 8.0 | 14.0 | 0.00 | 0.00 | 0.00 | 71 | 1007.1 |
| 20260508084911 | 44 | 243 | 8.0 | 14.0 | 0.00 | 0.00 | 0.00 | 71 | 1007.2 |
| 20260508084832 | 44 | 238 | 6.0 | 14.0 | 0.00 | 0.00 | 0.00 | 71 | 1007.2 |
| 20260508084711 | 44 | 246 | 8.0 | 14.0 | 0.00 | 0.00 | 0.00 | 72 | 1007.2 |
| 20260508084611 | 44 | 245 | 5.0 | 14.0 | 0.00 | 0.00 | 0.00 | 72 | 1007.3 |
| 20260508084511 | 44 | 247 | 3.0 | 14.0 | 0.00 | 0.00 | 0.00 | 71 | 1007.2 |
| 20260508084411 | 44 | 254 | 4.0 | 14.0 | 0.00 | 0.00 | 0.00 | 71 | 1007.1 |
| 20260508084311 | 44 | 252 | 4.0 | 14.0 | 0.00 | 0.00 | 0.00 | 71 | 1007.3 |
| 20260508084211 | 44 | 251 | 4.0 | 14.0 | 0.00 | 0.00 | 0.00 | 71 | 1007.2 |
| 20260508084111 | 44 | 249 | 7.0 | 15.0 | 0.00 | 0.00 | 0.00 | 71 | 1007.2 |
| 20260508084033 | 44 | 245 | 7.0 | 16.0 | 0.00 | 0.00 | 0.00 | 71 | 1007.2 |
| 20260508083911 | 44 | 245 | 7.0 | 16.0 | 0.00 | 0.00 | 0.00 | 71 | 1007.3 |
| 20260508083811 | 44 | 246 | 7.0 | 16.0 | 0.00 | 0.00 | 0.00 | 71 | 1007.2 |
| 20260508083711 | 44 | 246 | 7.0 | 16.0 | 0.00 | 0.00 | 0.00 | 70 | 1007.1 |
| 20260508083611 | 44 | 249 | 7.0 | 16.0 | 0.00 | 0.00 | 0.00 | 70 | 1007.2 |
| 20260508083532 | 44 | 252 | 6.0 | 16.0 | 0.00 | 0.00 | 0.00 | 70 | 1007.2 |
| 20260508083411 | 44 | 244 | 9.0 | 16.0 | 0.00 | 0.00 | 0.00 | 70 | 1007.1 |
| 20260508083311 | 44 | 248 | 8.0 | 16.0 | 0.00 | 0.00 | 0.00 | 70 | 1007.1 |
| 20260508083211 | 45 | 249 | 5.0 | 16.0 | 0.00 | 0.00 | 0.00 | 70 | 1007.2 |
| 20260508083132 | 45 | 252 | 9.0 | 16.0 | 0.00 | 0.00 | 0.00 | 70 | 1007.0 |
| 20260508083012 | 45 | 257 | 7.0 | 17.0 | 0.00 | 0.00 | 0.00 | 70 | 1007.2 |
| 20260508082933 | 45 | 257 | 7.0 | 17.0 | 0.00 | 0.00 | 0.00 | 70 | 1007.2 |
| 20260508082811 | 45 | 265 | 6.0 | 17.0 | 0.00 | 0.00 | 0.00 | 70 | 1007.0 |
| 20260508082732 | 45 | 261 | 8.0 | 17.0 | 0.00 | 0.00 | 0.00 | 70 | 1007.1 |
| 20260508082611 | 45 | 251 | 4.0 | 17.0 | 0.00 | 0.00 | 0.00 | 70 | 1007.0 |
| 20260508082511 | 45 | 252 | 6.0 | 17.0 | 0.00 | 0.00 | 0.00 | 70 | 1007.1 |
| 20260508082411 | 45 | 260 | 8.0 | 17.0 | 0.00 | 0.00 | 0.00 | 70 | 1007.1 |
| 20260508082332 | 45 | 259 | 7.0 | 17.0 | 0.00 | 0.00 | 0.00 | 71 | 1007.0 |
| 20260508082211 | 45 | 258 | 8.0 | 17.0 | 0.00 | 0.00 | 0.00 | 71 | 1007.1 |
| 20260508082111 | 45 | 251 | 7.0 | 21.0 | 0.00 | 0.00 | 0.00 | 71 | 1007.2 |
| 20260508082011 | 45 | 252 | 8.0 | 21.0 | 0.00 | 0.00 | 0.00 | 71 | 1007.1 |
| 20260508081911 | 44 | 256 | 8.0 | 21.0 | 0.00 | 0.00 | 0.00 | 71 | 1007.0 |
| 20260508081811 | 44 | 246 | 8.0 | 21.0 | 0.00 | 0.00 | 0.00 | 71 | 1007.2 |
| 20260508081711 | 44 | 253 | 7.0 | 21.0 | 0.00 | 0.00 | 0.00 | 72 | 1007.2 |
| 20260508081611 | 44 | 263 | 4.0 | 21.0 | 0.00 | 0.00 | 0.00 | 72 | 1007.2 |
| 20260508081511 | 44 | 261 | 7.0 | 21.0 | 0.00 | 0.00 | 0.00 | 72 | 1007.0 |
| 20260508081411 | 44 | 260 | 4.0 | 21.0 | 0.00 | 0.00 | 0.00 | 72 | 1007.3 |
| 20260508081311 | 44 | 259 | 5.0 | 21.0 | 0.00 | 0.00 | 0.00 | 72 | 1007.2 |
| 20260508081211 | 44 | 258 | 8.0 | 21.0 | 0.00 | 0.00 | 0.00 | 72 | 1007.2 |
| 20260508081111 | 44 | 261 | 8.0 | 21.0 | 0.00 | 0.00 | 0.00 | 72 | 1007.1 |
| 20260508081033 | 44 | 263 | 6.0 | 18.0 | 0.00 | 0.00 | 0.00 | 72 | 1007.1 |
| 20260508080911 | 44 | 265 | 4.0 | 18.0 | 0.00 | 0.00 | 0.00 | 72 | 1007.2 |
| 20260508080811 | 44 | 262 | 8.0 | 18.0 | 0.00 | 0.00 | 0.00 | 72 | 1007.3 |
| 20260508080711 | 44 | 267 | 7.0 | 18.0 | 0.00 | 0.00 | 0.00 | 72 | 1007.2 |
| 20260508080611 | 45 | 266 | 6.0 | 18.0 | 0.00 | 0.00 | 0.00 | 72 | 1007.1 |
| 20260508080533 | 45 | 266 | 6.0 | 18.0 | 0.00 | 0.00 | 0.00 | 72 | 1007.1 |
| 20260508080411 | 45 | 265 | 8.0 | 18.0 | 0.00 | 0.00 | 0.00 | 72 | 1007.1 |
| 20260508080311 | 45 | 261 | 8.0 | 15.0 | 0.00 | 0.00 | 0.00 | 72 | 1007.0 |
| 20260508080211 | 45 | 260 | 4.0 | 14.0 | 0.00 | 0.00 | 0.00 | 71 | 1007.1 |
| 20260508080133 | 45 | 262 | 4.0 | 14.0 | 0.00 | 0.00 | 0.00 | 71 | 1007.1 |
| 20260508080012 | 45 | 264 | 6.0 | 14.0 | 0.00 | 0.00 | 0.00 | 71 | 1007.1 |
| 20260508075911 | 45 | 262 | 8.0 | 14.0 | 0.00 | 0.00 | 0.00 | 70 | 1007.0 |
| 20260508075811 | 45 | 263 | 6.0 | 11.0 | 0.00 | 0.00 | 0.00 | 70 | 1007.0 |
| 20260508075711 | 45 | 258 | 4.0 | 11.0 | 0.00 | 0.00 | 0.00 | 69 | 1007.1 |
| 20260508075611 | 45 | 255 | 5.0 | 11.0 | 0.00 | 0.00 | 0.00 | 69 | 1007.0 |
| 20260508075511 | 45 | 259 | 8.0 | 16.0 | 0.00 | 0.00 | 0.00 | 69 | 1007.2 |
| 20260508075411 | 46 | 269 | 7.0 | 16.0 | 0.00 | 0.00 | 0.00 | 69 | 1007.0 |
| 20260508075311 | 46 | 272 | 4.0 | 16.0 | 0.00 | 0.00 | 0.00 | 69 | 1007.0 |
| 20260508075211 | 46 | 268 | 6.0 | 16.0 | 0.00 | 0.00 | 0.00 | 68 | 1006.9 |
| 20260508075111 | 46 | 263 | 5.0 | 16.0 | 0.00 | 0.00 | 0.00 | 68 | 1007.1 |
| 20260508075011 | 46 | 256 | 5.0 | 16.0 | 0.00 | 0.00 | 0.00 | 68 | 1007.0 |
| 20260508074911 | 46 | 256 | 4.0 | 16.0 | 0.00 | 0.00 | 0.00 | 68 | 1007.0 |
| 20260508074811 | 46 | 261 | 6.0 | 16.0 | 0.00 | 0.00 | 0.00 | 68 | 1007.1 |
| 20260508074732 | 46 | 264 | 6.0 | 16.0 | 0.00 | 0.00 | 0.00 | 68 | 1006.9 |
| 20260508074611 | 45 | 268 | 7.0 | 16.0 | 0.00 | 0.00 | 0.00 | 69 | 1006.9 |
| 20260508074511 | 45 | 261 | 8.0 | 15.0 | 0.00 | 0.00 | 0.00 | 69 | 1007.0 |
| 20260508074411 | 45 | 256 | 5.0 | 15.0 | 0.00 | 0.00 | 0.00 | 70 | 1007.0 |
| 20260508074311 | 45 | 251 | 4.0 | 15.0 | 0.00 | 0.00 | 0.00 | 70 | 1006.9 |
| 20260508074211 | 45 | 252 | 5.0 | 15.0 | 0.00 | 0.00 | 0.00 | 71 | 1007.0 |
| 20260508074111 | 45 | 255 | 5.0 | 15.0 | 0.00 | 0.00 | 0.00 | 71 | 1006.9 |
| 20260508074011 | 45 | 260 | 5.0 | 15.0 | 0.00 | 0.00 | 0.00 | 71 | 1007.0 |
| 20260508073932 | 45 | 260 | 8.0 | 15.0 | 0.00 | 0.00 | 0.00 | 72 | 1007.0 |
| 20260508073811 | 45 | 255 | 4.0 | 15.0 | 0.00 | 0.00 | 0.00 | 72 | 1007.1 |
| 20260508073711 | 45 | 255 | 6.0 | 15.0 | 0.00 | 0.00 | 0.00 | 72 | 1007.1 |
| 20260508073632 | 45 | 253 | 8.0 | 15.0 | 0.00 | 0.00 | 0.00 | 72 | 1007.1 |
| 20260508073511 | 45 | 261 | 5.0 | 11.0 | 0.00 | 0.00 | 0.00 | 72 | 1007.2 |
| 20260508073411 | 45 | 260 | 7.0 | 11.0 | 0.00 | 0.00 | 0.00 | 72 | 1007.2 |
| 20260508073332 | 45 | 263 | 7.0 | 11.0 | 0.00 | 0.00 | 0.00 | 72 | 1007.2 |
| 20260508073211 | 45 | 268 | 4.0 | 11.0 | 0.00 | 0.00 | 0.00 | 73 | 1007.2 |
| 20260508073111 | 45 | 269 | 4.0 | 11.0 | 0.00 | 0.00 | 0.00 | 73 | 1007.2 |
| 20260508073012 | 45 | 267 | 4.0 | 11.0 | 0.00 | 0.00 | 0.00 | 73 | 1007.4 |
| 20260508072911 | 45 | 262 | 4.0 | 13.0 | 0.00 | 0.00 | 0.00 | 73 | 1007.3 |
| 20260508072833 | 45 | 257 | 5.0 | 13.0 | 0.00 | 0.00 | 0.00 | 73 | 1007.2 |
| 20260508072732 | 45 | 253 | 5.0 | 13.0 | 0.00 | 0.00 | 0.00 | 73 | 1007.3 |
| 20260508072611 | 45 | 249 | 6.0 | 13.0 | 0.00 | 0.00 | 0.00 | 73 | 1007.4 |
| 20260508072511 | 45 | 246 | 5.0 | 13.0 | 0.00 | 0.00 | 0.00 | 73 | 1007.4 |
| 20260508072411 | 45 | 248 | 5.0 | 13.0 | 0.00 | 0.00 | 0.00 | 73 | 1007.2 |
| 20260508072332 | 45 | 251 | 5.0 | 13.0 | 0.00 | 0.00 | 0.00 | 73 | 1007.4 |
| 20260508072211 | 46 | 250 | 7.0 | 13.0 | 0.00 | 0.00 | 0.00 | 73 | 1007.4 |
| 20260508072111 | 46 | 251 | 3.0 | 13.0 | 0.00 | 0.00 | 0.00 | 73 | 1007.4 |
| 20260508072011 | 46 | 255 | 5.0 | 13.0 | 0.00 | 0.00 | 0.00 | 73 | 1007.5 |
| 20260508071911 | 46 | 266 | 6.0 | 14.0 | 0.00 | 0.00 | 0.00 | 73 | 1007.3 |
| 20260508071811 | 46 | 273 | 6.0 | 14.0 | 0.00 | 0.00 | 0.00 | 73 | 1007.4 |
| 20260508071732 | 46 | 275 | 6.0 | 14.0 | 0.00 | 0.00 | 0.00 | 73 | 1007.4 |
| 20260508071611 | 46 | 280 | 5.0 | 14.0 | 0.00 | 0.00 | 0.00 | 73 | 1007.4 |
| 20260508071532 | 46 | 281 | 3.0 | 14.0 | 0.00 | 0.00 | 0.00 | 73 | 1007.4 |
| 20260508071411 | 46 | 281 | 6.0 | 14.0 | 0.00 | 0.00 | 0.00 | 73 | 1007.6 |
| 20260508071311 | 46 | 280 | 6.0 | 14.0 | 0.00 | 0.00 | 0.00 | 73 | 1007.7 |
| 20260508071211 | 46 | 280 | 4.0 | 14.0 | 0.00 | 0.00 | 0.00 | 73 | 1007.6 |
| 20260508071111 | 46 | 280 | 5.0 | 14.0 | 0.00 | 0.00 | 0.00 | 73 | 1007.7 |
| 20260508071011 | 46 | 279 | 5.0 | 14.0 | 0.00 | 0.00 | 0.00 | 73 | 1007.6 |
| 20260508070911 | 46 | 275 | 5.0 | 11.0 | 0.00 | 0.00 | 0.00 | 73 | 1007.5 |
| 20260508070811 | 46 | 272 | 4.0 | 11.0 | 0.00 | 0.00 | 0.00 | 73 | 1007.5 |
| 20260508070732 | 46 | 270 | 5.0 | 11.0 | 0.00 | 0.00 | 0.00 | 73 | 1007.7 |
| 20260508070611 | 46 | 267 | 5.0 | 11.0 | 0.00 | 0.00 | 0.00 | 73 | 1007.5 |
| 20260508070511 | 46 | 263 | 6.0 | 11.0 | 0.00 | 0.00 | 0.00 | 73 | 1007.8 |
| 20260508070433 | 46 | 260 | 4.0 | 13.0 | 0.00 | 0.00 | 0.00 | 73 | 1007.6 |
| 20260508070311 | 46 | 258 | 4.0 | 13.0 | 0.00 | 0.00 | 0.00 | 73 | 1007.6 |
| 20260508070211 | 46 | 257 | 3.0 | 13.0 | 0.00 | 0.00 | 0.00 | 73 | 1007.6 |
| 20260508070132 | 46 | 256 | 3.0 | 13.0 | 0.00 | 0.00 | 0.00 | 73 | 1007.6 |
| 20260508070011 | 46 | 258 | 4.0 | 13.0 | 0.00 | 0.00 | 0.00 | 74 | 1007.7 |
| 20260508065911 | 46 | 258 | 4.0 | 13.0 | 0.00 | 0.00 | 0.00 | 74 | 1007.6 |
| 20260508065811 | 46 | 266 | 4.0 | 13.0 | 0.00 | 0.00 | 0.00 | 74 | 1007.6 |
| 20260508065711 | 46 | 267 | 3.0 | 13.0 | 0.00 | 0.00 | 0.00 | 74 | 1007.7 |
| 20260508065632 | 46 | 267 | 4.0 | 13.0 | 0.00 | 0.00 | 0.00 | 73 | 1007.7 |
| 20260508065511 | 46 | 268 | 4.0 | 13.0 | 0.00 | 0.00 | 0.00 | 73 | 1007.8 |
| 20260508065411 | 46 | 264 | 4.0 | 11.0 | 0.00 | 0.00 | 0.00 | 74 | 1007.8 |
| 20260508065311 | 46 | 267 | 4.0 | 11.0 | 0.00 | 0.00 | 0.00 | 73 | 1007.7 |
| 20260508065233 | 46 | 265 | 4.0 | 11.0 | 0.00 | 0.00 | 0.00 | 74 | 1007.9 |
| 20260508065111 | 46 | 258 | 4.0 | 11.0 | 0.00 | 0.00 | 0.00 | 74 | 1007.7 |
| 20260508065011 | 46 | 255 | 3.0 | 11.0 | 0.00 | 0.00 | 0.00 | 74 | 1007.8 |
| 20260508064911 | 46 | 258 | 5.0 | 11.0 | 0.00 | 0.00 | 0.00 | 74 | 1007.7 |
| 20260508064811 | 46 | 255 | 4.0 | 11.0 | 0.00 | 0.00 | 0.00 | 74 | 1007.8 |
| 20260508064711 | 46 | 251 | 5.0 | 11.0 | 0.00 | 0.00 | 0.00 | 74 | 1007.8 |
| 20260508064632 | 46 | 249 | 4.0 | 11.0 | 0.00 | 0.00 | 0.00 | 74 | 1007.9 |
| 20260508064511 | 46 | 248 | 6.0 | 11.0 | 0.00 | 0.00 | 0.00 | 74 | 1007.9 |
| 20260508064411 | 46 | 247 | 3.0 | 11.0 | 0.00 | 0.00 | 0.00 | 74 | 1007.8 |
| 20260508064311 | 47 | 246 | 4.0 | 11.0 | 0.00 | 0.00 | 0.00 | 74 | 1007.8 |
| 20260508064211 | 47 | 249 | 4.0 | 11.0 | 0.00 | 0.00 | 0.00 | 74 | 1007.8 |
| 20260508064111 | 47 | 250 | 3.0 | 11.0 | 0.00 | 0.00 | 0.00 | 74 | 1007.9 |
| 20260508064011 | 47 | 249 | 4.0 | 11.0 | 0.00 | 0.00 | 0.00 | 73 | 1007.9 |
| 20260508063911 | 47 | 242 | 4.0 | 11.0 | 0.00 | 0.00 | 0.00 | 73 | 1007.8 |
| 20260508063832 | 47 | 238 | 5.0 | 11.0 | 0.00 | 0.00 | 0.00 | 73 | 1007.9 |
| 20260508063711 | 47 | 235 | 6.0 | 11.0 | 0.00 | 0.00 | 0.00 | 73 | 1007.7 |
| 20260508063611 | 47 | 234 | 5.0 | 11.0 | 0.00 | 0.00 | 0.00 | 73 | 1007.8 |
| 20260508063532 | 47 | 232 | 4.0 | 11.0 | 0.00 | 0.00 | 0.00 | 73 | 1008.0 |
| 20260508063411 | 47 | 229 | 4.0 | 11.0 | 0.00 | 0.00 | 0.00 | 73 | 1007.8 |
| 20260508063311 | 47 | 229 | 4.0 | 11.0 | 0.00 | 0.00 | 0.00 | 73 | 1007.8 |
| 20260508063211 | 47 | 223 | 4.0 | 11.0 | 0.00 | 0.00 | 0.00 | 73 | 1007.8 |
| 20260508063111 | 47 | 226 | 5.0 | 11.0 | 0.00 | 0.00 | 0.00 | 73 | 1007.8 |
| 20260508063033 | 47 | 229 | 4.0 | 11.0 | 0.00 | 0.00 | 0.00 | 73 | 1007.7 |
| 20260508062911 | 47 | 231 | 4.0 | 11.0 | 0.00 | 0.00 | 0.00 | 73 | 1007.8 |
| 20260508062811 | 47 | 232 | 6.0 | 11.0 | 0.00 | 0.00 | 0.00 | 73 | 1007.8 |
| 20260508062711 | 47 | 231 | 4.0 | 11.0 | 0.00 | 0.00 | 0.00 | 73 | 1007.9 |
| 20260508062611 | 47 | 228 | 4.0 | 11.0 | 0.00 | 0.00 | 0.00 | 73 | 1007.8 |
| 20260508062511 | 47 | 226 | 4.0 | 11.0 | 0.00 | 0.00 | 0.00 | 73 | 1007.8 |
| 20260508062411 | 47 | 226 | 3.0 | 11.0 | 0.00 | 0.00 | 0.00 | 73 | 1007.9 |
| 20260508062332 | 47 | 222 | 4.0 | 11.0 | 0.00 | 0.00 | 0.00 | 73 | 1008.0 |
| 20260508062211 | 48 | 225 | 5.0 | 11.0 | 0.00 | 0.00 | 0.00 | 72 | 1008.0 |
| 20260508062111 | 48 | 222 | 4.0 | 11.0 | 0.00 | 0.00 | 0.00 | 72 | 1007.8 |
| 20260508062011 | 48 | 217 | 4.0 | 11.0 | 0.00 | 0.00 | 0.00 | 72 | 1007.8 |
| 20260508061911 | 48 | 220 | 6.0 | 11.0 | 0.00 | 0.00 | 0.00 | 72 | 1007.9 |
| 20260508061811 | 48 | 227 | 4.0 | 11.0 | 0.00 | 0.00 | 0.00 | 72 | 1007.8 |
| 20260508061711 | 48 | 225 | 5.0 | 11.0 | 0.00 | 0.00 | 0.00 | 72 | 1007.8 |
| 20260508061611 | 48 | 234 | 5.0 | 11.0 | 0.00 | 0.00 | 0.00 | 72 | 1007.8 |
| 20260508061511 | 48 | 237 | 4.0 | 11.0 | 0.00 | 0.00 | 0.00 | 72 | 1007.6 |
| 20260508061432 | 48 | 242 | 5.0 | 11.0 | 0.00 | 0.00 | 0.00 | 72 | 1007.8 |
| 20260508061311 | 48 | 253 | 4.0 | 11.0 | 0.00 | 0.00 | 0.00 | 72 | 1007.8 |
| 20260508061232 | 48 | 253 | 4.0 | 11.0 | 0.00 | 0.00 | 0.00 | 71 | 1007.6 |
| 20260508061111 | 48 | 252 | 4.0 | 11.0 | 0.00 | 0.00 | 0.00 | 71 | 1007.9 |
| 20260508061011 | 48 | 253 | 5.0 | 11.0 | 0.00 | 0.00 | 0.00 | 71 | 1007.5 |
| 20260508060911 | 48 | 250 | 6.0 | 11.0 | 0.00 | 0.00 | 0.00 | 71 | 1007.8 |
| 20260508060811 | 48 | 250 | 6.0 | 11.0 | 0.00 | 0.00 | 0.00 | 71 | 1007.7 |
| 20260508060711 | 48 | 248 | 7.0 | 11.0 | 0.00 | 0.00 | 0.00 | 71 | 1007.8 |
| 20260508060611 | 48 | 248 | 7.0 | 11.0 | 0.00 | 0.00 | 0.00 | 71 | 1007.8 |
| 20260508060511 | 48 | 249 | 6.0 | 15.0 | 0.00 | 0.00 | 0.00 | 71 | 1007.7 |
| 20260508060411 | 48 | 234 | 5.0 | 15.0 | 0.00 | 0.00 | 0.00 | 72 | 1007.7 |
| 20260508060332 | 48 | 234 | 7.0 | 15.0 | 0.00 | 0.00 | 0.00 | 72 | 1007.7 |
| 20260508060211 | 48 | 234 | 5.0 | 15.0 | 0.00 | 0.00 | 0.00 | 72 | 1007.8 |
| 20260508060111 | 48 | 235 | 4.0 | 15.0 | 0.00 | 0.00 | 0.00 | 72 | 1007.7 |
| 20260508060033 | 48 | 236 | 4.0 | 15.0 | 0.00 | 0.00 | 0.00 | 72 | 1007.9 |
| 20260508055911 | 48 | 245 | 6.0 | 15.0 | 0.00 | 0.00 | 0.00 | 72 | 1007.8 |
| 20260508055811 | 48 | 231 | 3.0 | 15.0 | 0.00 | 0.00 | 0.00 | 72 | 1007.7 |
| 20260508055733 | 48 | 231 | 3.0 | 15.0 | 0.00 | 0.00 | 0.00 | 72 | 1007.7 |
| 20260508055611 | 48 | 233 | 5.0 | 15.0 | 0.00 | 0.00 | 0.00 | 71 | 1007.8 |
| 20260508055511 | 48 | 224 | 7.0 | 15.0 | 0.00 | 0.00 | 0.00 | 71 | 1007.9 |
| 20260508055411 | 48 | 233 | 4.0 | 14.0 | 0.00 | 0.00 | 0.00 | 71 | 1007.7 |
| 20260508055311 | 48 | 224 | 4.0 | 14.0 | 0.00 | 0.00 | 0.00 | 71 | 1007.6 |
| 20260508055211 | 48 | 243 | 6.0 | 17.0 | 0.00 | 0.00 | 0.00 | 71 | 1007.7 |
| 20260508055111 | 48 | 254 | 8.0 | 17.0 | 0.00 | 0.00 | 0.00 | 71 | 1007.7 |
| 20260508055011 | 49 | 242 | 5.0 | 17.0 | 0.00 | 0.00 | 0.00 | 71 | 1007.8 |
| 20260508054911 | 49 | 233 | 5.0 | 17.0 | 0.00 | 0.00 | 0.00 | 71 | 1007.9 |
| 20260508054811 | 49 | 256 | 3.0 | 17.0 | 0.00 | 0.00 | 0.00 | 71 | 1007.7 |
| 20260508054711 | 49 | 273 | 4.0 | 17.0 | 0.00 | 0.00 | 0.00 | 71 | 1007.9 |
| 20260508054611 | 49 | 266 | 8.0 | 17.0 | 0.00 | 0.00 | 0.00 | 70 | 1007.7 |
| 20260508054511 | 49 | 263 | 7.0 | 17.0 | 0.00 | 0.00 | 0.00 | 71 | 1007.8 |
| 20260508054411 | 49 | 268 | 4.0 | 17.0 | 0.00 | 0.00 | 0.00 | 71 | 1007.9 |
| 20260508054311 | 49 | 266 | 8.0 | 17.0 | 0.00 | 0.00 | 0.00 | 71 | 1007.8 |
| 20260508054211 | 49 | 259 | 7.0 | 15.0 | 0.00 | 0.00 | 0.00 | 71 | 1007.7 |
| 20260508054111 | 49 | 258 | 4.0 | 15.0 | 0.00 | 0.00 | 0.00 | 71 | 1007.8 |
| 20260508054011 | 49 | 263 | 6.0 | 15.0 | 0.00 | 0.00 | 0.00 | 71 | 1007.9 |
| 20260508053911 | 49 | 267 | 6.0 | 15.0 | 0.00 | 0.00 | 0.00 | 71 | 1007.7 |
| 20260508053811 | 49 | 258 | 6.0 | 15.0 | 0.00 | 0.00 | 0.00 | 71 | 1007.8 |
| 20260508053732 | 49 | 252 | 6.0 | 15.0 | 0.00 | 0.00 | 0.00 | 71 | 1007.8 |
| 20260508053611 | 49 | 247 | 4.0 | 14.0 | 0.00 | 0.00 | 0.00 | 72 | 1008.0 |
| 20260508053533 | 49 | 253 | 8.0 | 14.0 | 0.00 | 0.00 | 0.00 | 72 | 1007.7 |
| 20260508053411 | 49 | 245 | 8.0 | 14.0 | 0.00 | 0.00 | 0.00 | 72 | 1007.7 |
| 20260508053311 | 49 | 247 | 7.0 | 11.0 | 0.00 | 0.00 | 0.00 | 73 | 1007.8 |
| 20260508053211 | 49 | 247 | 5.0 | 11.0 | 0.00 | 0.00 | 0.00 | 73 | 1007.7 |
| 20260508053111 | 49 | 242 | 5.0 | 11.0 | 0.00 | 0.00 | 0.00 | 73 | 1007.8 |
| 20260508053033 | 49 | 241 | 4.0 | 11.0 | 0.00 | 0.00 | 0.00 | 73 | 1007.8 |
| 20260508052911 | 49 | 232 | 4.0 | 11.0 | 0.00 | 0.00 | 0.00 | 73 | 1007.9 |
| 20260508052833 | 49 | 238 | 4.0 | 11.0 | 0.00 | 0.00 | 0.00 | 73 | 1007.7 |
| 20260508052711 | 49 | 241 | 7.0 | 11.0 | 0.00 | 0.00 | 0.00 | 73 | 1007.8 |
| 20260508052611 | 49 | 247 | 5.0 | 11.0 | 0.00 | 0.00 | 0.00 | 73 | 1007.9 |
| 20260508052511 | 49 | 241 | 8.0 | 11.0 | 0.00 | 0.00 | 0.00 | 73 | 1007.7 |
| 20260508052411 | 49 | 245 | 7.0 | 11.0 | 0.00 | 0.00 | 0.00 | 74 | 1007.7 |
| 20260508052311 | 49 | 248 | 4.0 | 11.0 | 0.00 | 0.00 | 0.00 | 74 | 1007.9 |
| 20260508052211 | 49 | 250 | 6.0 | 11.0 | 0.00 | 0.00 | 0.00 | 74 | 1007.8 |
| 20260508052111 | 49 | 250 | 8.0 | 11.0 | 0.00 | 0.00 | 0.00 | 74 | 1007.8 |
| 20260508052032 | 49 | 249 | 4.0 | 11.0 | 0.00 | 0.00 | 0.00 | 74 | 1007.9 |
| 20260508051932 | 49 | 246 | 4.0 | 11.0 | 0.00 | 0.00 | 0.00 | 74 | 1007.7 |
| 20260508051832 | 49 | 247 | 4.0 | 13.0 | 0.00 | 0.00 | 0.00 | 74 | 1008.0 |
| 20260508051711 | 49 | 248 | 6.0 | 13.0 | 0.00 | 0.00 | 0.00 | 74 | 1007.7 |
| 20260508051611 | 49 | 241 | 5.0 | 13.0 | 0.00 | 0.00 | 0.00 | 75 | 1007.7 |
| 20260508051511 | 49 | 243 | 3.0 | 13.0 | 0.00 | 0.00 | 0.00 | 75 | 1007.8 |
| 20260508051411 | 49 | 238 | 4.0 | 13.0 | 0.00 | 0.00 | 0.00 | 75 | 1007.6 |
| 20260508051332 | 49 | 235 | 4.0 | 13.0 | 0.00 | 0.00 | 0.00 | 75 | 1007.6 |
| 20260508051211 | 49 | 234 | 4.0 | 13.0 | 0.00 | 0.00 | 0.00 | 75 | 1007.8 |
| 20260508051111 | 49 | 234 | 4.0 | 13.0 | 0.00 | 0.00 | 0.00 | 75 | 1007.8 |
| 20260508051011 | 49 | 238 | 6.0 | 13.0 | 0.00 | 0.00 | 0.00 | 76 | 1007.8 |
| 20260508050932 | 49 | 245 | 6.0 | 14.0 | 0.00 | 0.00 | 0.00 | 76 | 1007.8 |
| 20260508050811 | 49 | 249 | 7.0 | 14.0 | 0.00 | 0.00 | 0.00 | 76 | 1007.9 |
| 20260508050711 | 49 | 250 | 4.0 | 15.0 | 0.00 | 0.00 | 0.00 | 76 | 1007.7 |
| 20260508050632 | 49 | 252 | 4.0 | 15.0 | 0.00 | 0.00 | 0.00 | 76 | 1007.5 |
| 20260508050511 | 49 | 256 | 3.0 | 15.0 | 0.00 | 0.00 | 0.00 | 76 | 1007.6 |
| 20260508050411 | 49 | 259 | 4.0 | 15.0 | 0.00 | 0.00 | 0.00 | 76 | 1007.7 |
| 20260508050311 | 49 | 261 | 5.0 | 15.0 | 0.00 | 0.00 | 0.00 | 76 | 1007.6 |
| 20260508050211 | 49 | 261 | 4.0 | 15.0 | 0.00 | 0.00 | 0.00 | 76 | 1007.7 |
| 20260508050111 | 49 | 264 | 5.0 | 15.0 | 0.00 | 0.00 | 0.00 | 76 | 1007.7 |
| 20260508050012 | 49 | 263 | 4.0 | 15.0 | 0.00 | 0.00 | 0.00 | 77 | 1007.6 |
| 20260508045911 | 49 | 254 | 8.0 | 15.0 | 0.00 | 0.00 | 0.00 | 77 | 1007.5 |
| 20260508045811 | 49 | 248 | 6.0 | 15.0 | 0.00 | 0.01 | 0.00 | 77 | 1007.4 |
| 20260508045711 | 49 | 247 | 8.0 | 15.0 | 0.00 | 0.01 | 0.00 | 77 | 1007.5 |
| 20260508045611 | 49 | 245 | 3.0 | 11.0 | 0.00 | 0.01 | 0.00 | 77 | 1007.6 |
| 20260508045532 | 49 | 242 | 5.0 | 13.0 | 0.00 | 0.01 | 0.00 | 78 | 1007.7 |
| 20260508045411 | 49 | 234 | 4.0 | 13.0 | 0.00 | 0.01 | 0.00 | 77 | 1007.7 |
| 20260508045311 | 49 | 230 | 4.0 | 13.0 | 0.00 | 0.01 | 0.00 | 77 | 1007.7 |
| 20260508045211 | 49 | 236 | 4.0 | 14.0 | 0.00 | 0.01 | 0.00 | 77 | 1007.7 |
| 20260508045111 | 49 | 237 | 5.0 | 14.0 | 0.00 | 0.01 | 0.00 | 77 | 1007.5 |
| 20260508045011 | 49 | 235 | 5.0 | 14.0 | 0.00 | 0.01 | 0.00 | 77 | 1007.6 |
| 20260508044911 | 49 | 240 | 5.0 | 14.0 | 0.00 | 0.01 | 0.00 | 78 | 1007.7 |
| 20260508044811 | 49 | 243 | 5.0 | 14.0 | 0.00 | 0.01 | 0.00 | 78 | 1007.6 |
| 20260508044711 | 49 | 244 | 4.0 | 14.0 | 0.00 | 0.01 | 0.00 | 78 | 1007.6 |
| 20260508044611 | 49 | 246 | 5.0 | 14.0 | 0.00 | 0.01 | 0.00 | 78 | 1007.6 |
| 20260508044532 | 49 | 248 | 5.0 | 14.0 | 0.00 | 0.01 | 0.00 | 78 | 1007.6 |
| 20260508044411 | 49 | 251 | 5.0 | 14.0 | 0.00 | 0.01 | 0.00 | 78 | 1007.7 |
| 20260508044311 | 49 | 256 | 5.0 | 14.0 | 0.00 | 0.01 | 0.00 | 78 | 1007.7 |
| 20260508044211 | 49 | 253 | 4.0 | 13.0 | 0.00 | 0.01 | 0.00 | 78 | 1007.6 |
| 20260508044132 | 49 | 252 | 4.0 | 13.0 | 0.00 | 0.01 | 0.00 | 78 | 1007.6 |
| 20260508044011 | 48 | 256 | 5.0 | 13.0 | 0.00 | 0.01 | 0.00 | 78 | 1007.6 |
| 20260508043911 | 48 | 254 | 4.0 | 13.0 | 0.00 | 0.01 | 0.00 | 79 | 1007.6 |
| 20260508043811 | 48 | 253 | 5.0 | 13.0 | 0.00 | 0.01 | 0.00 | 79 | 1007.6 |
| 20260508043711 | 48 | 255 | 7.0 | 13.0 | 0.00 | 0.01 | 0.00 | 79 | 1007.7 |
| 20260508043611 | 48 | 257 | 7.0 | 13.0 | 0.00 | 0.01 | 0.00 | 79 | 1007.6 |
| 20260508043511 | 48 | 257 | 5.0 | 14.0 | 0.00 | 0.01 | 0.00 | 79 | 1007.6 |
| 20260508043411 | 48 | 254 | 4.0 | 14.0 | 0.00 | 0.01 | 0.00 | 79 | 1007.6 |
| 20260508043311 | 48 | 254 | 7.0 | 14.0 | 0.00 | 0.01 | 0.00 | 79 | 1007.7 |
| 20260508043232 | 48 | 256 | 4.0 | 14.0 | 0.00 | 0.01 | 0.00 | 79 | 1007.8 |
| 20260508043111 | 49 | 258 | 4.0 | 14.0 | 0.00 | 0.01 | 0.00 | 79 | 1007.8 |
| 20260508043012 | 49 | 259 | 5.0 | 14.0 | 0.00 | 0.01 | 0.00 | 79 | 1007.8 |
| 20260508042911 | 49 | 259 | 7.0 | 14.0 | 0.00 | 0.01 | 0.00 | 79 | 1007.8 |
| 20260508042832 | 49 | 261 | 4.0 | 14.0 | 0.00 | 0.01 | 0.00 | 79 | 1007.6 |
| 20260508042711 | 49 | 262 | 4.0 | 14.0 | 0.00 | 0.01 | 0.00 | 79 | 1007.8 |
| 20260508042611 | 49 | 264 | 4.0 | 14.0 | 0.00 | 0.01 | 0.00 | 79 | 1007.8 |
| 20260508042511 | 49 | 266 | 9.0 | 14.0 | 0.00 | 0.01 | 0.00 | 79 | 1007.7 |
| 20260508042411 | 49 | 270 | 7.0 | 14.0 | 0.00 | 0.02 | 0.00 | 79 | 1007.8 |
| 20260508042311 | 49 | 267 | 5.0 | 14.0 | 0.00 | 0.02 | 0.00 | 79 | 1007.7 |
| 20260508042211 | 49 | 267 | 8.0 | 14.0 | 0.00 | 0.08 | 0.00 | 79 | 1007.7 |
| 20260508042111 | 49 | 268 | 6.0 | 14.0 | 0.00 | 0.12 | 0.00 | 80 | 1008.0 |
| 20260508042011 | 49 | 269 | 7.0 | 14.0 | 0.00 | 0.17 | 0.00 | 80 | 1007.7 |
| 20260508041911 | 49 | 273 | 8.0 | 14.0 | 0.00 | 0.22 | 0.00 | 80 | 1007.9 |
| 20260508041811 | 49 | 270 | 5.0 | 13.0 | 0.00 | 0.34 | 0.00 | 80 | 1007.7 |
| 20260508041711 | 49 | 270 | 4.0 | 13.0 | 0.00 | 0.38 | 0.00 | 80 | 1007.7 |
| 20260508041611 | 49 | 265 | 5.0 | 14.0 | 0.00 | 0.43 | 0.00 | 80 | 1007.8 |
| 20260508041532 | 49 | 261 | 5.0 | 14.0 | 0.00 | 0.47 | 0.00 | 80 | 1007.9 |
| 20260508041432 | 49 | 264 | 7.0 | 14.0 | 0.00 | 0.54 | 0.00 | 80 | 1007.7 |
| 20260508041311 | 49 | 274 | 4.0 | 14.0 | 0.00 | 0.57 | 0.00 | 80 | 1007.7 |
| 20260508041211 | 49 | 272 | 6.0 | 14.0 | 0.00 | 0.61 | 0.00 | 80 | 1007.8 |
| 20260508041111 | 49 | 266 | 4.0 | 15.0 | 0.00 | 0.65 | 0.00 | 80 | 1007.8 |
| 20260508041018 | 49 | 264 | 4.0 | 15.0 | 0.00 | 0.71 | 0.00 | 80 | 1007.8 |
| 20260508040911 | 49 | 261 | 7.0 | 15.0 | 0.00 | 0.73 | 0.00 | 80 | 1007.7 |
| 20260508040811 | 49 | 262 | 4.0 | 15.0 | 0.00 | 0.74 | 0.00 | 80 | 1007.7 |
| 20260508040711 | 49 | 262 | 4.0 | 15.0 | 0.00 | 0.79 | 0.00 | 80 | 1007.7 |
| 20260508040611 | 49 | 261 | 8.0 | 15.0 | 0.00 | 0.84 | 0.00 | 80 | 1007.9 |
| 20260508040511 | 49 | 260 | 6.0 | 15.0 | 0.00 | 0.87 | 0.00 | 80 | 1007.8 |
| 20260508040432 | 49 | 253 | 4.0 | 15.0 | 0.00 | 0.91 | 0.00 | 80 | 1007.7 |
| 20260508040311 | 49 | 249 | 5.0 | 15.0 | 0.00 | 0.91 | 0.00 | 80 | 1007.8 |
| 20260508040211 | 49 | 248 | 8.0 | 15.0 | 0.00 | 0.93 | 0.00 | 80 | 1007.6 |
| 20260508040111 | 49 | 250 | 4.0 | 11.0 | 0.00 | 0.96 | 0.00 | 80 | 1007.6 |
| 20260508040012 | 49 | 252 | 2.0 | 11.0 | 0.00 | 0.97 | 0.00 | 80 | 1007.6 |
| 20260508035933 | 49 | 254 | 4.0 | 11.0 | 0.00 | 0.98 | 0.00 | 80 | 1007.6 |
| 20260508035811 | 49 | 251 | 5.0 | 11.0 | 0.00 | 1.00 | 0.00 | 80 | 1007.7 |
| 20260508035711 | 49 | 248 | 4.0 | 11.0 | 0.00 | 1.02 | 0.00 | 80 | 1007.8 |
| 20260508035611 | 49 | 249 | 4.0 | 11.0 | 0.00 | 1.03 | 0.00 | 80 | 1007.6 |
| 20260508035511 | 49 | 252 | 6.0 | 11.0 | 0.00 | 1.04 | 0.00 | 80 | 1007.6 |
| 20260508035411 | 49 | 249 | 4.0 | 11.0 | 0.00 | 1.04 | 0.00 | 80 | 1007.6 |
| 20260508035311 | 49 | 245 | 4.0 | 11.0 | 0.00 | 1.05 | 0.00 | 80 | 1007.6 |
| 20260508035232 | 49 | 241 | 4.0 | 11.0 | 0.00 | 1.05 | 0.00 | 80 | 1007.6 |
| 20260508035111 | 49 | 237 | 4.0 | 11.0 | 0.00 | 1.05 | 0.00 | 80 | 1007.6 |
| 20260508035011 | 50 | 237 | 4.0 | 11.0 | 0.00 | 1.05 | 0.00 | 80 | 1007.5 |
| 20260508034911 | 50 | 235 | 4.0 | 11.0 | 0.00 | 1.05 | 0.00 | 80 | 1007.5 |
| 20260508034811 | 50 | 236 | 4.0 | 11.0 | 0.00 | 1.05 | 0.00 | 80 | 1007.5 |
| 20260508034711 | 50 | 241 | 4.0 | 11.0 | 0.00 | 1.05 | 0.00 | 80 | 1007.4 |
| 20260508034611 | 50 | 242 | 5.0 | 11.0 | 0.00 | 1.05 | 0.00 | 79 | 1007.5 |
| 20260508034532 | 50 | 243 | 5.0 | 11.0 | 0.00 | 1.05 | 0.00 | 79 | 1007.5 |
| 20260508034411 | 50 | 249 | 3.0 | 11.0 | 0.00 | 1.06 | 0.00 | 79 | 1007.6 |
| 20260508034311 | 50 | 252 | 5.0 | 11.0 | 0.00 | 1.06 | 0.00 | 79 | 1007.3 |
| 20260508034211 | 50 | 256 | 4.0 | 11.0 | 0.00 | 1.06 | 0.00 | 79 | 1007.5 |
| 20260508034111 | 50 | 260 | 3.0 | 11.0 | 0.00 | 1.06 | 0.00 | 79 | 1007.4 |
| 20260508034011 | 50 | 259 | 3.0 | 11.0 | 0.00 | 1.06 | 0.00 | 79 | 1007.4 |
| 20260508033911 | 50 | 265 | 4.0 | 11.0 | 0.00 | 1.06 | 0.00 | 79 | 1007.5 |
| 20260508033832 | 50 | 267 | 4.0 | 11.0 | 0.00 | 1.06 | 0.00 | 79 | 1007.4 |
| 20260508033711 | 50 | 268 | 4.0 | 11.0 | 0.00 | 1.06 | 0.00 | 79 | 1007.5 |
| 20260508033611 | 50 | 269 | 6.0 | 11.0 | 0.00 | 1.06 | 0.00 | 79 | 1007.5 |
| 20260508033511 | 50 | 265 | 5.0 | 11.0 | 0.00 | 1.06 | 0.00 | 79 | 1007.2 |
| 20260508033411 | 51 | 266 | 4.0 | 11.0 | 0.00 | 1.06 | 0.00 | 79 | 1007.4 |
| 20260508033311 | 51 | 264 | 4.0 | 11.0 | 0.00 | 1.06 | 0.00 | 79 | 1007.4 |
| 20260508033232 | 51 | 268 | 4.0 | 11.0 | 0.00 | 1.06 | 0.00 | 79 | 1007.5 |
| 20260508033111 | 51 | 263 | 3.0 | 11.0 | 0.00 | 1.06 | 0.00 | 79 | 1007.4 |
| 20260508033011 | 51 | 264 | 6.0 | 11.0 | 0.00 | 1.06 | 0.00 | 79 | 1007.1 |
| 20260508032911 | 51 | 260 | 4.0 | 11.0 | 0.00 | 1.06 | 0.00 | 79 | 1007.4 |
| 20260508032811 | 51 | 255 | 5.0 | 9.0 | 0.00 | 1.06 | 0.00 | 79 | 1007.2 |
| 20260508032711 | 51 | 254 | 4.0 | 9.0 | 0.00 | 1.06 | 0.00 | 79 | 1007.3 |
| 20260508032632 | 51 | 254 | 2.0 | 9.0 | 0.00 | 1.06 | 0.00 | 79 | 1007.3 |
| 20260508032511 | 51 | 252 | 3.0 | 9.0 | 0.00 | 1.06 | 0.00 | 79 | 1007.3 |
| 20260508032411 | 51 | 252 | 3.0 | 9.0 | 0.00 | 1.06 | 0.00 | 79 | 1007.3 |
| 20260508032311 | 51 | 256 | 4.0 | 9.0 | 0.00 | 1.06 | 0.00 | 79 | 1007.2 |
| 20260508032232 | 51 | 256 | 5.0 | 9.0 | 0.00 | 1.06 | 0.00 | 79 | 1007.4 |
| 20260508032111 | 51 | 260 | 4.0 | 9.0 | 0.00 | 1.06 | 0.00 | 79 | 1007.2 |
| 20260508032011 | 51 | 261 | 4.0 | 9.0 | 0.00 | 1.06 | 0.00 | 79 | 1007.3 |
| 20260508031932 | 51 | 257 | 3.0 | 8.0 | 0.00 | 1.06 | 0.00 | 79 | 1007.2 |
| 20260508031811 | 51 | 260 | 4.0 | 8.0 | 0.00 | 1.06 | 0.00 | 79 | 1007.3 |
| 20260508031711 | 51 | 256 | 2.0 | 8.0 | 0.00 | 1.06 | 0.00 | 79 | 1007.2 |
| 20260508031611 | 51 | 258 | 2.0 | 8.0 | 0.00 | 1.06 | 0.00 | 79 | 1007.3 |
| 20260508031511 | 51 | 261 | 4.0 | 8.0 | 0.00 | 1.06 | 0.00 | 79 | 1007.1 |
| 20260508031432 | 51 | 259 | 2.0 | 8.0 | 0.00 | 1.06 | 0.00 | 79 | 1007.3 |
| 20260508031311 | 51 | 257 | 4.0 | 8.0 | 0.00 | 1.06 | 0.00 | 79 | 1007.2 |
| 20260508031211 | 51 | 260 | 3.0 | 8.0 | 0.00 | 1.06 | 0.00 | 78 | 1007.2 |
| 20260508031111 | 51 | 261 | 4.0 | 8.0 | 0.00 | 1.06 | 0.00 | 78 | 1007.1 |
| 20260508031011 | 52 | 258 | 4.0 | 8.0 | 0.00 | 1.06 | 0.00 | 78 | 1007.1 |
| 20260508030911 | 52 | 263 | 4.0 | 7.0 | 0.00 | 1.06 | 0.00 | 78 | 1007.2 |
| 20260508030811 | 52 | 258 | 2.0 | 7.0 | 0.00 | 1.06 | 0.00 | 78 | 1007.0 |
| 20260508030711 | 52 | 256 | 3.0 | 11.0 | 0.00 | 1.06 | 0.00 | 78 | 1007.0 |
| 20260508030611 | 52 | 254 | 4.0 | 11.0 | 0.00 | 1.06 | 0.00 | 78 | 1007.1 |
| 20260508030511 | 52 | 255 | 4.0 | 11.0 | 0.00 | 1.06 | 0.00 | 77 | 1007.1 |
| 20260508030411 | 52 | 261 | 3.0 | 11.0 | 0.00 | 1.06 | 0.00 | 77 | 1007.1 |
| 20260508030332 | 52 | 262 | 2.0 | 11.0 | 0.00 | 1.06 | 0.00 | 77 | 1007.3 |
| 20260508030232 | 52 | 263 | 3.0 | 11.0 | 0.00 | 1.06 | 0.00 | 77 | 1007.1 |
| 20260508030132 | 52 | 258 | 4.0 | 11.0 | 0.00 | 1.06 | 0.00 | 77 | 1007.0 |
| 20260508030011 | 52 | 252 | 3.0 | 11.0 | 0.00 | 1.06 | 0.00 | 76 | 1006.9 |
| 20260508025911 | 52 | 251 | 4.0 | 11.0 | 0.00 | 1.06 | 1.06 | 76 | 1007.0 |
| 20260508025811 | 53 | 254 | 4.0 | 11.0 | 0.00 | 1.06 | 1.06 | 76 | 1007.0 |
| 20260508025711 | 53 | 258 | 3.0 | 9.0 | 0.00 | 1.06 | 1.06 | 76 | 1006.9 |
| 20260508025612 | 53 | 260 | 3.0 | 9.0 | 0.00 | 1.06 | 1.06 | 76 | 1006.9 |
| 20260508025532 | 53 | 252 | 3.0 | 9.0 | 0.00 | 1.06 | 1.06 | 75 | 1006.8 |
| 20260508025411 | 53 | 243 | 3.0 | 9.0 | 0.00 | 1.06 | 1.06 | 75 | 1006.9 |
| 20260508025311 | 53 | 237 | 4.0 | 9.0 | 0.00 | 1.06 | 1.06 | 75 | 1007.0 |
| 20260508025211 | 53 | 234 | 3.0 | 9.0 | 0.00 | 1.06 | 1.06 | 75 | 1006.8 |
| 20260508025111 | 53 | 236 | 4.0 | 9.0 | 0.00 | 1.06 | 1.06 | 75 | 1006.8 |
| 20260508025011 | 53 | 236 | 5.0 | 9.0 | 0.00 | 1.06 | 1.06 | 74 | 1006.9 |
| 20260508024811 | 53 | 229 | 4.0 | 11.0 | 0.00 | 1.06 | 1.06 | 75 | 1006.7 |
| 20260508024711 | 53 | 226 | 4.0 | 11.0 | 0.00 | 1.06 | 1.06 | 74 | 1006.8 |
| 20260508024611 | 53 | 231 | 5.0 | 13.0 | 0.00 | 1.06 | 1.06 | 75 | 1006.8 |
| 20260508024511 | 53 | 236 | 4.0 | 13.0 | 0.00 | 1.06 | 1.06 | 74 | 1006.7 |
| 20260508024411 | 53 | 233 | 5.0 | 13.0 | 0.00 | 1.06 | 1.06 | 75 | 1006.9 |
| 20260508024311 | 53 | 237 | 5.0 | 13.0 | 0.00 | 1.06 | 1.06 | 75 | 1006.9 |
| 20260508024211 | 53 | 239 | 2.0 | 13.0 | 0.00 | 1.06 | 1.06 | 75 | 1006.7 |
| 20260508024132 | 53 | 239 | 2.0 | 13.0 | 0.00 | 1.06 | 1.06 | 75 | 1006.7 |
| 20260508024011 | 53 | 236 | 5.0 | 13.0 | 0.00 | 1.06 | 1.06 | 75 | 1006.9 |
| 20260508023911 | 53 | 233 | 3.0 | 13.0 | 0.00 | 1.06 | 1.06 | 75 | 1006.7 |
| 20260508023832 | 53 | 235 | 5.0 | 13.0 | 0.00 | 1.06 | 1.06 | 74 | 1006.8 |
| 20260508023711 | 53 | 229 | 4.0 | 13.0 | 0.00 | 1.06 | 1.06 | 74 | 1006.8 |
| 20260508023611 | 53 | 224 | 6.0 | 13.0 | 0.00 | 1.06 | 1.06 | 74 | 1006.7 |
| 20260508023511 | 53 | 225 | 3.0 | 13.0 | 0.00 | 1.06 | 1.06 | 74 | 1006.6 |
| 20260508023411 | 53 | 229 | 3.0 | 13.0 | 0.00 | 1.06 | 1.06 | 74 | 1006.7 |
| 20260508023311 | 53 | 229 | 4.0 | 13.0 | 0.00 | 1.06 | 1.06 | 74 | 1006.7 |
| 20260508023211 | 53 | 223 | 2.0 | 13.0 | 0.00 | 1.06 | 1.06 | 74 | 1006.5 |
| 20260508023111 | 53 | 221 | 4.0 | 13.0 | 0.00 | 1.06 | 1.06 | 74 | 1006.6 |
| 20260508023011 | 53 | 225 | 5.0 | 13.0 | 0.00 | 1.06 | 1.06 | 75 | 1006.9 |
| 20260508022932 | 53 | 230 | 5.0 | 13.0 | 0.00 | 1.06 | 1.06 | 75 | 1006.9 |
| 20260508022811 | 53 | 229 | 7.0 | 13.0 | 0.00 | 1.06 | 1.06 | 75 | 1006.7 |
| 20260508022711 | 53 | 232 | 2.0 | 9.0 | 0.00 | 1.06 | 1.06 | 75 | 1006.5 |
| 20260508022611 | 53 | 229 | 4.0 | 9.0 | 0.00 | 1.06 | 1.06 | 75 | 1006.6 |
| 20260508022511 | 53 | 220 | 4.0 | 9.0 | 0.00 | 1.06 | 1.06 | 75 | 1006.6 |
| 20260508022411 | 53 | 216 | 3.0 | 11.0 | 0.00 | 1.06 | 1.06 | 75 | 1006.8 |
| 20260508022311 | 53 | 207 | 4.0 | 11.0 | 0.00 | 1.06 | 1.06 | 75 | 1006.6 |
| 20260508022232 | 53 | 202 | 4.0 | 11.0 | 0.00 | 1.06 | 1.06 | 75 | 1006.8 |
| 20260508022111 | 54 | 199 | 3.0 | 11.0 | 0.00 | 1.06 | 1.06 | 75 | 1006.7 |
| 20260508022032 | 54 | 198 | 5.0 | 11.0 | 0.00 | 1.06 | 1.06 | 75 | 1006.7 |
| 20260508021932 | 54 | 202 | 4.0 | 11.0 | 0.00 | 1.06 | 1.06 | 75 | 1006.7 |
| 20260508021811 | 54 | 203 | 6.0 | 11.0 | 0.00 | 1.06 | 1.06 | 75 | 1006.6 |
| 20260508021711 | 54 | 204 | 3.0 | 11.0 | 0.00 | 1.06 | 1.06 | 75 | 1006.8 |
| 20260508021611 | 54 | 208 | 4.0 | 11.0 | 0.00 | 1.06 | 1.06 | 74 | 1006.6 |
| 20260508021511 | 54 | 214 | 4.0 | 11.0 | 0.00 | 1.06 | 1.06 | 74 | 1006.6 |
| 20260508021411 | 54 | 219 | 4.0 | 11.0 | 0.00 | 1.06 | 1.06 | 75 | 1006.7 |
| 20260508021311 | 54 | 227 | 4.0 | 11.0 | 0.00 | 1.06 | 1.06 | 75 | 1006.5 |
| 20260508021211 | 54 | 234 | 5.0 | 11.0 | 0.00 | 1.06 | 1.06 | 75 | 1006.7 |
| 20260508021111 | 54 | 239 | 5.0 | 11.0 | 0.00 | 1.06 | 1.06 | 75 | 1006.7 |
| 20260508021032 | 54 | 242 | 5.0 | 11.0 | 0.00 | 1.06 | 1.06 | 75 | 1006.6 |
| 20260508020911 | 54 | 240 | 3.0 | 11.0 | 0.00 | 1.06 | 1.06 | 74 | 1006.7 |
| 20260508020811 | 54 | 246 | 3.0 | 11.0 | 0.00 | 1.06 | 1.06 | 74 | 1006.7 |
| 20260508020732 | 54 | 246 | 4.0 | 11.0 | 0.00 | 1.06 | 1.06 | 74 | 1006.6 |
| 20260508020632 | 54 | 246 | 5.0 | 11.0 | 0.00 | 1.06 | 1.06 | 74 | 1006.6 |
| 20260508020511 | 54 | 243 | 4.0 | 11.0 | 0.00 | 1.06 | 1.06 | 74 | 1006.7 |
| 20260508020432 | 54 | 241 | 3.0 | 11.0 | 0.00 | 1.06 | 1.06 | 74 | 1006.5 |
| 20260508020311 | 54 | 237 | 5.0 | 11.0 | 0.00 | 1.06 | 1.06 | 74 | 1006.6 |
| 20260508020211 | 54 | 240 | 3.0 | 11.0 | 0.00 | 1.06 | 1.06 | 75 | 1006.5 |
| 20260508020111 | 54 | 244 | 6.0 | 11.0 | 0.00 | 1.06 | 1.06 | 75 | 1006.6 |
| 20260508020011 | 54 | 242 | 4.0 | 8.0 | 0.00 | 1.06 | 1.06 | 75 | 1006.4 |
| 20260508015911 | 54 | 241 | 4.0 | 8.0 | 0.00 | 1.06 | 1.06 | 75 | 1006.5 |
| 20260508015832 | 54 | 238 | 4.0 | 8.0 | 0.00 | 1.06 | 1.06 | 75 | 1006.5 |
| 20260508015711 | 54 | 235 | 4.0 | 8.0 | 0.00 | 1.06 | 1.06 | 75 | 1006.4 |
| 20260508015632 | 54 | 239 | 3.0 | 8.0 | 0.00 | 1.06 | 1.06 | 75 | 1006.6 |
| 20260508015532 | 54 | 247 | 3.0 | 8.0 | 0.00 | 1.06 | 1.06 | 75 | 1006.5 |
| 20260508015411 | 54 | 257 | 4.0 | 11.0 | 0.00 | 1.06 | 1.06 | 75 | 1006.5 |
| 20260508015311 | 54 | 265 | 4.0 | 11.0 | 0.00 | 1.06 | 1.06 | 75 | 1006.6 |
| 20260508015211 | 54 | 265 | 4.0 | 11.0 | 0.00 | 1.06 | 1.06 | 75 | 1006.5 |
| 20260508015111 | 54 | 269 | 4.0 | 11.0 | 0.00 | 1.06 | 1.06 | 75 | 1006.5 |
| 20260508015011 | 54 | 260 | 4.0 | 11.0 | 0.00 | 1.06 | 1.06 | 75 | 1006.4 |
| 20260508014911 | 54 | 258 | 2.0 | 11.0 | 0.00 | 1.06 | 1.06 | 75 | 1006.5 |
| 20260508014811 | 54 | 258 | 2.0 | 11.0 | 0.00 | 1.06 | 1.06 | 74 | 1006.5 |
| 20260508014711 | 54 | 251 | 3.0 | 11.0 | 0.00 | 1.06 | 1.06 | 74 | 1006.6 |
| 20260508014611 | 54 | 235 | 2.0 | 11.0 | 0.00 | 1.06 | 1.06 | 74 | 1006.6 |
| 20260508014511 | 54 | 227 | 2.0 | 11.0 | 0.00 | 1.06 | 1.06 | 74 | 1006.4 |
| 20260508014411 | 54 | 217 | 5.0 | 11.0 | 0.00 | 1.06 | 1.06 | 74 | 1006.5 |
| 20260508014332 | 54 | 214 | 3.0 | 11.0 | 0.00 | 1.06 | 1.06 | 74 | 1006.5 |
| 20260508014211 | 54 | 214 | 5.0 | 11.0 | 0.00 | 1.06 | 1.06 | 73 | 1006.3 |
| 20260508014111 | 54 | 209 | 4.0 | 11.0 | 0.00 | 1.06 | 1.06 | 73 | 1006.3 |
| 20260508014011 | 54 | 206 | 4.0 | 11.0 | 0.00 | 1.06 | 1.06 | 73 | 1006.3 |
| 20260508013911 | 54 | 195 | 5.0 | 11.0 | 0.00 | 1.06 | 1.06 | 73 | 1006.3 |
| 20260508013811 | 54 | 192 | 3.0 | 11.0 | 0.00 | 1.06 | 1.06 | 73 | 1006.5 |
| 20260508013711 | 54 | 196 | 6.0 | 11.0 | 0.00 | 1.06 | 1.06 | 73 | 1006.5 |
| 20260508013611 | 54 | 196 | 5.0 | 11.0 | 0.00 | 1.06 | 1.06 | 73 | 1006.3 |
| 20260508013511 | 54 | 202 | 7.0 | 11.0 | 0.00 | 1.06 | 1.06 | 73 | 1006.5 |
| 20260508013411 | 54 | 205 | 3.0 | 11.0 | 0.00 | 1.06 | 1.06 | 72 | 1006.6 |
| 20260508013332 | 54 | 202 | 3.0 | 11.0 | 0.00 | 1.06 | 1.06 | 72 | 1006.6 |
| 20260508013211 | 54 | 195 | 4.0 | 13.0 | 0.00 | 1.06 | 1.06 | 72 | 1006.3 |
| 20260508013111 | 54 | 195 | 4.0 | 13.0 | 0.00 | 1.06 | 1.06 | 72 | 1006.6 |
| 20260508013011 | 55 | 201 | 5.0 | 13.0 | 0.00 | 1.06 | 1.06 | 72 | 1006.3 |
| 20260508012911 | 55 | 204 | 5.0 | 14.0 | 0.00 | 1.06 | 1.06 | 72 | 1006.4 |
| 20260508012811 | 55 | 208 | 4.0 | 14.0 | 0.00 | 1.06 | 1.06 | 72 | 1006.5 |
| 20260508012711 | 55 | 211 | 6.0 | 15.0 | 0.00 | 1.06 | 1.06 | 71 | 1006.5 |
| 20260508012611 | 55 | 218 | 5.0 | 15.0 | 0.00 | 1.06 | 1.06 | 71 | 1006.4 |
| 20260508012532 | 55 | 216 | 5.0 | 15.0 | 0.00 | 1.06 | 1.06 | 71 | 1006.4 |
| 20260508012411 | 55 | 217 | 7.0 | 15.0 | 0.00 | 1.06 | 1.06 | 71 | 1006.4 |
| 20260508012311 | 55 | 217 | 3.0 | 15.0 | 0.00 | 1.06 | 1.06 | 71 | 1006.5 |
| 20260508012232 | 55 | 218 | 6.0 | 15.0 | 0.00 | 1.06 | 1.06 | 70 | 1006.5 |
| 20260508012111 | 55 | 220 | 6.0 | 15.0 | 0.00 | 1.06 | 1.06 | 70 | 1006.6 |
| 20260508012011 | 55 | 221 | 7.0 | 15.0 | 0.00 | 1.06 | 1.06 | 70 | 1006.5 |
| 20260508011911 | 55 | 216 | 6.0 | 16.0 | 0.00 | 1.06 | 1.06 | 70 | 1006.4 |
| 20260508011811 | 55 | 213 | 8.0 | 16.0 | 0.00 | 1.06 | 1.06 | 70 | 1006.4 |
| 20260508011712 | 55 | 218 | 8.0 | 22.0 | 0.00 | 1.06 | 1.06 | 69 | 1006.5 |
| 20260508011611 | 55 | 215 | 8.0 | 22.0 | 0.00 | 1.06 | 1.06 | 69 | 1006.6 |
| 20260508011532 | 55 | 210 | 8.0 | 22.0 | 0.00 | 1.06 | 1.06 | 69 | 1006.5 |
| 20260508011411 | 55 | 212 | 9.0 | 22.0 | 0.00 | 1.06 | 1.06 | 69 | 1006.4 |
| 20260508011311 | 55 | 211 | 8.0 | 22.0 | 0.00 | 1.06 | 1.06 | 69 | 1006.5 |
| 20260508011211 | 55 | 211 | 10.0 | 22.0 | 0.00 | 1.06 | 1.06 | 69 | 1006.5 |
| 20260508011111 | 55 | 214 | 8.0 | 22.0 | 0.00 | 1.06 | 1.06 | 69 | 1006.5 |
| 20260508011011 | 55 | 221 | 7.0 | 22.0 | 0.00 | 1.06 | 1.06 | 69 | 1006.6 |
| 20260508010911 | 55 | 228 | 8.0 | 22.0 | 0.00 | 1.06 | 1.06 | 69 | 1006.7 |
| 20260508010811 | 56 | 228 | 9.0 | 22.0 | 0.00 | 1.06 | 1.06 | 69 | 1006.7 |
| 20260508010732 | 56 | 222 | 10.0 | 22.0 | 0.00 | 1.06 | 1.06 | 68 | 1006.6 |
| 20260508010611 | 56 | 211 | 10.0 | 16.0 | 0.00 | 1.06 | 1.06 | 68 | 1006.6 |
| 20260508010511 | 56 | 215 | 8.0 | 15.0 | 0.00 | 1.06 | 1.06 | 69 | 1006.8 |
| 20260508010411 | 56 | 215 | 8.0 | 15.0 | 0.00 | 1.06 | 1.06 | 69 | 1006.6 |
| 20260508010311 | 56 | 220 | 8.0 | 15.0 | 0.00 | 1.06 | 1.06 | 69 | 1006.6 |
| 20260508010211 | 56 | 223 | 6.0 | 15.0 | 0.00 | 1.06 | 1.06 | 69 | 1006.5 |
| 20260508010111 | 56 | 220 | 7.0 | 15.0 | 0.00 | 1.06 | 1.06 | 69 | 1006.6 |
| 20260508010011 | 56 | 209 | 8.0 | 15.0 | 0.00 | 1.06 | 1.06 | 69 | 1006.7 |
| 20260508005911 | 56 | 211 | 6.0 | 15.0 | 0.00 | 1.06 | 1.06 | 69 | 1006.4 |
| 20260508005832 | 56 | 214 | 8.0 | 15.0 | 0.00 | 1.06 | 1.06 | 69 | 1006.6 |
| 20260508005732 | 56 | 215 | 6.0 | 15.0 | 0.00 | 1.06 | 1.06 | 68 | 1006.5 |
| 20260508005611 | 56 | 218 | 9.0 | 15.0 | 0.00 | 1.06 | 1.06 | 68 | 1006.5 |
| 20260508005511 | 56 | 224 | 5.0 | 16.0 | 0.00 | 1.06 | 1.06 | 68 | 1006.3 |
| 20260508005411 | 56 | 221 | 6.0 | 16.0 | 0.00 | 1.06 | 1.06 | 68 | 1006.6 |
| 20260508005311 | 56 | 219 | 6.0 | 16.0 | 0.00 | 1.06 | 1.06 | 68 | 1006.5 |
| 20260508005211 | 56 | 217 | 7.0 | 16.0 | 0.00 | 1.06 | 1.06 | 68 | 1006.6 |
| 20260508005111 | 56 | 215 | 8.0 | 16.0 | 0.00 | 1.06 | 1.06 | 68 | 1006.5 |
| 20260508005011 | 56 | 221 | 6.0 | 16.0 | 0.00 | 1.06 | 1.06 | 67 | 1006.5 |
| 20260508004911 | 56 | 223 | 9.0 | 18.0 | 0.00 | 1.06 | 1.06 | 67 | 1006.6 |
| 20260508004811 | 56 | 218 | 6.0 | 18.0 | 0.00 | 1.06 | 1.06 | 67 | 1006.5 |
| 20260508004711 | 56 | 217 | 8.0 | 18.0 | 0.00 | 1.06 | 1.06 | 67 | 1006.6 |
| 20260508004611 | 56 | 225 | 10.0 | 18.0 | 0.00 | 1.06 | 1.06 | 67 | 1006.5 |
| 20260508004511 | 56 | 221 | 8.0 | 18.0 | 0.00 | 1.06 | 1.06 | 67 | 1006.5 |
| 20260508004411 | 56 | 210 | 5.0 | 22.0 | 0.00 | 1.06 | 1.06 | 67 | 1006.5 |
| 20260508004311 | 57 | 212 | 8.0 | 22.0 | 0.00 | 1.06 | 1.06 | 67 | 1006.5 |
| 20260508004211 | 57 | 218 | 4.0 | 22.0 | 0.00 | 1.06 | 1.06 | 66 | 1006.5 |
| 20260508004111 | 57 | 218 | 5.0 | 22.0 | 0.00 | 1.06 | 1.06 | 66 | 1006.6 |
| 20260508004011 | 57 | 213 | 10.0 | 22.0 | 0.00 | 1.06 | 1.06 | 66 | 1006.4 |
| 20260508003911 | 57 | 209 | 9.0 | 22.0 | 0.00 | 1.06 | 1.06 | 66 | 1006.6 |
| 20260508003811 | 57 | 208 | 9.0 | 22.0 | 0.00 | 1.06 | 1.06 | 65 | 1006.5 |
| 20260508003711 | 57 | 208 | 8.0 | 22.0 | 0.00 | 1.06 | 1.06 | 65 | 1006.5 |
| 20260508003611 | 57 | 206 | 11.0 | 22.0 | 0.00 | 1.06 | 1.06 | 65 | 1006.6 |
| 20260508003511 | 57 | 202 | 7.0 | 22.0 | 0.00 | 1.06 | 1.06 | 65 | 1006.4 |
| 20260508003411 | 57 | 208 | 10.0 | 22.0 | 0.00 | 1.06 | 1.06 | 65 | 1006.2 |
| 20260508003311 | 57 | 205 | 11.0 | 22.0 | 0.00 | 1.06 | 1.06 | 64 | 1006.5 |
| 20260508003211 | 57 | 202 | 7.0 | 22.0 | 0.00 | 1.06 | 1.06 | 64 | 1006.5 |
| 20260508003111 | 57 | 203 | 10.0 | 22.0 | 0.00 | 1.06 | 1.06 | 64 | 1006.4 |
| 20260508003032 | 57 | 201 | 10.0 | 22.0 | 0.00 | 1.06 | 1.06 | 64 | 1006.4 |
| 20260508002911 | 57 | 205 | 8.0 | 22.0 | 0.00 | 1.06 | 1.06 | 64 | 1006.4 |
| 20260508002811 | 57 | 209 | 14.0 | 22.0 | 0.00 | 1.06 | 1.06 | 64 | 1006.4 |
| 20260508002711 | 57 | 217 | 14.0 | 22.0 | 0.00 | 1.06 | 1.06 | 64 | 1006.5 |
| 20260508002611 | 57 | 216 | 9.0 | 22.0 | 0.00 | 1.06 | 1.06 | 64 | 1006.6 |
| 20260508002511 | 57 | 226 | 7.0 | 22.0 | 0.00 | 1.06 | 1.06 | 64 | 1006.5 |
| 20260508002411 | 57 | 224 | 9.0 | 22.0 | 0.00 | 1.06 | 1.06 | 64 | 1006.5 |
| 20260508002311 | 57 | 230 | 8.0 | 22.0 | 0.00 | 1.06 | 1.06 | 64 | 1006.4 |
| 20260508002211 | 57 | 228 | 8.0 | 22.0 | 0.00 | 1.06 | 1.06 | 64 | 1006.5 |
| 20260508002111 | 57 | 226 | 8.0 | 22.0 | 0.00 | 1.06 | 1.06 | 64 | 1006.5 |
| 20260508002032 | 57 | 233 | 8.0 | 22.0 | 0.00 | 1.06 | 1.06 | 64 | 1006.6 |
| 20260508001911 | 57 | 233 | 11.0 | 22.0 | 0.00 | 1.06 | 1.06 | 64 | 1006.5 |
| 20260508001811 | 57 | 229 | 10.0 | 17.0 | 0.00 | 1.06 | 1.06 | 64 | 1006.4 |
| 20260508001711 | 57 | 222 | 7.0 | 15.0 | 0.00 | 1.06 | 1.06 | 64 | 1006.6 |
| 20260508001611 | 57 | 232 | 6.0 | 17.0 | 0.00 | 1.06 | 1.06 | 64 | 1006.4 |
| 20260508001511 | 57 | 224 | 6.0 | 17.0 | 0.00 | 1.06 | 1.06 | 64 | 1006.5 |
| 20260508001411 | 57 | 221 | 4.0 | 17.0 | 0.00 | 1.06 | 1.06 | 64 | 1006.6 |
| 20260508001311 | 57 | 213 | 8.0 | 17.0 | 0.00 | 1.06 | 1.06 | 64 | 1006.7 |
| 20260508001232 | 57 | 208 | 4.0 | 17.0 | 0.00 | 1.06 | 1.06 | 65 | 1006.6 |
| 20260508001111 | 57 | 212 | 5.0 | 17.0 | 0.00 | 1.06 | 1.06 | 64 | 1006.7 |
| 20260508001011 | 57 | 211 | 8.0 | 17.0 | 0.00 | 1.06 | 1.06 | 64 | 1006.6 |
| 20260508000911 | 57 | 214 | 5.0 | 17.0 | 0.00 | 1.06 | 1.06 | 64 | 1006.7 |
| 20260508000832 | 57 | 216 | 8.0 | 17.0 | 0.00 | 1.06 | 1.06 | 64 | 1006.7 |
| 20260508000711 | 57 | 215 | 4.0 | 18.0 | 0.00 | 1.06 | 1.06 | 64 | 1006.6 |
| 20260508000632 | 57 | 210 | 7.0 | 18.0 | 0.00 | 1.06 | 1.06 | 64 | 1006.6 |
| 20260508000511 | 57 | 208 | 7.0 | 18.0 | 0.00 | 1.06 | 1.06 | 64 | 1006.5 |
| 20260508000412 | 57 | 211 | 6.0 | 18.0 | 0.00 | 1.06 | 1.06 | 65 | 1006.6 |
| 20260508000312 | 57 | 218 | 5.0 | 18.0 | 0.00 | 1.06 | 1.06 | 65 | 1006.4 |
| 20260508000212 | 57 | 220 | 4.0 | 18.0 | 0.00 | 1.06 | 1.06 | 65 | 1006.7 |
| 20260508000133 | 57 | 221 | 4.0 | 18.0 | 0.00 | 1.06 | 1.06 | 65 | 1006.7 |
| 20260508000011 | 57 | 220 | 4.0 | 18.0 | 0.00 | 1.06 | 1.06 | 65 | 1006.7 |
| 20260507235911 | 57 | 220 | 6.0 | 18.0 | 0.00 | 1.06 | 1.06 | 65 | 1006.5 |
| 20260507235811 | 57 | 219 | 6.0 | 18.0 | 0.00 | 1.06 | 1.06 | 65 | 1006.6 |
| 20260507235711 | 57 | 226 | 8.0 | 18.0 | 0.00 | 1.06 | 1.06 | 66 | 1006.6 |
| 20260507235611 | 57 | 235 | 4.0 | 11.0 | 0.00 | 1.06 | 1.06 | 67 | 1006.5 |
| 20260507235511 | 57 | 238 | 2.0 | 11.0 | 0.00 | 1.06 | 1.06 | 67 | 1006.7 |
| 20260507235411 | 57 | 245 | 5.0 | 11.0 | 0.00 | 1.06 | 1.06 | 66 | 1006.7 |
| 20260507235311 | 57 | 244 | 6.0 | 11.0 | 0.00 | 1.06 | 1.06 | 67 | 1006.7 |
| 20260507235211 | 57 | 249 | 5.0 | 11.0 | 0.00 | 1.06 | 1.06 | 67 | 1006.6 |
| 20260507235111 | 57 | 248 | 4.0 | 11.0 | 0.00 | 1.06 | 1.06 | 67 | 1006.5 |
| 20260507235011 | 57 | 255 | 4.0 | 11.0 | 0.00 | 1.06 | 1.06 | 67 | 1006.4 |
| 20260507234911 | 57 | 259 | 4.0 | 11.0 | 0.00 | 1.06 | 1.06 | 67 | 1006.6 |
| 20260507234811 | 57 | 260 | 4.0 | 11.0 | 0.00 | 1.06 | 1.06 | 67 | 1006.5 |
| 20260507234711 | 57 | 255 | 5.0 | 11.0 | 0.00 | 1.06 | 1.06 | 67 | 1006.6 |
| 20260507234611 | 57 | 250 | 5.0 | 9.0 | 0.00 | 1.06 | 1.06 | 67 | 1006.6 |
| 20260507234511 | 57 | 246 | 3.0 | 9.0 | 0.00 | 1.06 | 1.06 | 67 | 1006.6 |
| 20260507234411 | 57 | 243 | 4.0 | 9.0 | 0.00 | 1.06 | 1.06 | 67 | 1006.7 |
| 20260507234311 | 57 | 243 | 4.0 | 11.0 | 0.00 | 1.06 | 1.06 | 67 | 1006.6 |
| 20260507234211 | 57 | 239 | 3.0 | 11.0 | 0.00 | 1.06 | 1.06 | 67 | 1006.6 |
| 20260507234111 | 57 | 243 | 2.0 | 11.0 | 0.00 | 1.06 | 1.06 | 67 | 1006.6 |
| 20260507234011 | 57 | 233 | 4.0 | 13.0 | 0.00 | 1.06 | 1.06 | 66 | 1006.6 |
| 20260507233911 | 57 | 230 | 4.0 | 13.0 | 0.00 | 1.06 | 1.06 | 66 | 1006.8 |
| 20260507233811 | 57 | 225 | 4.0 | 13.0 | 0.00 | 1.06 | 1.06 | 66 | 1006.6 |
| 20260507233711 | 57 | 222 | 4.0 | 13.0 | 0.00 | 1.06 | 1.06 | 66 | 1006.7 |
| 20260507233611 | 58 | 226 | 4.0 | 13.0 | 0.00 | 1.06 | 1.06 | 66 | 1006.7 |
| 20260507233511 | 58 | 228 | 3.0 | 13.0 | 0.00 | 1.06 | 1.06 | 66 | 1006.6 |
| 20260507233411 | 58 | 221 | 3.0 | 13.0 | 0.00 | 1.06 | 1.06 | 66 | 1006.6 |
| 20260507233311 | 58 | 216 | 6.0 | 13.0 | 0.00 | 1.06 | 1.06 | 66 | 1006.5 |
| 20260507233232 | 58 | 219 | 4.0 | 13.0 | 0.00 | 1.06 | 1.06 | 66 | 1006.6 |
| 20260507233111 | 58 | 208 | 4.0 | 13.0 | 0.00 | 1.06 | 1.06 | 65 | 1006.5 |
| 20260507233011 | 58 | 219 | 4.0 | 15.0 | 0.00 | 1.06 | 1.06 | 65 | 1006.6 |
| 20260507232911 | 58 | 213 | 4.0 | 15.0 | 0.00 | 1.06 | 1.06 | 65 | 1006.8 |
| 20260507232811 | 58 | 206 | 4.0 | 15.0 | 0.00 | 1.06 | 1.06 | 65 | 1006.8 |
| 20260507232711 | 58 | 207 | 4.0 | 15.0 | 0.00 | 1.06 | 1.06 | 65 | 1006.6 |
| 20260507232612 | 58 | 207 | 7.0 | 15.0 | 0.00 | 1.06 | 1.06 | 65 | 1006.7 |
| 20260507232511 | 58 | 206 | 6.0 | 15.0 | 0.00 | 1.06 | 1.06 | 65 | 1006.7 |
| 20260507232411 | 58 | 208 | 5.0 | 15.0 | 0.00 | 1.06 | 1.06 | 65 | 1006.8 |
| 20260507232311 | 58 | 210 | 4.0 | 15.0 | 0.00 | 1.06 | 1.06 | 65 | 1006.9 |
| 20260507232211 | 58 | 204 | 4.0 | 15.0 | 0.00 | 1.06 | 1.06 | 65 | 1007.0 |
| 20260507232111 | 58 | 208 | 3.0 | 15.0 | 0.00 | 1.06 | 1.06 | 65 | 1007.0 |
| 20260507232011 | 58 | 208 | 8.0 | 15.0 | 0.00 | 1.06 | 1.06 | 64 | 1006.9 |
| 20260507231911 | 58 | 208 | 5.0 | 13.0 | 0.00 | 1.06 | 1.06 | 65 | 1006.9 |
| 20260507231811 | 58 | 210 | 4.0 | 13.0 | 0.00 | 1.06 | 1.06 | 65 | 1007.0 |
| 20260507231711 | 58 | 213 | 4.0 | 13.0 | 0.00 | 1.06 | 1.06 | 64 | 1006.9 |
| 20260507231611 | 58 | 215 | 5.0 | 13.0 | 0.00 | 1.06 | 1.06 | 64 | 1007.2 |
| 20260507231511 | 58 | 213 | 5.0 | 13.0 | 0.00 | 1.06 | 1.06 | 64 | 1007.0 |
| 20260507231411 | 58 | 210 | 7.0 | 13.0 | 0.00 | 1.06 | 1.06 | 64 | 1007.2 |
| 20260507231311 | 58 | 206 | 4.0 | 13.0 | 0.00 | 1.06 | 1.06 | 65 | 1007.0 |
| 20260507231211 | 58 | 214 | 4.0 | 13.0 | 0.00 | 1.06 | 1.06 | 64 | 1007.1 |
| 20260507231111 | 58 | 217 | 7.0 | 13.0 | 0.00 | 1.06 | 1.06 | 64 | 1006.9 |
| 20260507231011 | 58 | 215 | 3.0 | 13.0 | 0.00 | 1.06 | 1.06 | 65 | 1006.9 |
| 20260507230911 | 58 | 217 | 4.0 | 13.0 | 0.00 | 1.06 | 1.06 | 65 | 1007.0 |
| 20260507230811 | 58 | 216 | 6.0 | 13.0 | 0.00 | 1.06 | 1.06 | 65 | 1007.0 |
| 20260507230711 | 58 | 219 | 8.0 | 13.0 | 0.00 | 1.06 | 1.06 | 65 | 1007.0 |
| 20260507230611 | 58 | 216 | 4.0 | 11.0 | 0.00 | 1.06 | 1.06 | 66 | 1007.1 |
| 20260507230511 | 58 | 217 | 4.0 | 11.0 | 0.00 | 1.06 | 1.06 | 66 | 1006.9 |
| 20260507230411 | 58 | 233 | 7.0 | 11.0 | 0.00 | 1.06 | 1.06 | 66 | 1007.0 |
| 20260507230311 | 58 | 241 | 4.0 | 9.0 | 0.00 | 1.06 | 1.06 | 66 | 1006.9 |
| 20260507230211 | 58 | 238 | 4.0 | 9.0 | 0.00 | 1.06 | 1.06 | 67 | 1007.1 |
| 20260507230111 | 58 | 239 | 2.0 | 9.0 | 0.00 | 1.06 | 1.06 | 67 | 1007.0 |
| 20260507230033 | 58 | 237 | 2.0 | 9.0 | 0.00 | 1.06 | 1.06 | 67 | 1007.1 |
| 20260507225932 | 58 | 245 | 2.0 | 9.0 | 0.00 | 1.06 | 1.06 | 67 | 1006.9 |
| 20260507225811 | 58 | 247 | 2.0 | 9.0 | 0.00 | 1.06 | 1.06 | 67 | 1007.0 |
| 20260507225711 | 58 | 248 | 3.0 | 9.0 | 0.00 | 1.06 | 1.06 | 67 | 1007.0 |
| 20260507225632 | 58 | 241 | 2.0 | 7.0 | 0.00 | 1.06 | 1.06 | 67 | 1007.0 |
| 20260507225532 | 58 | 242 | 2.0 | 7.0 | 0.00 | 1.06 | 1.06 | 67 | 1007.0 |
| 20260507225411 | 58 | 245 | 4.0 | 7.0 | 0.00 | 1.06 | 1.06 | 67 | 1007.0 |
| 20260507225311 | 58 | 251 | 3.0 | 8.0 | 0.00 | 1.06 | 1.06 | 68 | 1007.0 |
| 20260507225211 | 58 | 255 | 2.0 | 11.0 | 0.00 | 1.06 | 1.06 | 68 | 1006.9 |
| 20260507225111 | 58 | 260 | 3.0 | 11.0 | 0.00 | 1.06 | 1.06 | 67 | 1006.8 |
| 20260507225032 | 58 | 265 | 4.0 | 11.0 | 0.00 | 1.06 | 1.06 | 67 | 1006.9 |
| 20260507224911 | 58 | 265 | 2.0 | 11.0 | 0.00 | 1.06 | 1.06 | 67 | 1007.1 |
| 20260507224810 | 58 | 260 | 3.0 | 11.0 | 0.00 | 1.06 | 1.06 | 67 | 1007.0 |
| 20260507224711 | 58 | 268 | 2.0 | 11.0 | 0.00 | 1.06 | 1.06 | 67 | 1006.9 |
| 20260507224611 | 58 | 264 | 3.0 | 11.0 | 0.00 | 1.06 | 1.06 | 66 | 1006.8 |
| 20260507224511 | 58 | 263 | 2.0 | 11.0 | 0.00 | 1.06 | 1.06 | 66 | 1006.9 |
| 20260507224411 | 58 | 259 | 3.0 | 11.0 | 0.00 | 1.06 | 1.06 | 66 | 1006.7 |
| 20260507224311 | 58 | 244 | 5.0 | 11.0 | 0.00 | 1.06 | 1.06 | 66 | 1006.9 |
| 20260507224211 | 58 | 239 | 4.0 | 11.0 | 0.00 | 1.06 | 1.06 | 66 | 1006.8 |
| 20260507224111 | 58 | 231 | 5.0 | 11.0 | 0.00 | 1.06 | 1.06 | 66 | 1006.7 |
| 20260507224011 | 58 | 222 | 4.0 | 11.0 | 0.00 | 1.06 | 1.06 | 66 | 1006.8 |
| 20260507223911 | 58 | 231 | 3.0 | 11.0 | 0.00 | 1.06 | 1.06 | 66 | 1006.8 |
| 20260507223832 | 58 | 240 | 4.0 | 11.0 | 0.00 | 1.06 | 1.06 | 66 | 1006.8 |
| 20260507223711 | 58 | 241 | 4.0 | 11.0 | 0.00 | 1.06 | 1.06 | 67 | 1006.7 |
| 20260507223611 | 58 | 227 | 5.0 | 9.0 | 0.00 | 1.06 | 1.06 | 67 | 1006.8 |
| 20260507223511 | 58 | 224 | 2.0 | 8.0 | 0.00 | 1.06 | 1.06 | 67 | 1006.6 |
| 20260507223411 | 58 | 221 | 4.0 | 8.0 | 0.00 | 1.06 | 1.06 | 68 | 1006.7 |
| 20260507223311 | 58 | 236 | 3.0 | 8.0 | 0.00 | 1.06 | 1.06 | 68 | 1006.6 |
| 20260507223215 | 58 | 239 | 3.0 | 8.0 | 0.00 | 1.06 | 1.06 | 68 | 1006.7 |
| 20260507223132 | 58 | 239 | 3.0 | 8.0 | 0.00 | 1.06 | 1.06 | 68 | 1006.6 |
| 20260507223011 | 58 | 236 | 3.0 | 8.0 | 0.00 | 1.06 | 1.06 | 68 | 1006.7 |
| 20260507222911 | 58 | 233 | 3.0 | 8.0 | 0.00 | 1.06 | 1.06 | 68 | 1006.6 |
| 20260507222811 | 58 | 226 | 2.0 | 8.0 | 0.00 | 1.06 | 1.06 | 68 | 1006.7 |
| 20260507222711 | 58 | 231 | 1.0 | 8.0 | 0.00 | 1.06 | 1.06 | 68 | 1006.6 |
| 20260507222611 | 58 | 241 | 4.0 | 8.0 | 0.00 | 1.06 | 1.06 | 68 | 1006.6 |
| 20260507222511 | 58 | 245 | 3.0 | 8.0 | 0.00 | 1.06 | 1.06 | 68 | 1006.5 |
| 20260507222411 | 58 | 247 | 4.0 | 8.0 | 0.00 | 1.06 | 1.06 | 68 | 1006.5 |
| 20260507222311 | 58 | 240 | 4.0 | 7.0 | 0.00 | 1.06 | 1.06 | 68 | 1006.2 |
| 20260507222233 | 58 | 236 | 3.0 | 7.0 | 0.00 | 1.06 | 1.06 | 68 | 1006.5 |
| 20260507222111 | 58 | 238 | 2.0 | 7.0 | 0.00 | 1.06 | 1.06 | 68 | 1006.4 |
| 20260507222011 | 58 | 242 | 4.0 | 7.0 | 0.00 | 1.06 | 1.06 | 68 | 1006.5 |
| 20260507221911 | 58 | 239 | 2.0 | 7.0 | 0.00 | 1.06 | 1.06 | 68 | 1006.5 |
| 20260507221811 | 58 | 237 | 4.0 | 7.0 | 0.00 | 1.06 | 1.06 | 68 | 1006.6 |
| 20260507221711 | 58 | 230 | 2.0 | 7.0 | 0.00 | 1.06 | 1.06 | 68 | 1006.3 |
| 20260507221611 | 58 | 228 | 4.0 | 7.0 | 0.00 | 1.06 | 1.06 | 68 | 1006.4 |
| 20260507221511 | 58 | 228 | 2.0 | 6.0 | 0.00 | 1.06 | 1.06 | 68 | 1006.2 |
| 20260507221411 | 58 | 235 | 3.0 | 6.0 | 0.00 | 1.06 | 1.06 | 68 | 1006.5 |
| 20260507221311 | 58 | 237 | 4.0 | 6.0 | 0.00 | 1.06 | 1.06 | 68 | 1006.4 |
| 20260507221232 | 58 | 242 | 2.0 | 6.0 | 0.00 | 1.06 | 1.06 | 68 | 1006.5 |
| 20260507221111 | 58 | 250 | 2.0 | 7.0 | 0.00 | 1.06 | 1.06 | 68 | 1006.5 |
| 20260507221011 | 58 | 242 | 1.0 | 7.0 | 0.00 | 1.06 | 1.06 | 68 | 1006.4 |
| 20260507220911 | 58 | 240 | 2.0 | 7.0 | 0.00 | 1.06 | 1.06 | 68 | 1006.5 |
| 20260507220811 | 58 | 240 | 3.0 | 7.0 | 0.00 | 1.06 | 1.06 | 67 | 1006.5 |
| 20260507220711 | 58 | 243 | 2.0 | 8.0 | 0.00 | 1.06 | 1.06 | 67 | 1006.4 |
| 20260507220611 | 58 | 246 | 2.0 | 8.0 | 0.00 | 1.06 | 1.06 | 67 | 1006.3 |
| 20260507220511 | 58 | 243 | 3.0 | 8.0 | 0.00 | 1.06 | 1.06 | 67 | 1006.3 |
| 20260507220432 | 58 | 241 | 2.0 | 8.0 | 0.00 | 1.06 | 1.06 | 67 | 1006.3 |
| 20260507220311 | 58 | 241 | 1.0 | 8.0 | 0.00 | 1.06 | 1.06 | 67 | 1006.4 |
| 20260507220211 | 58 | 243 | 4.0 | 8.0 | 0.00 | 1.06 | 1.06 | 67 | 1006.2 |
| 20260507220111 | 58 | 240 | 3.0 | 8.0 | 0.00 | 1.06 | 1.06 | 67 | 1006.1 |
| 20260507220011 | 58 | 241 | 4.0 | 8.0 | 0.00 | 1.06 | 1.06 | 67 | 1006.2 |
| 20260507215911 | 58 | 243 | 2.0 | 8.0 | 0.00 | 1.06 | 1.06 | 67 | 1006.3 |
| 20260507215811 | 58 | 245 | 4.0 | 8.0 | 0.00 | 1.06 | 1.06 | 66 | 1006.1 |
| 20260507215710 | 58 | 243 | 2.0 | 8.0 | 0.00 | 1.06 | 1.06 | 66 | 1006.1 |
| 20260507215632 | 58 | 244 | 3.0 | 8.0 | 0.00 | 1.06 | 1.06 | 66 | 1005.9 |
| 20260507215532 | 58 | 240 | 3.0 | 8.0 | 0.00 | 1.06 | 1.06 | 66 | 1006.0 |
| 20260507215411 | 58 | 240 | 4.0 | 8.0 | 0.00 | 1.06 | 1.06 | 66 | 1005.8 |
| 20260507215311 | 58 | 243 | 4.0 | 11.0 | 0.00 | 1.06 | 1.06 | 66 | 1005.8 |
| 20260507215211 | 58 | 243 | 5.0 | 11.0 | 0.00 | 1.06 | 1.06 | 65 | 1005.9 |
| 20260507215111 | 58 | 241 | 5.0 | 11.0 | 0.00 | 1.06 | 1.06 | 65 | 1005.7 |
| 20260507215011 | 58 | 239 | 4.0 | 11.0 | 0.00 | 1.06 | 1.06 | 65 | 1005.8 |
| 20260507214911 | 58 | 234 | 4.0 | 11.0 | 0.00 | 1.06 | 1.06 | 66 | 1005.5 |
| 20260507214811 | 58 | 230 | 4.0 | 11.0 | 0.00 | 1.06 | 1.06 | 65 | 1005.7 |
| 20260507214711 | 59 | 222 | 5.0 | 11.0 | 0.00 | 1.06 | 1.06 | 65 | 1005.5 |
| 20260507214633 | 59 | 219 | 4.0 | 11.0 | 0.00 | 1.06 | 1.06 | 65 | 1005.6 |
| 20260507214511 | 59 | 225 | 3.0 | 11.0 | 0.00 | 1.06 | 1.06 | 65 | 1005.5 |
| 20260507214411 | 59 | 231 | 3.0 | 11.0 | 0.00 | 1.06 | 1.06 | 65 | 1005.4 |
| 20260507214311 | 59 | 227 | 7.0 | 11.0 | 0.00 | 1.06 | 1.06 | 65 | 1005.3 |
| 20260507214211 | 59 | 228 | 4.0 | 11.0 | 0.00 | 1.06 | 1.06 | 65 | 1005.5 |
| 20260507214111 | 59 | 224 | 4.0 | 11.0 | 0.00 | 1.06 | 1.06 | 65 | 1005.5 |
| 20260507214011 | 59 | 219 | 4.0 | 11.0 | 0.00 | 1.06 | 1.06 | 65 | 1005.6 |
| 20260507213911 | 59 | 221 | 3.0 | 11.0 | 0.00 | 1.06 | 1.06 | 65 | 1005.6 |
| 20260507213811 | 59 | 220 | 7.0 | 11.0 | 0.00 | 1.06 | 1.06 | 65 | 1005.6 |
| 20260507213732 | 59 | 218 | 7.0 | 13.0 | 0.00 | 1.06 | 1.06 | 65 | 1005.6 |
| 20260507213610 | 59 | 215 | 3.0 | 14.0 | 0.00 | 1.06 | 1.06 | 65 | 1005.6 |
| 20260507213511 | 59 | 214 | 6.0 | 14.0 | 0.00 | 1.06 | 1.06 | 65 | 1005.3 |
| 20260507213411 | 59 | 211 | 4.0 | 14.0 | 0.00 | 1.06 | 1.06 | 65 | 1005.4 |
| 20260507213332 | 59 | 210 | 4.0 | 14.0 | 0.00 | 1.06 | 1.06 | 65 | 1005.4 |
| 20260507213211 | 59 | 212 | 5.0 | 14.0 | 0.00 | 1.06 | 1.06 | 65 | 1005.3 |
| 20260507213110 | 59 | 202 | 5.0 | 14.0 | 0.00 | 1.06 | 1.06 | 65 | 1005.2 |
| 20260507213011 | 59 | 204 | 4.0 | 14.0 | 0.00 | 1.06 | 1.06 | 65 | 1005.2 |
| 20260507212932 | 59 | 202 | 4.0 | 14.0 | 0.00 | 1.06 | 1.06 | 65 | 1005.2 |
| 20260507212832 | 59 | 205 | 4.0 | 14.0 | 0.00 | 1.06 | 1.06 | 65 | 1005.3 |
| 20260507212711 | 59 | 216 | 6.0 | 16.0 | 0.00 | 1.06 | 1.06 | 64 | 1005.4 |
| 20260507212611 | 59 | 224 | 4.0 | 16.0 | 0.00 | 1.06 | 1.06 | 64 | 1005.3 |
| 20260507212511 | 59 | 217 | 5.0 | 16.0 | 0.00 | 1.06 | 1.06 | 64 | 1005.3 |
| 20260507212432 | 59 | 216 | 8.0 | 16.0 | 0.00 | 1.06 | 1.06 | 64 | 1005.3 |
| 20260507212332 | 59 | 210 | 5.0 | 18.0 | 0.00 | 1.06 | 1.06 | 64 | 1005.1 |
| 20260507212211 | 59 | 210 | 8.0 | 18.0 | 0.00 | 1.06 | 1.06 | 64 | 1005.2 |
| 20260507212111 | 59 | 216 | 9.0 | 18.0 | 0.00 | 1.06 | 1.06 | 64 | 1005.1 |
| 20260507212011 | 59 | 218 | 8.0 | 18.0 | 0.00 | 1.06 | 1.06 | 64 | 1005.2 |
| 20260507211911 | 59 | 213 | 7.0 | 20.0 | 0.00 | 1.06 | 1.06 | 64 | 1005.2 |
| 20260507211832 | 59 | 206 | 8.0 | 20.0 | 0.00 | 1.06 | 1.06 | 64 | 1005.1 |
| 20260507211711 | 59 | 206 | 9.0 | 20.0 | 0.00 | 1.06 | 1.06 | 64 | 1005.1 |
| 20260507211611 | 59 | 205 | 8.0 | 20.0 | 0.00 | 1.06 | 1.06 | 64 | 1005.3 |
| 20260507211511 | 59 | 204 | 4.0 | 20.0 | 0.00 | 1.06 | 1.06 | 65 | 1005.2 |
| 20260507211411 | 59 | 207 | 8.0 | 20.0 | 0.00 | 1.06 | 1.06 | 64 | 1005.0 |
| 20260507211311 | 59 | 211 | 5.0 | 20.0 | 0.00 | 1.06 | 1.06 | 65 | 1005.2 |
| 20260507211211 | 59 | 207 | 6.0 | 20.0 | 0.00 | 1.06 | 1.06 | 65 | 1005.1 |
| 20260507211111 | 59 | 201 | 6.0 | 20.0 | 0.00 | 1.06 | 1.06 | 65 | 1005.3 |
| 20260507211011 | 59 | 200 | 6.0 | 20.0 | 0.00 | 1.06 | 1.06 | 65 | 1005.1 |
| 20260507210911 | 59 | 202 | 11.0 | 20.0 | 0.00 | 1.06 | 1.06 | 65 | 1005.1 |
| 20260507210811 | 59 | 212 | 6.0 | 15.0 | 0.00 | 1.06 | 1.06 | 65 | 1005.2 |
| 20260507210711 | 59 | 206 | 5.0 | 15.0 | 0.00 | 1.06 | 1.06 | 65 | 1005.0 |
| 20260507210632 | 59 | 202 | 6.0 | 15.0 | 0.00 | 1.06 | 1.06 | 65 | 1005.1 |
| 20260507210511 | 59 | 201 | 7.0 | 15.0 | 0.00 | 1.06 | 1.06 | 65 | 1005.2 |
| 20260507210411 | 59 | 203 | 7.0 | 15.0 | 0.00 | 1.06 | 1.06 | 65 | 1005.1 |
| 20260507210333 | 59 | 202 | 3.0 | 15.0 | 0.00 | 1.06 | 1.06 | 65 | 1005.3 |
| 20260507210211 | 59 | 200 | 10.0 | 15.0 | 0.00 | 1.06 | 1.06 | 64 | 1005.1 |
| 20260507210111 | 59 | 206 | 5.0 | 15.0 | 0.00 | 1.06 | 1.06 | 65 | 1005.2 |
| 20260507210033 | 59 | 206 | 5.0 | 15.0 | 0.00 | 1.06 | 1.06 | 65 | 1005.2 |
| 20260507205911 | 59 | 214 | 5.0 | 15.0 | 0.00 | 1.06 | 1.06 | 65 | 1005.1 |
| 20260507205811 | 59 | 214 | 7.0 | 15.0 | 0.00 | 1.06 | 1.06 | 65 | 1005.1 |
| 20260507205711 | 59 | 217 | 8.0 | 15.0 | 0.00 | 1.06 | 1.06 | 65 | 1005.1 |
| 20260507205632 | 59 | 219 | 7.0 | 15.0 | 0.00 | 1.06 | 1.06 | 64 | 1005.0 |
| 20260507205532 | 59 | 220 | 9.0 | 15.0 | 0.00 | 1.06 | 1.06 | 64 | 1005.2 |
| 20260507205432 | 59 | 213 | 5.0 | 15.0 | 0.00 | 1.06 | 1.06 | 65 | 1005.0 |
| 20260507205311 | 59 | 219 | 8.0 | 15.0 | 0.00 | 1.06 | 1.06 | 64 | 1005.1 |
| 20260507205211 | 59 | 223 | 5.0 | 15.0 | 0.00 | 1.06 | 1.06 | 64 | 1005.2 |
| 20260507205111 | 59 | 216 | 9.0 | 15.0 | 0.00 | 1.06 | 1.06 | 64 | 1005.2 |
| 20260507205011 | 59 | 217 | 8.0 | 14.0 | 0.00 | 1.06 | 1.06 | 64 | 1005.4 |
| 20260507204911 | 59 | 210 | 8.0 | 14.0 | 0.00 | 1.06 | 1.06 | 64 | 1005.3 |
| 20260507204811 | 59 | 205 | 7.0 | 14.0 | 0.00 | 1.06 | 1.06 | 64 | 1005.4 |
| 20260507204711 | 59 | 210 | 6.0 | 14.0 | 0.00 | 1.06 | 1.06 | 64 | 1005.2 |
| 20260507204632 | 60 | 210 | 5.0 | 14.0 | 0.00 | 1.06 | 1.06 | 64 | 1005.4 |
| 20260507204511 | 59 | 212 | 6.0 | 14.0 | 0.00 | 1.06 | 1.06 | 64 | 1005.4 |
| 20260507204411 | 59 | 213 | 6.0 | 14.0 | 0.00 | 1.06 | 1.06 | 64 | 1005.4 |
| 20260507204311 | 59 | 207 | 8.0 | 14.0 | 0.00 | 1.06 | 1.06 | 64 | 1005.3 |
| 20260507204211 | 59 | 211 | 6.0 | 16.0 | 0.00 | 1.06 | 1.06 | 64 | 1005.3 |
| 20260507204111 | 60 | 212 | 8.0 | 16.0 | 0.00 | 1.06 | 1.06 | 64 | 1005.4 |
| 20260507204011 | 60 | 217 | 6.0 | 16.0 | 0.00 | 1.06 | 1.06 | 64 | 1005.4 |
| 20260507203911 | 60 | 222 | 5.0 | 16.0 | 0.00 | 1.06 | 1.06 | 64 | 1005.4 |
| 20260507203811 | 60 | 225 | 4.0 | 16.0 | 0.00 | 1.06 | 1.06 | 64 | 1005.4 |
| 20260507203711 | 60 | 220 | 4.0 | 16.0 | 0.00 | 1.06 | 1.06 | 64 | 1005.5 |
| 20260507203611 | 60 | 224 | 6.0 | 16.0 | 0.00 | 1.06 | 1.06 | 64 | 1005.3 |
| 20260507203511 | 60 | 220 | 6.0 | 16.0 | 0.00 | 1.06 | 1.06 | 64 | 1005.3 |
| 20260507203411 | 60 | 219 | 5.0 | 16.0 | 0.00 | 1.06 | 1.06 | 63 | 1005.5 |
| 20260507203311 | 60 | 225 | 5.0 | 16.0 | 0.00 | 1.06 | 1.06 | 63 | 1005.5 |
| 20260507203211 | 60 | 232 | 10.0 | 16.0 | 0.00 | 1.06 | 1.06 | 63 | 1005.4 |
| 20260507203111 | 60 | 228 | 4.0 | 20.0 | 0.00 | 1.06 | 1.06 | 63 | 1005.4 |
| 20260507203011 | 60 | 232 | 4.0 | 20.0 | 0.00 | 1.06 | 1.06 | 63 | 1005.4 |
| 20260507202911 | 60 | 231 | 4.0 | 20.0 | 0.00 | 1.06 | 1.06 | 63 | 1005.4 |
| 20260507202832 | 60 | 232 | 7.0 | 20.0 | 0.00 | 1.06 | 1.06 | 62 | 1005.5 |
| 20260507202711 | 60 | 232 | 9.0 | 20.0 | 0.00 | 1.06 | 1.06 | 62 | 1005.3 |
| 20260507202611 | 60 | 232 | 8.0 | 20.0 | 0.00 | 1.06 | 1.06 | 62 | 1005.5 |
| 20260507202511 | 60 | 237 | 5.0 | 20.0 | 0.00 | 1.06 | 1.06 | 62 | 1005.5 |
| 20260507202411 | 60 | 237 | 9.0 | 20.0 | 0.00 | 1.06 | 1.06 | 61 | 1005.3 |
| 20260507202311 | 60 | 230 | 8.0 | 20.0 | 0.00 | 1.06 | 1.06 | 61 | 1005.4 |
| 20260507202211 | 60 | 223 | 12.0 | 20.0 | 0.00 | 1.06 | 1.06 | 62 | 1005.2 |
| 20260507202111 | 60 | 228 | 8.0 | 18.0 | 0.00 | 1.06 | 1.06 | 63 | 1005.2 |
| 20260507202011 | 60 | 223 | 4.0 | 17.0 | 0.00 | 1.06 | 1.06 | 63 | 1005.5 |
| 20260507201911 | 60 | 221 | 4.0 | 17.0 | 0.00 | 1.06 | 1.06 | 63 | 1005.3 |
| 20260507201811 | 60 | 223 | 5.0 | 17.0 | 0.00 | 1.06 | 1.06 | 62 | 1005.0 |
| 20260507201711 | 60 | 229 | 6.0 | 17.0 | 0.00 | 1.06 | 1.06 | 62 | 1005.1 |
| 20260507201611 | 60 | 222 | 7.0 | 17.0 | 0.00 | 1.06 | 1.06 | 62 | 1005.2 |
| 20260507201510 | 60 | 217 | 7.0 | 17.0 | 0.00 | 1.06 | 1.06 | 62 | 1005.1 |
| 20260507201432 | 60 | 218 | 7.0 | 17.0 | 0.00 | 1.06 | 1.06 | 62 | 1005.3 |
| 20260507201310 | 60 | 219 | 8.0 | 17.0 | 0.00 | 1.06 | 1.06 | 62 | 1005.2 |
| 20260507201232 | 60 | 214 | 8.0 | 17.0 | 0.00 | 1.06 | 1.06 | 62 | 1005.1 |
| 20260507201111 | 60 | 210 | 8.0 | 16.0 | 0.00 | 1.06 | 1.06 | 62 | 1005.0 |
| 20260507201032 | 60 | 207 | 6.0 | 16.0 | 0.00 | 1.06 | 1.06 | 62 | 1005.0 |
| 20260507200911 | 60 | 212 | 8.0 | 16.0 | 0.00 | 1.06 | 1.06 | 61 | 1005.1 |
| 20260507200811 | 60 | 205 | 9.0 | 16.0 | 0.00 | 1.06 | 1.06 | 61 | 1005.1 |
| 20260507200711 | 60 | 202 | 8.0 | 16.0 | 0.00 | 1.06 | 1.06 | 61 | 1005.0 |
| 20260507200632 | 60 | 202 | 11.0 | 16.0 | 0.00 | 1.06 | 1.06 | 61 | 1005.2 |
| 20260507200511 | 60 | 202 | 6.0 | 14.0 | 0.00 | 1.06 | 1.06 | 62 | 1005.3 |
| 20260507200411 | 60 | 201 | 8.0 | 14.0 | 0.00 | 1.06 | 1.06 | 62 | 1005.4 |
| 20260507200311 | 60 | 201 | 6.0 | 14.0 | 0.00 | 1.06 | 1.06 | 62 | 1005.3 |
| 20260507200210 | 60 | 202 | 7.0 | 14.0 | 0.00 | 1.06 | 1.06 | 62 | 1005.4 |
| 20260507200111 | 60 | 200 | 5.0 | 14.0 | 0.00 | 1.06 | 1.06 | 62 | 1005.3 |
| 20260507200032 | 60 | 197 | 9.0 | 21.0 | 0.00 | 1.06 | 1.06 | 61 | 1005.3 |
| 20260507195911 | 60 | 190 | 5.0 | 21.0 | 0.00 | 1.06 | 1.06 | 62 | 1005.3 |
| 20260507195811 | 60 | 191 | 4.0 | 21.0 | 0.00 | 1.06 | 1.06 | 62 | 1005.3 |
| 20260507195710 | 60 | 191 | 5.0 | 21.0 | 0.00 | 1.06 | 1.06 | 61 | 1005.2 |
| 20260507195632 | 60 | 190 | 7.0 | 21.0 | 0.00 | 1.06 | 1.06 | 61 | 1005.3 |
| 20260507195511 | 60 | 201 | 8.0 | 21.0 | 0.00 | 1.06 | 1.06 | 61 | 1005.1 |
| 20260507195411 | 60 | 197 | 7.0 | 21.0 | 0.00 | 1.06 | 1.06 | 61 | 1005.3 |
| 20260507195311 | 60 | 190 | 6.0 | 21.0 | 0.00 | 1.06 | 1.06 | 60 | 1005.3 |
| 20260507195211 | 60 | 191 | 8.0 | 21.0 | 0.00 | 1.06 | 1.06 | 60 | 1005.1 |
| 20260507195132 | 60 | 195 | 7.0 | 21.0 | 0.00 | 1.06 | 1.06 | 60 | 1005.1 |
| 20260507195011 | 60 | 207 | 11.0 | 21.0 | 0.00 | 1.06 | 1.06 | 60 | 1005.2 |
| 20260507194911 | 60 | 213 | 9.0 | 21.0 | 0.00 | 1.06 | 1.06 | 60 | 1005.2 |
| 20260507194811 | 60 | 209 | 8.0 | 21.0 | 0.00 | 1.06 | 1.06 | 60 | 1005.0 |
| 20260507194732 | 60 | 203 | 7.0 | 21.0 | 0.00 | 1.06 | 1.06 | 60 | 1005.3 |
| 20260507194611 | 60 | 206 | 8.0 | 21.0 | 0.00 | 1.06 | 1.06 | 60 | 1005.0 |
| 20260507194511 | 60 | 198 | 11.0 | 21.0 | 0.00 | 1.06 | 1.06 | 60 | 1005.0 |
| 20260507194411 | 61 | 197 | 12.0 | 21.0 | 0.00 | 1.06 | 1.06 | 60 | 1005.0 |
| 20260507194310 | 61 | 209 | 12.0 | 21.0 | 0.00 | 1.06 | 1.06 | 60 | 1004.9 |
| 20260507194232 | 61 | 214 | 8.0 | 20.0 | 0.00 | 1.06 | 1.06 | 60 | 1005.0 |
| 20260507194111 | 61 | 210 | 9.0 | 20.0 | 0.00 | 1.06 | 1.06 | 60 | 1004.8 |
| 20260507194011 | 61 | 204 | 8.0 | 20.0 | 0.00 | 1.06 | 1.06 | 60 | 1005.0 |
| 20260507193911 | 61 | 197 | 8.0 | 20.0 | 0.00 | 1.06 | 1.06 | 60 | 1004.9 |
| 20260507193811 | 61 | 202 | 10.0 | 20.0 | 0.00 | 1.06 | 1.06 | 59 | 1004.9 |
| 20260507193711 | 61 | 201 | 11.0 | 20.0 | 0.00 | 1.06 | 1.06 | 59 | 1004.9 |
| 20260507193611 | 61 | 195 | 9.0 | 20.0 | 0.00 | 1.06 | 1.06 | 59 | 1004.8 |
| 20260507193511 | 61 | 195 | 9.0 | 24.0 | 0.00 | 1.06 | 1.06 | 59 | 1004.8 |
| 20260507193411 | 61 | 194 | 10.0 | 24.0 | 0.00 | 1.06 | 1.06 | 59 | 1004.8 |
| 20260507193311 | 61 | 197 | 8.0 | 24.0 | 0.00 | 1.06 | 1.06 | 59 | 1004.8 |
| 20260507193211 | 61 | 190 | 10.0 | 24.0 | 0.00 | 1.06 | 1.06 | 59 | 1004.9 |
| 20260507193111 | 61 | 186 | 11.0 | 24.0 | 0.00 | 1.06 | 1.06 | 59 | 1004.6 |
| 20260507193011 | 61 | 188 | 11.0 | 24.0 | 0.00 | 1.06 | 1.06 | 59 | 1004.8 |
| 20260507192911 | 61 | 198 | 7.0 | 24.0 | 0.00 | 1.06 | 1.06 | 60 | 1004.5 |
| 20260507192811 | 61 | 194 | 10.0 | 24.0 | 0.00 | 1.06 | 1.06 | 60 | 1004.6 |
| 20260507192711 | 61 | 196 | 8.0 | 24.0 | 0.00 | 1.06 | 1.06 | 60 | 1004.8 |
| 20260507192611 | 61 | 199 | 9.0 | 24.0 | 0.00 | 1.06 | 1.06 | 59 | 1004.5 |
| 20260507192511 | 61 | 198 | 12.0 | 24.0 | 0.00 | 1.06 | 1.06 | 59 | 1004.4 |
| 20260507192411 | 62 | 201 | 8.0 | 20.0 | 0.00 | 1.06 | 1.06 | 59 | 1004.5 |
| 20260507192310 | 62 | 199 | 9.0 | 20.0 | 0.00 | 1.06 | 1.06 | 59 | 1004.4 |
| 20260507192232 | 62 | 200 | 9.0 | 18.0 | 0.00 | 1.06 | 1.06 | 59 | 1004.4 |
| 20260507192110 | 62 | 203 | 11.0 | 24.0 | 0.00 | 1.06 | 1.06 | 59 | 1004.2 |
| 20260507192011 | 62 | 204 | 8.0 | 24.0 | 0.00 | 1.06 | 1.06 | 59 | 1004.1 |
| 20260507191932 | 62 | 197 | 11.0 | 24.0 | 0.00 | 1.06 | 1.06 | 59 | 1004.3 |
| 20260507191811 | 62 | 204 | 5.0 | 24.0 | 0.00 | 1.06 | 1.06 | 59 | 1003.9 |
| 20260507191711 | 62 | 206 | 7.0 | 24.0 | 0.00 | 1.06 | 1.06 | 59 | 1003.9 |
| 20260507191611 | 62 | 208 | 9.0 | 24.0 | 0.00 | 1.06 | 1.06 | 59 | 1004.0 |
| 20260507191511 | 62 | 205 | 11.0 | 24.0 | 0.00 | 1.06 | 1.06 | 58 | 1003.7 |
| 20260507191411 | 62 | 200 | 10.0 | 24.0 | 0.00 | 1.06 | 1.06 | 58 | 1003.7 |
| 20260507191311 | 62 | 197 | 8.0 | 24.0 | 0.00 | 1.06 | 1.06 | 58 | 1003.6 |
| 20260507191210 | 61 | 193 | 8.0 | 24.0 | 0.00 | 1.06 | 1.06 | 58 | 1003.6 |
| 20260507191132 | 61 | 191 | 16.0 | 24.0 | 0.00 | 1.06 | 1.06 | 57 | 1003.5 |
| 20260507191010 | 61 | 195 | 8.0 | 24.0 | 0.00 | 1.06 | 1.06 | 58 | 1003.4 |
| 20260507190911 | 61 | 200 | 12.0 | 24.0 | 0.00 | 1.06 | 1.06 | 58 | 1003.5 |
| 20260507190811 | 61 | 196 | 9.0 | 24.0 | 0.00 | 1.06 | 1.06 | 58 | 1003.5 |
| 20260507190710 | 61 | 195 | 11.0 | 24.0 | 0.00 | 1.06 | 1.06 | 58 | 1003.6 |
| 20260507190610 | 62 | 193 | 8.0 | 24.0 | 0.00 | 1.06 | 1.06 | 59 | 1003.6 |
| 20260507190510 | 62 | 198 | 8.0 | 24.0 | 0.00 | 1.06 | 1.06 | 59 | 1003.5 |
| 20260507190411 | 62 | 205 | 14.0 | 24.0 | 0.00 | 1.06 | 1.06 | 58 | 1003.4 |
| 20260507190311 | 62 | 204 | 16.0 | 24.0 | 0.00 | 1.06 | 1.06 | 57 | 1003.6 |
| 20260507190211 | 62 | 207 | 13.0 | 23.0 | 0.00 | 1.06 | 1.06 | 57 | 1003.3 |
| 20260507190111 | 62 | 208 | 8.0 | 23.0 | 0.00 | 1.06 | 1.06 | 58 | 1003.3 |
| 20260507190011 | 62 | 208 | 12.0 | 23.0 | 0.00 | 1.06 | 1.06 | 57 | 1003.4 |
| 20260507185911 | 62 | 203 | 12.0 | 23.0 | 0.00 | 1.06 | 1.06 | 57 | 1003.3 |
| 20260507185811 | 62 | 198 | 8.0 | 23.0 | 0.00 | 1.06 | 1.06 | 57 | 1003.4 |
| 20260507185711 | 62 | 195 | 10.0 | 23.0 | 0.00 | 1.06 | 1.06 | 57 | 1003.6 |
| 20260507185610 | 62 | 195 | 15.0 | 23.0 | 0.00 | 1.06 | 1.06 | 57 | 1003.5 |
| 20260507185510 | 62 | 196 | 10.0 | 25.0 | 0.00 | 1.06 | 1.06 | 57 | 1003.5 |
| 20260507185411 | 62 | 193 | 13.0 | 25.0 | 0.00 | 1.06 | 1.06 | 57 | 1003.4 |
| 20260507185311 | 62 | 198 | 13.0 | 25.0 | 0.00 | 1.06 | 1.06 | 57 | 1003.4 |
| 20260507185232 | 62 | 194 | 7.0 | 25.0 | 0.00 | 1.06 | 1.06 | 58 | 1003.4 |